     2.11           OBSERVATION DATA    G (GPS)             RINEX VERSION / TYPE
teqc 2010Oct21 OPUS Account 20111027 15:00:34UTC            PGM / RUN BY / DATE
S 1524                                                      MARKER NAME
1221                                                        MARKER NUMBER
CSMIDDLETON NGS                                             OBSERVER / AGENCY
4624K01590 TRIMBLE NETR5 4.41                               REC # / TYPE / VERS
12236910 TRM41249.00 NONE                                   ANT # / TYPE
  -761595.3903 -5534138.0946  3067771.9662                  APPROX POSITION XYZ
        2.0010        0.0000        0.0000                  ANTENNA: DELTA H/E/N
     1     1                                                WAVELENGTH FACT L1/2
     5    L1    L2    C1    P1    P2                        # / TYPES OF OBSERV
    15                                                      LEAP SECONDS
  2011     8    14     0     0    0.0000000     GPS         TIME OF FIRST OBS
                                                            END OF HEADER
 11  8 14  0  0  0.0000000  0  9G27G04G05G09G02G10G28G12G17
 120399526.087 7  93817876.75344  22911275.227                    22911284.988
 107875165.403 8  84058688.22246  20527940.570                    20527948.156
 124688868.147 7  97160266.262 6  23727492.781                    23727503.746
 118385255.276 7  92248301.12844  22527968.352                    22527978.074
 109618055.976 8  85416797.30446  20859603.117                    20859608.969
 112388964.441 8  87575952.01045  21386895.539                    21386904.074
 124392932.742 6  96929574.98843  23671196.922                    23671206.789
 119334449.257 7  92987936.305 7  22708592.469                    22708599.367
 117496244.781 7  91555579.973 7  22358790.508                    22358797.793
 11  8 14  0  0 30.0000000  0  9G27G04G05G09G02G10G28G12G17
 120445878.376 7  93853995.34644  22920095.945                    22920105.875
 107930098.951 8  84101493.58546  20538393.992                    20538401.809
 124583468.465 7  97078136.910 6  23707436.523                    23707447.074
 118435978.074 7  92287825.34544  22537621.164                    22537630.520
 109587537.684 8  85393016.85446  20853795.648                    20853801.066
 112335476.609 8  87534273.23646  21376717.250                    21376725.227
 124487405.104 6  97003189.71343  23689174.500                    23689184.727
 119246509.249 7  92919411.651 7  22691857.781                    22691865.117
 117537796.703 7  91587958.069 7  22366697.289                    22366704.488
 11  8 14  0  1  0.0000000  0  9G27G04G05G09G02G10G28G12G17
 120492537.835 7  93890353.26344  22928975.000                    22928984.598
 107985378.125 8  84144568.26646  20548913.188                    20548921.039
 124478104.765 7  96996035.593 6  23687385.805                    23687396.992
 118487158.111 7  92327705.85944  22547360.547                    22547370.207
 109557383.648 8  85369520.23846  20848057.461                    20848063.145
 112282481.994 8  87492978.78946  21366632.688                    21366641.164
 124582132.762 6  97077003.40043  23707201.742                    23707210.973
 119158775.247 7  92851047.525 7  22675162.664                    22675170.129
 117579451.977 7  91620416.707 7  22374623.961                    22374631.625
 11  8 14  0  1 30.0000000  0  9G27G04G05G09G02G10G28G12G17
 120539501.865 7  93926948.52044  22937912.453                    22937921.762
 108041000.338 8  84187910.24746  20559497.922                    20559505.816
 124372780.075 7  96913964.701 6  23667342.664                    23667354.301
 118538792.536 7  92367940.43145  22557186.320                    22557195.629
 109527593.371 8  85346307.08346  20842388.313                    20842394.078
 112229982.850 8  87452070.41446  21356642.430                    21356650.547
 124677113.704 6  97151014.43144  23725275.523                    23725285.133
 119071249.198 7  92782845.416 7  22658506.445                    22658514.195
 117621211.419 7  91652956.520 7  22382570.758                    22382577.840
 11  8 14  0  2  0.0000000  0  9G27G04G05G09G02G10G28G12G17
 120586768.023 7  93963779.20844  22946906.344                    22946916.465
 108096963.389 8  84231517.81346  20570147.328                    20570154.797
 124267497.271 7  96831926.446 6  23647308.180                    23647319.488
 118590878.736 7  92408527.02845  22567097.625                    22567107.152
 109498166.446 8  85323377.05046  20836788.594                    20836794.063
 112177982.301 8  87411550.56345  21346747.125                    21346755.801
 124772346.178 7  97225221.47544  23743397.734                    23743407.453
 118983933.866 7  92714807.494 7  22641891.266                    22641898.688
 117663075.873 7  91685578.151 7  22390537.477                    22390544.094
 11  8 14  0  2 30.0000000  0  9G27G04G05G09G02G10G28G12G17
 120634333.524 7  94000843.14844  22955958.039                    22955968.023
 108153264.244 8  84275388.60546  20580860.883                    20580868.574
 124162258.671 7  96749922.641 6  23627281.789                    23627293.375
 118643413.256 7  92449462.94845  22577094.633                    22577104.184
 109469102.048 8  85300729.51946  20831257.984                    20831263.617
 112126481.816 8  87371420.35545  21336946.453                    21336954.512
 124867828.262 6  97299622.99644  23761566.758                    23761576.781
 118896831.493 7  92646935.535 7  22625315.984                    22625323.418
 117705045.291 7  91718281.563 7  22398523.586                    22398530.898
 11  8 14  0  3  0.0000000  0  9G27G04G05G09G02G10G28G12G17
 120682196.478 7  94038138.86844  22965066.172                    22965076.262
 108209900.979 8  84319521.13346  20591638.305                    20591646.324
 124057067.455 7  96667955.746 6  23607263.359                    23607275.895
 118696393.403 7  92490746.12045  22587176.781                    22587186.320
 109440400.277 8  85278364.54246  20825796.445                    20825801.828
 112075484.536 8  87331682.26845  21327242.156                    21327249.988
 124963558.475 7  97374217.87643  23779784.453                    23779793.707
 118809945.000 7  92579231.779 7  22608782.391                    22608789.793
 117747120.506 7  91751067.431 7  22406530.711                    22406537.602
 11  8 14  0  3 30.0000000  0  9G27G04G05G09G02G10G28G12G17
 120730354.200 7  94075664.28144  22974230.383                    22974239.875
 108266871.275 8  84363913.56046  20602479.555                    20602487.277
 123951926.290 7  96586027.859 7  23587255.727                    23587267.395
 118749816.315 7  92532374.28245  22597343.055                    22597352.383
 109412060.383 8  85256281.54846  20820402.969                    20820408.746
 112024992.867 8  87292338.15946  21317633.680                    21317641.934
 125059534.719 6  97449004.50243  23798048.086                    23798057.398
 118723276.548 7  92511697.932 7  22592289.813                    22592297.375
 117789302.031 7  91783936.126 7  22414557.273                    22414565.105
 11  8 14  0  4  0.0000000  0  9G27G04G05G09G02G10G28G12G17
 120778804.195 7  94113417.44044  22983450.141                    22983459.930
 108324172.498 8  84408563.86946  20613383.625                    20613391.539
 123846838.269 7  96504141.380 6  23567258.086                    23567269.957
 118803678.948 7  92574345.08845  22607593.164                    22607601.910
 109384082.007 8  85234480.25646  20815079.102                    20815084.820
 111975009.370 8  87253390.01846  21308122.711                    21308130.914
 125155755.355 6  97523981.56243  23816357.906                    23816367.176
 118636828.696 7  92444335.980 7  22575839.195                    22575846.816
 117831590.356 7  91816888.039 7  22422604.891                    22422611.992
 11  8 14  0  4 30.0000000  0  9G27G04G05G09G02G10G28G12G17
 120827543.903 7  94151396.35044  22992724.891                    22992734.855
 108381802.251 8  84453470.17446  20624349.938                    20624358.234
 123741806.220 7  96422298.488 7  23547271.422                    23547282.508
 118857978.251 7  92616656.15344  22617925.344                    22617935.094
 109356464.734 8  85212960.33746  20809823.555                    20809829.602
 111925536.168 8  87214839.50946  21298707.859                    21298715.992
 125252218.455 6  97599147.57443  23834714.125                    23834724.039
 118550604.107 7  92377148.013 7  22559431.016                    22559438.723
 117873986.224 7  91849923.767 7  22430672.063                    22430680.402
 11  8 14  0  5  0.0000000  0  9G27G04G05G09G02G10G28G12G17
 120876571.029 7  94189599.21044  23002054.180                    23002064.840
 108439758.552 8  84498630.92846  20635378.789                    20635386.543
 123636832.780 7  96340501.269 6  23527295.133                    23527306.570
 118912711.160 7  92659305.09845  22628341.211                    22628350.410
 109329208.166 8  85191721.49646  20804636.773                    20804642.242
 111876576.077 8  87176688.84646  21289390.977                    21289399.367
 125348922.126 6  97674501.02143  23853116.281                    23853126.375
 118464605.790 7  92310136.368 7  22543066.656                    22543073.633
 117916490.024 7  91883043.588 7  22438760.711                    22438767.996
 11  8 14  0  5 30.0000000  0  9G27G04G05G09G02G10G28G12G17
 120925883.455 7  94228024.39144  23011438.438                    23011448.383
 108498038.957 8  84544044.23046  20646469.391                    20646476.730
 123531921.314 7  96258752.330 6  23507331.258                    23507342.180
 118967875.054 7  92702289.87845  22638837.570                    22638847.863
 109302311.992 8  85170763.48046  20799518.742                    20799524.449
 111828131.690 8  87138940.00646  21280172.508                    21280180.504
 125445864.711 6  97750040.60443  23871564.000                    23871574.098
 118378835.875 7  92243302.690 7  22526744.734                    22526752.117
 117959102.580 7  91916248.149 7  22446869.414                    22446876.914
 11  8 14  0  6  0.0000000  0  9G27G04G05G09G02G10G28G12G17
 120975478.005 7  94266669.39144  23020876.313                    23020886.270
 108556640.764 8  84589707.98246  20657620.633                    20657628.070
 123427074.266 7  96177053.596 6  23487378.398                    23487389.855
 119023466.703 7  92745607.96145  22649417.078                    22649426.832
 109275775.161 8  85150085.47546  20794468.547                    20794474.199
 111780204.901 8  87101594.51546  21271052.031                    21271060.031
 125543044.330 6  97825764.85943  23890056.930                    23890067.148
 118293296.630 7  92176648.781 7  22510467.047                    22510474.539
 118001824.131 7  91949537.671 7  22454999.117                    22455006.867
 11  8 14  0  6 30.0000000  0  9G27G04G05G09G02G10G28G12G17
 121025352.632 7  94305532.64944  23030366.602                    23030377.266
 108615562.019 8  84635620.65046  20668833.234                    20668840.988
 123322295.057 7  96095407.712 6  23467440.219                    23467450.684
 119079482.994 7  92789256.94145  22660076.484                    22660086.320
 109249598.061 8  85129687.77046  20789487.148                    20789492.770
 111732798.621 8  87064654.59046  21262031.086                    21262039.355
 125640459.315 6  97901672.57343  23908594.484                    23908604.906
 118207991.426 7  92110177.235 7  22494233.852                    22494241.746
 118044655.503 7  91982912.747 7  22463149.508                    22463157.246
 11  8 14  0  7  0.0000000  0  9G27G04G05G09G02G10G28G12G17
 121075504.578 7  94344612.00444  23039910.867                    23039921.359
 108674800.007 8  84681780.11546  20680105.883                    20680113.590
 123217586.306 7  96013816.728 6  23447514.508                    23447525.297
 119135920.853 7  92833234.41344  22670816.398                    22670826.156
 109223779.645 8  85109569.55646  20784574.656                    20784579.859
 111685914.870 8  87028121.84446  21253109.797                    21253117.926
 125738107.468 6  97977761.93243  23927177.008                    23927186.535
 118122922.310 7  92043889.656 7  22478046.023                    22478053.512
 118087597.034 7  92016373.671 7  22471321.172                    22471328.930
 11  8 14  0  7 30.0000000  0  9G27G04G05G09G02G10G28G12G17
 121125931.476 7  94383905.59444  23049506.398                    23049516.328
 108734352.466 8  84728184.63246  20691438.188                    20691446.066
 123112950.998 7  95932282.965 6  23427602.500                    23427613.746
 119192777.708 7  92877538.38645  22681635.859                    22681645.625
 109198319.567 8  85089730.57746  20779729.516                    20779734.781
 111639556.233 8  86991998.26546  21244287.617                    21244295.945
 125835987.224 6  98054031.80443  23945802.789                    23945812.570
 118038091.744 7  91977787.960 7  22461903.305                    22461910.766
 118130649.399 7  92049920.959 7  22479513.313                    22479520.949
 11  8 14  0  8  0.0000000  0  9G27G04G05G09G02G10G28G12G17
 121176631.298 7  94423411.85344  23059154.172                    23059165.297
 108794217.404 8  84774832.64646  20702830.070                    20702838.313
 123008392.378 7  95850808.944 6  23407705.641                    23407716.457
 119250050.464 7  92922166.43044  22692534.945                    22692544.117
 109173217.530 8  85070170.57646  20774952.844                    20774958.305
 111593725.277 8  86956285.88246  21235565.953                    21235574.266
 125934096.719 6  98130480.65443  23964472.195                    23964482.906
 117953502.592 7  91911874.379 7  22445806.227                    22445813.992
 118173813.351 7  92083555.191 7  22487727.469                    22487735.160
 11  8 14  0  8 30.0000000  0  9G27G04G05G09G02G10G28G12G17
 121227601.283 7  94463128.62744  23068853.688                    23068864.219
 108854392.321 8  84821722.18646  20714281.016                    20714288.848
 122903913.129 7  95769396.758 6  23387823.594                    23387834.336
 119307735.997 7  92967116.11745  22703512.125                    22703521.629
 109148473.134 8  85050889.27246  20770243.930                    20770249.398
 111548424.147 8  86920986.33546  21226945.633                    21226952.945
 126032433.760 6  98207106.84343  23983185.414                    23983195.359
 117869157.498 7  91846150.963 7  22429755.773                    22429763.500
 118217089.520 7  92117276.863 7  22495962.703                    22495970.418
 11  8 14  0  9  0.0000000  0  9G27G04G05G09G02G10G28G12G17
 121278838.248 7  94503053.43644  23078604.477                    23078614.488
 108914874.271 8  84868850.97346  20725790.633                    20725798.484
 122799515.476 7  95688048.160 6  23367957.320                    23367968.117
 119365830.723 7  93012384.66244  22714566.664                    22714576.465
 109124084.909 8  85031885.48946  20765602.680                    20765608.230
 111503654.357 8  86886100.82746  21218426.406                    21218434.625
 126130995.979 6  98283908.48743  24001940.281                    24001950.676
 117785058.612 7  91780619.406 7  22413752.164                    22413760.016
 118260478.151 7  92151086.161 7  22504219.523                    22504227.082
 11  8 14  0  9 30.0000000  0  9G27G04G05G09G02G10G28G12G17
 121330339.829 7  94543184.44444  23088404.281                    23088414.840
 108975661.097 8  84916217.32246  20737357.813                    20737365.613
 122695202.487 7  95606765.529 6  23348106.922                    23348117.902
 119424331.895 7  93057969.91145  22725699.539                    22725709.203
 109100052.595 8  85013159.04046  20761029.766                    20761035.277
 111459418.841 8  86851631.63746  21210008.383                    21210016.203
 126229782.168 6  98360884.65743  24020739.391                    24020749.535
 117701208.630 7  91715281.807 7  22397796.039                    22397803.852
 118303979.865 7  92184983.586 7  22512497.414                    22512504.941
 11  8 14  0 10  0.0000000  0  9G27G04G05G09G02G10G28G12G17
 121382103.836 7  94583519.93444  23098255.227                    23098265.762
 109036750.674 8  84963819.59046  20748982.766                    20748990.480
 122590978.026 7  95525551.888 7  23328273.859                    23328284.652
 119483236.510 7  93103869.54444  22736908.688                    22736918.441
 109076376.232 8  84994709.94346  20756524.188                    20756529.781
 111415719.682 8  86817580.39146  21201692.945                    21201700.809
 126328790.600 6  98438034.00243  24039580.016                    24039589.984
 117617610.218 7  91650140.226 7  22381887.883                    22381895.758
 118347595.297 7  92218969.619 7  22520797.625                    22520805.305
 11  8 14  0 10 30.0000000  0  9G27G04G05G09G02G10G28G12G17
 121434127.437 7  94624057.70244  23108154.414                    23108165.289
 109098140.601 8  85011655.88946  20760665.055                    20760672.199
 122486844.500 7  95444409.104 6  23308457.805                    23308468.430
 119542541.260 7  93150080.97144  22748194.273                    22748203.797
 109053054.815 8  84976537.43646  20752086.359                    20752092.098
 111372559.127 8  86783948.84046  21193479.219                    21193487.512
 126428018.786 5  98515354.55243  24058462.328                    24058473.250
 117534266.017 7  91585196.742 7  22366028.023                    22366035.266
 118391324.969 7  92253044.669 7  22529118.852                    22529126.305
 11  8 14  0 11  0.0000000  0  9G27G04G05G09G02G10G28G12G17
 121486408.599 7  94664796.16744  23118103.945                    23118114.027
 109159828.626 8  85059724.46546  20772403.547                    20772411.246
 122382804.972 7  95363339.569 6  23288659.586                    23288669.895
 119602243.380 7  93196602.02944  22759554.766                    22759564.883
 109030088.279 8  84958641.44846  20747715.992                    20747721.352
 111329939.532 8  86750738.80946  21185369.242                    21185377.313
 126527465.151 5  98592845.10942  24077386.000                    24077396.895
 117451179.034 7  91520453.676 7  22350217.227                    22350224.500
 118435169.902 7  92287209.538 7  22537461.242                    22537470.086
 11  8 14  0 11 30.0000000  0  9G27G04G05G09G02G10G28G12G17
 121538943.978 7  94705732.72544  23128100.555                    23128111.414
 109221811.967 8  85108023.16746  20784199.063                    20784206.652
 122278862.122 7  95282345.347 6  23268879.617                    23268890.160
 119662339.189 7  93243429.84844  22770991.344                    22771000.938
 109007475.404 8  84941021.04046  20743413.039                    20743418.281
 111287862.820 8  86717951.80746  21177362.523                    21177370.141
 126627127.300 5  98670503.84042  24096351.859                    24096362.043
 117368351.199 7  91455912.552 7  22334455.078                    22334462.992
 118479130.251 7  92321464.335 7  22545827.398                    22545835.531
 11  8 14  0 12  0.0000000  0  9G27G04G05G09G02G10G28G12G17
 121591730.866 7  94746865.26544  23138146.133                    23138156.344
 109284088.139 8  85156550.04546  20796049.484                    20796057.094
 122175018.871 7  95201428.738 7  23249118.836                    23249129.254
 119722825.677 7  93290562.11945  22782501.195                    22782511.254
 108985215.383 8  84923675.59246  20739177.094                    20739182.473
 111246330.823 8  86685589.25446  21169458.852                    21169467.059
 126727003.252 5  98748329.14242  24115357.820                    24115367.539
 117285785.014 7  91391575.315 7  22318743.391                    22318750.949
 118523206.583 7  92355809.514 7  22554214.820                    22554222.898
 11  8 14  0 12 30.0000000  0  9G27G04G05G09G02G10G28G12G17
 121644767.204 7  94788192.17744  23148238.430                    23148249.375
 109346655.111 8  85205303.51446  20807955.945                    20807963.512
 122071278.284 7  95120592.114 7  23229377.531                    23229388.074
 119783699.933 7  93337996.53745  22794085.234                    22794095.188
 108963307.854 8  84906604.80646  20735008.211                    20735013.496
 111205346.291 8  86653653.29446  21161659.727                    21161667.727
 126827091.360 6  98826319.78442  24134403.398                    24134413.785
 117203483.142 7  91327444.039 7  22303082.297                    22303089.672
 118567399.315 7  92390245.384 7  22562623.844                    22562632.406
 11  8 14  0 13  0.0000000  0  9G27G04G05G09G02G10G28G12G17
 121698050.204 7  94829711.28844  23158377.477                    23158388.430
 109409510.256 8  85254281.53346  20819916.750                    20819924.176
 121967643.043 7  95039837.595 7  23209656.195                    23209666.574
 119844958.474 7  93385730.40845  22805742.266                    22805752.137
 108941752.290 8  84889808.28246  20730906.133                    20730911.410
 111164910.972 8  86622145.29446  21153965.125                    21153973.043
 126927389.619 6  98904474.21343  24153490.406                    24153499.844
 117121448.395 7  91263520.904 7  22287471.547                    22287478.766
 118611709.186 7  92424772.520 7  22571056.102                    22571064.219
 11  8 14  0 13 30.0000000  0  9G27G04G05G09G02G10G28G12G17
 121751578.028 7  94871421.17844  23168563.781                    23168574.648
 109472652.084 8  85303482.94846  20831932.398                    20831940.277
 121864117.076 7  94959168.214 7  23189955.719                    23189965.855
 119906598.997 7  93433761.91244  22817472.656                    22817482.324
 108920548.752 8  84873286.06346  20726871.289                    20726876.730
 111125027.669 8  86591067.43046  21146375.672                    21146383.254
 127027896.547 6  98982791.21343  24172616.102                    24172626.074
 117039683.699 8  91199808.216 7  22271912.156                    22271919.512
 118656137.430 7  92459391.892 7  22579510.750                    22579518.465
 11  8 14  0 14  0.0000000  0  9G27G04G05G09G02G10G28G12G17
 121805347.220 7  94913319.14044  23178795.273                    23178806.965
 109536077.340 8  85352905.20846  20844001.453                    20844009.449
 121760702.411 7  94878585.562 7  23170276.188                    23170286.637
 119968617.266 7  93482087.77444  22829274.336                    22829283.906
 108899695.778 8  84857037.01746  20722903.172                    20722908.430
 111085697.734 8  86560420.75746  21138891.477                    21138899.500
 127128609.553 6  99061268.74143  24191781.602                    24191791.348
 116958191.358 7  91136307.743 7  22256404.133                    22256412.000
 118700684.252 7  92494103.680 7  22587988.172                    22587995.551
 11  8 14  0 14 30.0000000  0  9G27G04G05G09G02G10G28G12G17
 121859355.358 7  94955403.28844  23189073.664                    23189084.430
 109599783.944 8  85402546.70546  20856124.844                    20856132.531
 121657402.228 7  94798092.103 7  23150618.266                    23150629.156
 120031010.462 7  93530705.78844  22841146.844                    22841157.117
 108879193.011 8  84841060.85046  20719001.289                    20719006.629
 111046923.203 8  86530206.87146  21131512.664                    21131520.266
 127229526.828 6  99139905.47643  24210985.766                    24210995.523
 116876973.631 8  91073021.265 7  22240948.969                    22240956.805
 118745350.217 7  92528908.282 7  22596487.789                    22596495.246
 11  8 14  0 15  0.0000000  0  9G27G04G05G09G02G10G28G12G17
 121913599.819 6  94997671.58344  23199395.797                    23199406.539
 109663769.634 8  85452405.67546  20868300.461                    20868308.172
 121554219.459 7  94717690.154 7  23130983.492                    23130994.262
 120093775.234 7  93579613.33744  22853090.719                    22853100.859
 108859039.493 8  84825356.83746  20715165.734                    20715171.754
 111008706.040 8  86500427.29046  21124240.086                    21124248.223
 127330646.285 6  99218699.76143  24230228.188                    24230237.473
 116796033.353 7  91009950.977 7  22225546.617                    22225554.172
 118790135.591 7  92563805.951 7  22605010.258                    22605017.648
 11  8 14  0 15 30.0000000  0 10G27G04G05G09G02G10G28G12G30G17
 121968077.608 7  95040121.69944  23209762.922                    23209773.559
 109728031.421 8  85502479.77746  20880529.516                    20880537.332
 121451156.713 7  94637381.718 6  23111371.688                    23111381.609
 120156908.065 7  93628807.67544  22865104.758                    22865114.816
 108839234.240 8  84809924.19446  20711397.453                    20711402.703
 110971047.834 8  86471083.25446  21117074.172                    21117082.176
 127431965.518 6  99297649.71243  24249508.086                    24249518.570
 116715373.088 7  90947098.867 7  22210197.414                    22210204.711
 128047623.58416                  24366661.133
 118835040.818 7  92598796.989 7  22613555.516                    22613562.723
 11  8 14  0 16  0.0000000  0 10G27G04G05G09G02G10G28G12G30G17
 122022786.768 7  95082752.09344  23220174.078                    23220185.340
 109792567.680 8  85552767.75746  20892809.969                    20892817.543
 121348217.700 7  94557169.677 6  23091782.422                    23091792.328
 120220406.390 7  93678286.81044  22877187.727                    22877197.852
 108819777.337 8  84794763.00746  20707694.758                    20707700.422
 110933951.514 8  86442177.06146  21110014.898                    21110023.008
 127533483.345 6  99376754.37743  24268826.813                    24268837.203
 116634995.336 7  90884466.910 7  22194901.797                    22194909.629
 127941121.171 5  99694448.74152  24346393.367                    24346403.762
 118880067.125 7  92633882.391 7  22622123.586                    22622131.230
 11  8 14  0 16 30.0000000  0 10G27G04G05G09G02G10G28G12G30G17
 122077724.680 7  95125560.73944  23230628.266                    23230639.590
 109857376.151 8  85603267.85446  20905142.656                    20905150.563
 121245405.265 7  94477056.273 6  23072217.813                    23072227.633
 120284267.178 7  93728048.40144  22889340.570                    22889350.426
 108800668.376 8  84779872.93246  20704058.742                    20704063.945
 110897419.113 8  86413710.28846  21103063.328                    21103071.035
 127635197.794 6  99456012.30443  24288182.313                    24288192.730
 116554902.910 7  90822057.272 7  22179660.969                    22179668.383
 127834765.061 5  99611573.98342  24326155.695                    24326165.262
 118925214.931 7  92669062.457 7  22630714.750                    22630722.582
 11  8 14  0 17  0.0000000  0 10G27G04G05G09G02G10G28G12G30G17
 122132888.185 7  95168545.19544  23241125.313                    23241136.875
 109922453.756 8  85653977.65946  20917526.680                    20917534.645
 121142721.847 7  94397043.379 6  23052677.648                    23052687.059
 120348486.431 7  93778089.29444  22901561.000                    22901571.457
 108781905.663 8  84765252.66046  20700488.398                    20700493.512
 110861451.941 8  86385683.93746  21096218.852                    21096226.773
 127737106.251 6  99535421.37743  24307574.094                    24307585.266
 116475098.107 8  90759871.760 7  22164474.625                    22164481.992
 127728557.346 5  99528814.68042  24305943.734                    24305954.758
 118970484.590 7  92704337.473 7  22639330.016                    22639337.477
 11  8 14  0 17 30.0000000  0  9G27G04G05G09G02G10G12G30G17
 122188275.203 7  95211703.79144  23251665.664                    23251676.879
 109987799.162 8  85704896.14546  20929961.352                    20929968.859
 121040171.087 7  94317133.859 6  23033162.938                    23033172.336
 120413061.654 7  93828407.58044  22913849.086                    22913859.367
 108763489.235 8  84750902.23146  20696983.602                    20696988.816
 110826052.575 8  86358100.03946  21089482.461                    21089489.891
 116395584.421 8  90697913.077 7  22149343.773                    22149351.371
 127622501.443 6  99446173.75443  24285763.133                    24285772.672
 119015877.621 7  92739708.625 7  22647967.180                    22647975.359
 11  8 14  0 18  0.0000000  0  9G27G04G05G09G02G10G12G30G17
 122243882.900 7  95255034.36944  23262247.172                    23262258.434
 110053409.607 8  85756021.15546  20942446.773                    20942454.559
 120937755.953 7  94237330.003 6  23013673.508                    23013682.949
 120477989.338 7  93879000.48744  22926204.969                    22926214.902
 108745418.297 8  84736821.01046  20693544.828                    20693550.207
 110791222.633 8  86330959.84646  21082854.461                    21082862.469
 116316363.713 7  90636182.679 7  22134268.688                    22134275.980
 127516599.866 6  99363653.08043  24265610.000                    24265620.516
 119061394.293 7  92775176.127 7  22656628.641                    22656636.992
 11  8 14  0 18 30.0000000  0  9G27G04G05G09G02G10G12G30G17
 122299708.308 7  95298534.59044  23272869.938                    23272881.836
 110119282.367 8  85807350.56546  20954981.844                    20954989.684
 120835478.764 7  94157633.659 7  22994210.906                    22994220.316
 120543266.178 7  93929865.48044  22938626.844                    22938636.719
 108727691.804 8  84723008.19646  20690171.977                    20690177.156
 110756963.574 8  86304264.50546  21076335.242                    21076342.754
 116237438.655 7  90574682.663 7  22119249.516                    22119256.840
 127410854.943 6  99281254.45043  24245488.281                    24245498.219
 119107034.474 7  92810739.871 7  22665314.078                    22665321.965
 11  8 14  0 19  0.0000000  0  9G27G04G05G09G02G10G12G30G17
 122355748.818 7  95342202.42644  23283534.914                    23283545.961
 110185415.316 8  85858882.71746  20967566.445                    20967574.199
 120733342.748 7  94078047.316 7  22974775.164                    22974784.641
 120608888.702 7  93980999.84144  22951114.422                    22951124.297
 108710309.037 8  84709463.21446  20686863.547                    20686869.422
 110723277.273 8  86278015.47646  21069925.141                    21069933.207
 116158811.686 7  90513414.913 7  22104287.219                    22104294.777
 127305269.574 6  99198980.14643  24225396.336                    24225405.965
 119152799.039 7  92846400.550 7  22674022.672                    22674030.715
 11  8 14  0 19 30.0000000  0  9G27G04G05G09G02G10G12G30G17
 122412001.967 7  95386035.96244  23294239.219                    23294250.781
 110251806.355 8  85910615.99046  20980200.297                    20980208.031
 120631350.899 7  93998573.316 7  22955366.438                    22955376.188
 120674853.843 7  94032401.17344  22963666.938                    22963677.051
 108693269.519 8  84696185.70746  20683621.172                    20683626.855
 110690165.734 7  86252214.30146  21063624.086                    21063631.801
 116080485.531 7  90452381.568 7  22089382.477                    22089389.840
 127199846.653 6  99116832.45143  24205334.117                    24205344.012
 119198688.912 7  92882158.869 7  22682755.172                    22682763.277
 11  8 14  0 20  0.0000000  0  9G27G04G05G09G02G10G12G30G17
 122468465.136 7  95430033.14444  23304983.969                    23304995.273
 110318452.987 8  85962548.42646  20992882.594                    20992890.664
 120529506.930 7  93919214.546 7  22935986.109                    22935996.285
 120741158.384 7  94084066.96644  22976284.375                    22976294.117
 108676572.774 8  84683175.29146  20680443.797                    20680449.172
 110657630.736 8  86226862.38246  21057432.891                    21057441.000
 116002462.889 7  90391584.734 7  22074534.633                    22074542.672
 127094589.037 6  99034813.58944  24185304.383                    24185314.383
 119244704.463 7  92918015.114 7  22691511.586                    22691519.547
 11  8 14  0 20 30.0000000  0  9G27G04G05G09G02G10G12G30G17
 122525134.886 7  95474191.31344  23315767.844                    23315778.590
 110385352.572 8  86014677.95646  21005613.398                    21005621.238
 120427812.339 7  93839972.181 7  22916633.797                    22916643.789
 120807798.117 7  94135993.95744  22988965.438                    22988975.750
 108660216.972 8  84670430.54346  20677331.242                    20677337.098
 110625673.307 7  86201960.52846  21051351.438                    21051359.102
 115924745.966 7  90331026.099 7  22059745.945                    22059753.285
 126989498.764 6  98952925.16044  24165306.555                    24165316.293
 119290846.066 7  92953969.603 7  22700292.078                    22700299.938
 11  8 14  0 21  0.0000000  0  9G27G04G05G09G02G10G12G30G17
 122582008.813 7  95518508.58644  23326591.070                    23326601.816
 110452502.811 8  86067002.80346  21018391.969                    21018399.570
 120326270.833 7  93760849.100 7  22897311.398                    22897320.898
 120874770.340 7  94188180.02644  23001709.539                    23001719.957
 108644201.614 8  84657951.07446  20674284.016                    20674289.363
 110594295.654 8  86177510.44146  21045380.219                    21045387.844
 115847337.360 7  90270707.721 7  22045015.586                    22045023.039
 126884578.967 6  98871169.60844  24145340.875                    24145350.160
 119337114.419 7  92990022.856 7  22709096.883                    22709104.551
 11  8 14  0 21 30.0000000  0  9G27G04G05G09G02G10G12G30G17
 122639084.116 6  95562982.76544  23337452.219                    23337463.414
 110519901.284 8  86119521.08646  21031216.992                    21031225.207
 120224885.350 7  93681847.598 7  22878018.000                    22878028.145
 120942071.504 7  94240622.40844  23014517.172                    23014526.973
 108628525.804 8  84645736.18746  20671300.234                    20671305.926
 110563499.032 7  86153513.09446  21039519.914                    21039527.793
 115770239.561 7  90210631.530 7  22030344.406                    22030351.336
 126779831.978 6  98789548.74143  24125407.773                    24125417.559
 119383510.020 7  93026175.238 7  22717926.336                    22717933.348
 11  8 14  0 22  0.0000000  0  9G27G04G05G09G02G10G12G30G17
 122696358.152 7  95607611.80144  23348350.789                    23348362.367
 110587545.466 8  86172230.83046  21044089.734                    21044097.582
 120123658.456 7  93602969.654 7  22858754.953                    22858764.855
 121009698.433 7  94293318.63544  23027386.117                    23027396.039
 108613188.633 8  84633785.17446  20668382.438                    20668387.492
 110533285.183 8  86129969.87046  21033770.313                    21033778.406
 115693455.069 7  90150799.472 7  22015733.008                    22015740.164
 126675260.436 6  98708064.57843  24105508.898                    24105518.352
 119430033.626 7  93062427.369 7  22726778.688                    22726786.563
 11  8 14  0 22 30.0000000  0  9G27G04G05G09G02G10G12G30G17
 122753828.835 6  95652394.06144  23359287.125                    23359298.652
 110655434.080 8  86225131.03146  21057008.328                    21057016.289
 120022593.853 7  93524218.190 7  22839523.094                    22839532.457
 121077648.380 7  94346266.54944  23040316.727                    23040326.852
 108598190.310 8  84622098.19246  20665527.820                    20665533.258
 110503656.565 8  86106882.67246  21028132.070                    21028139.852
 115616987.073 7  90091214.037 7  22001181.539                    22001188.617
 126570867.924 6  98626719.91643  24085643.023                    24085652.898
 119476686.054 7  93098779.859 7  22735656.758                    22735664.398
 11  8 14  0 23  0.0000000  0  9G27G04G05G09G02G10G12G30G17
 122811493.199 6  95697327.23944  23370260.008                    23370271.852
 110723564.097 8  86278219.35246  21069972.945                    21069980.637
 119921694.423 7  93445595.404 7  22820322.461                    22820332.207
 121145917.777 7  94399463.39744  23053307.563                    23053317.930
 108583529.703 8  84610674.36546  20662738.500                    20662743.410
 110474614.260 8  86084252.33746  21022605.414                    21022613.180
 115540838.136 8  90031877.221 7  21986690.578                    21986697.473
 126466656.948 6  98545516.70843  24065811.602                    24065821.980
 119523467.665 7  93135233.043 7  22744558.633                    22744566.570
 11  8 14  0 23 30.0000000  0  9G27G04G05G09G02G10G12G30G17
 122869348.186 6  95742408.96144  23381270.055                    23381281.645
 110791933.103 8  86331493.88946  21082983.391                    21082991.082
 119820962.713 7  93367103.316 7  22801153.734                    22801163.043
 121214502.780 7  94452906.17244  23066359.320                    23066369.488
 108569205.114 8  84599512.37146  20660012.133                    20660017.824
 110446159.891 8  86062080.13446  21017190.719                    21017198.520
 115465010.464 7  89972790.738 7  21972260.852                    21972268.102
 126362629.647 6  98464456.61943  24046016.438                    24046026.801
 119570378.872 7  93171787.195 7  22753486.047                    22753493.945
 11  8 14  0 24  0.0000000  0  9G27G04G05G09G02G10G12G30G17
 122927391.395 6  95787637.34144  23392315.633                    23392326.316
 110860539.245 8  86384953.20746  21096038.289                    21096046.016
 119720401.893 7  93288744.389 7  22782017.789                    22782026.992
 121283400.329 7  94506592.50544  23079470.188                    23079480.531
 108555216.309 8  84588612.01946  20657350.336                    20657355.480
 110418295.102 8  86040367.35846  21011888.266                    21011896.137
 115389506.493 8  89913956.497 7  21957893.039                    21957900.289
 126258789.274 6  98383542.16943  24026257.102                    24026265.848
 119617420.685 7  93208443.129 7  22762436.977                    22762445.316
 11  8 14  0 24 30.0000000  0  9G27G04G05G09G02G10G12G30G17
 122985620.434 6  95833010.50144  23403396.195                    23403407.234
 110929380.265 8  86438595.54346  21109138.477                    21109146.570
 119620015.537 7  93210521.401 7  22762914.773                    22762923.535
 121352607.433 7  94560520.04244  23092639.531                    23092649.934
 108541563.113 8  84577973.18346  20654752.609                    20654757.863
 110391021.904 8  86019115.54446  21006698.734                    21006706.359
 115314329.353 7  89855376.918 7  21943587.227                    21943595.016
 126155138.890 6  98302775.75543  24006532.625                    24006541.922
 119664593.954 7  93245201.493 7  22771413.758                    22771422.488
 11  8 14  0 25  0.0000000  0  9G27G04G05G09G02G10G12G30G17
 123044032.031 6  95878525.92644  23414511.336                    23414522.793
 110998453.632 8  86492418.94246  21122282.711                    21122290.551
 119519806.039 7  93132436.215 7  22743845.164                    22743854.563
 121422120.227 7  94614685.78344  23105867.445                    23105878.059
 108528244.045 8  84567594.70046  20652217.703                    20652223.172
 110364341.057 8  85998325.32146  21001621.031                    21001629.047
 115239481.352 8  89797053.831 7  21929343.789                    21929351.695
 126051680.879 6  98222159.23843  23986844.578                    23986854.043
 119711898.957 7  93282062.502 7  22780416.336                    22780423.949
 11  8 14  0 25 30.0000000  0  9G27G04G05G09G02G10G12G30G17
 123102623.106 6  95924181.16844  23425661.000                    23425672.344
 111067756.468 8  86546421.13746  21135470.859                    21135478.773
 119419776.246 7  93054491.065 7  22724809.844                    22724819.137
 121491934.961 7  94669086.82044  23119152.578                    23119163.191
 108515257.430 8  84557475.26946  20649746.352                    20649751.754
 110338253.559 8  85977997.42746  20996656.914                    20996664.516
 115164964.483 7  89738988.772 7  21915164.117                    21915171.488
 125948417.415 6  98141694.24143  23967193.734                    23967203.371
 119759335.838 7  93319026.278 7  22789442.859                    22789450.961
 11  8 14  0 26  0.0000000  0  9G27G04G05G09G02G10G12G30G17
 123161391.707 6  95969974.76843  23436844.016                    23436855.840
 111137287.356 8  86600601.05346  21148701.766                    21148709.746
 119319929.579 7  92976688.608 7  22705809.641                    22705819.234
 121562048.985 7  94723721.04544  23132495.453                    23132505.793
 108502603.457 8  84547615.04846  20647338.336                    20647343.449
 110312762.009 8  85958133.90846  20991805.609                    20991813.699
 115090782.310 7  89681184.509 7  21901048.086                    21901055.266
 125845352.085 6  98061383.67343  23947581.234                    23947590.426
 119806905.738 7  93356093.692 7  22798495.422                    22798503.918
 11  8 14  0 26 30.0000000  0  9G27G04G05G09G02G10G12G30G17
 123220335.494 7  96015904.85544  23448061.219                    23448072.781
 111207044.251 8  86654957.06846  21161976.500                    21161984.074
 119220269.029 7  92899031.187 7  22686845.023                    22686854.238
 121632459.347 7  94778586.20744  23145894.164                    23145904.508
 108490281.648 8  84538013.64446  20644993.602                    20644999.262
 110287868.233 8  85938736.19246  20987069.164                    20987076.422
 115016937.244 8  89623642.935 7  21886995.523                    21887002.926
 125742488.067 6  97981229.95643  23928006.617                    23928016.066
 119854609.566 7  93393265.464 7  22807572.531                    22807580.777
 11  8 14  0 27  0.0000000  0  9G27G04G05G09G02G10G12G30G17
 123279451.371 7  96061969.03444  23459310.602                    23459322.277
 111277024.525 8  86709487.15746  21175292.758                    21175300.793
 119120797.521 7  92821521.064 7  22667916.203                    22667924.594
 121703162.546 7  94833679.54644  23159348.586                    23159358.824
 108478290.976 8  84528670.27246  20642711.961                    20642717.230
 110263573.043 8  85919804.90746  20982445.648                    20982452.965
 114943431.736 8  89566365.929 7  21873007.898                    21873014.793
 125639827.760 6  97901234.97943  23908471.070                    23908480.781
 119902447.749 7  93430541.931 7  22816676.781                    22816684.406
 11  8 14  0 27 30.0000000  0  9G27G04G05G09G02G10G12G30G17
 123338735.742 7  96108164.48344  23470593.031                    23470603.488
 111347225.439 8  86764189.16046  21188652.039                    21188659.621
 119021517.757 7  92744160.359 7  22649023.063                    22649032.723
 121774154.473 7  94888997.85644  23172857.781                    23172868.410
 108466629.537 8  84519583.44146  20640492.633                    20640497.938
 110239877.280 8  85901340.70346  20977936.484                    20977944.082
 114870268.074 8  89509355.313 7  21859085.266                    21859092.789
 125537373.450 7  97821400.49643  23888974.461                    23888983.902
 119950420.196 7  93467922.994 7  22825805.055                    22825813.910
 11  8 14  0 28  0.0000000  0  9G27G04G05G09G02G10G12G30G17
 123398186.300 7  96154489.45444  23481905.375                    23481916.258
 111417645.120 8  86819061.64046  21202052.391                    21202060.074
 118922432.822 7  92666951.462 7  22630167.617                    22630177.527
 121845432.181 7  94944538.88144  23186421.328                    23186432.094
 108455296.799 8  84510752.72946  20638336.281                    20638341.574
 110216782.515 8  85883344.81846  20973541.539                    20973549.285
 114797448.581 7  89452612.872 7  21845228.266                    21845235.301
 125435128.049 6  97741728.82043  23869518.094                    23869527.676
 119998527.894 7  93505409.463 7  22834959.625                    22834968.281
 11  8 14  0 28 30.0000000  0  9G27G04G05G09G02G10G12G30G17
 123457800.203 7  96200941.68744  23493250.133                    23493260.945
 111488281.049 8  86874102.63546  21215493.953                    21215501.699
 118823545.941 7  92589896.907 7  22611350.461                    22611359.711
 121916992.079 7  95000299.78644  23200038.875                    23200049.660
 108444291.940 8  84502177.51246  20636241.953                    20636247.363
 110194290.221 8  85865818.38546  20969261.117                    20969269.242
 114724975.734 7  89396140.544 7  21831436.938                    21831444.324
 125333094.463 7  97662222.17443  23850101.539                    23850111.035
 120046771.790 7  93543002.072 7  22844140.047                    22844148.711
 11  8 14  0 29  0.0000000  0  9G27G04G05G09G02G10G12G30G17
 123517575.172 7  96247519.41244  23504625.813                    23504636.051
 111559131.328 8  86929310.64546  21228976.617                    21228984.137
 118724860.143 7  92512999.018 7  22592571.234                    22592580.125
 121988830.949 7  95056278.06144  23213709.719                    23213720.273
 108433614.555 8  84493857.47146  20634210.211                    20634215.141
 110172401.751 8  85848762.46046  20965096.023                    20965103.711
 114652852.902 8  89339940.954 7  21817712.781                    21817719.563
 125231275.950 6  97582883.15343  23830726.313                    23830735.707
 120095152.342 7  93580701.150 7  22853346.984                    22853355.262
 11  8 14  0 29 30.0000000  0  9G27G04G05G09G02G10G12G30G17
 123577508.192 7  96294220.31244  23516029.992                    23516041.328
 111630193.820 8  86984684.01446  21242499.273                    21242506.699
 118626377.970 7  92436259.805 7  22573830.391                    22573839.566
 122060945.064 7  95112470.81144  23227432.516                    23227442.867
 108423263.242 8  84485791.50546  20632240.227                    20632245.727
 110151118.444 8  85832178.09146  20961046.461                    20961053.523
 114581082.417 8  89284015.925 7  21804055.188                    21804062.449
 125129675.016 6  97503713.66543  23811392.375                    23811401.277
 120143670.091 7  93618507.144 7  22862579.227                    22862587.738
 11  8 14  0 30  0.0000000  0  9G27G04G05G09G02G10G12G30G17
 123637596.954 7  96341042.53544  23527464.578                    23527475.500
 111701466.162 8  87040220.90746  21256061.750                    21256069.258
 118528103.017 7  92359682.053 7  22555129.078                    22555138.410
 122133331.602 7  95168875.82944  23241207.367                    23241217.176
 108413237.442 8  84477979.19146  20630332.570                    20630338.031
 110130441.747 8  85816066.39446  20957111.273                    20957118.840
 114509666.611 8  89228367.263 7  21790465.000                    21790472.313
 125028294.748 6  97424716.10543  23792099.953                    23792109.551
 120192325.833 7  93656420.645 7  22871838.688                    22871846.703
 11  8 14  0 30 30.0000000  0  9G27G04G05G09G02G10G12G30G17
 123697838.483 7  96387983.81643  23538927.797                    23538939.605
 111772946.181 8  87095919.61846  21269663.742                    21269671.914
 118430037.717 7  92283267.674 7  22536467.789                    22536477.270
 122205987.149 7  95225490.47644  23255033.422                    23255043.590
 108403536.278 8  84470419.84646  20628486.297                    20628492.090
 110110372.508 8  85800428.04546  20953292.633                    20953300.281
 114438608.074 7  89172996.989 7  21776943.008                    21776950.109
 124927137.617 6  97345892.44543  23772850.695                    23772859.980
 120241120.016 7  93694442.023 7  22881123.813                    22881131.883
 11  8 14  0 31  0.0000000  0 10G27G04G05G09G02G10G25G12G30G17
 123758229.566 7  96435041.61243  23550419.789                    23550431.746
 111844631.095 8  87151777.99446  21283305.055                    21283312.738
 118332184.910 7  92207018.861 7  22517846.617                    22517856.047
 122278907.852 7  95282311.74444  23268909.406                    23268919.871
 108394157.937 8  84463112.05446  20626701.875                    20626707.012
 110090911.549 8  85785263.69446  20949589.344                    20949596.664
 129591930.96416 100980819.41815  24660534.742                    24660545.383
 114367908.808 8  89117906.673 7  21763489.141                    21763496.754
 124826206.220 6  97267244.66643  23753644.000                    23753653.277
 120290052.980 7  93732571.574 7  22890436.031                    22890443.688
 11  8 14  0 31 30.0000000  0 10G27G04G05G09G02G10G25G12G30G17
 123818767.171 7  96482213.59944  23561939.766                    23561951.910
 111916518.330 8  87207794.01946  21296985.250                    21296992.637
 118234547.414 7  92130937.815 7  22499267.250                    22499275.918
 122352089.947 7  95339336.67844  23282835.664                    23282846.195
 108385101.401 8  84456055.02246  20624978.453                    20624983.934
 110072059.719 8  85770573.97846  20946001.648                    20946008.949
 129488633.474 5 100900328.029 6  24640877.305                    24640888.996
 114297571.149 8  89063098.128 7  21750104.570                    21750111.965
 124725503.024 6  97188774.71044  23734480.344                    23734490.359
 120339124.835 7  93770809.321 7  22899773.508                    22899782.059
 11  8 14  0 32  0.0000000  0 10G27G04G05G09G02G10G25G12G30G17
 123879448.874 6  96529497.84843  23573488.125                    23573499.602
 111988606.164 8  87263966.35146  21310702.703                    21310710.953
 118137128.620 7  92055027.189 7  22480728.977                    22480738.070
 122425530.268 7  95396562.83444  23296811.406                    23296821.594
 108376366.351 8  84449248.49546  20623316.156                    20623321.355
 110053818.778 8  85756360.26746  20942530.555                    20942538.254
 129385440.398 6 100819918.002 6  24621240.938                    24621252.754
 114227597.977 8  89008573.602 7  21736789.000                    21736796.215
 124625031.148 6  97110484.99743  23715361.203                    23715370.832
 120388336.434 7  93809155.962 7  22909138.461                    22909146.711
 11  8 14  0 32 30.0000000  0 10G27G04G05G09G02G10G25G12G30G17
 123940272.331 6  96576892.56544  23585062.102                    23585074.086
 112060892.837 8  87320293.62546  21324458.203                    21324466.449
 118039931.573 7  91979289.342 7  22462232.680                    22462241.656
 122499225.644 6  95453987.72644  23310834.906                    23310845.168
 108367951.635 8  84442691.58246  20621715.094                    20621720.289
 110036189.810 8  85742623.42946  20939175.789                    20939183.746
 129282354.374 6 100739591.395 6  24601623.688                    24601635.883
 114157992.351 7  88954335.484 7  21723543.188                    21723550.703
 124524793.763 6  97032377.99143  23696286.867                    23696296.648
 120437688.978 7  93847612.445 6  22918530.172                    22918537.559
 11  8 14  0 33  0.0000000  0 10G27G04G05G09G02G10G25G12G30G17
 124001235.052 6  96624395.81244  23596662.836                    23596675.266
 112133376.185 8  87376774.13346  21338251.289                    21338259.559
 117942959.456 7  91903726.761 7  22443779.336                    22443788.184
 122573172.919 7  95511608.89744  23324906.469                    23324917.305
 108359856.878 8  84436383.99446  20620174.625                    20620179.941
 110019174.183 8  85729364.51446  20935938.078                    20935945.430
 129179378.084 6 100659350.270 6  24582027.992                    24582040.602
 114088757.074 7  88900385.950 7  21710368.477                    21710375.594
 124424793.973 6  96954456.13243  23677257.188                    23677266.699
 120487183.294 7  93886179.384 7  22927948.555                    22927956.371
 11  8 14  0 33 30.0000000  0 10G27G04G05G09G02G10G25G12G30G17
 124062334.203 6  96672005.36144  23608289.477                    23608301.742
 112206053.882 8  87433406.08645  21352081.797                    21352089.375
 117846215.415 7  91828341.904 7  22425369.625                    22425378.344
 122647368.803 7  95569423.77544  23339025.570                    23339036.250
 108352081.060 8  84430324.93246  20618694.703                    20618700.016
 110002773.097 8  85716584.46046  20932816.688                    20932824.629
 129076514.101 6 100579196.665 6  24562453.820                    24562465.992
 114019894.135 7  88846726.561 7  21697264.109                    21697271.059
 124325034.429 6  96876721.50043  23658273.383                    23658283.441
 120536819.718 7  93924857.079 6  22937394.227                    22937402.059
 11  8 14  0 34  0.0000000  0 10G27G04G05G09G02G10G25G12G30G17
 124123566.832 6  96719718.92344  23619942.984                    23619954.668
 112278923.746 8  87490187.78745  21365948.266                    21365956.176
 117749702.005 7  91753136.753 7  22407003.406                    22407012.195
 122721809.613 7  95627429.50644  23353191.047                    23353202.027
 108344622.736 8  84424513.27446  20617275.773                    20617280.637
 109986987.415 8  85704283.94746  20929813.234                    20929820.680
 128973764.558 6 100499132.204 6  24542900.992                    24542913.555
 113951406.066 8  88793359.285 7  21684231.508                    21684238.777
 124225517.943 6  96799176.23144  23639336.203                    23639345.828
 120586598.804 7  93963645.946 6  22946866.891                    22946875.238
 11  8 14  0 34 30.0000000  0 10G27G04G05G09G02G10G25G12G30G17
 124184929.966 7  96767534.17344  23631619.656                    23631631.688
 112351983.432 8  87547117.37045  21379850.836                    21379858.633
 117653422.328 7  91678113.731 7  22388682.078                    22388691.031
 122796492.047 7  95685623.51244  23367402.945                    23367413.852
 108337480.984 8  84418948.29946  20615916.633                    20615921.723
 109971817.909 8  85692463.56746  20926926.453                    20926933.984
 128871131.972 6 100419158.860 6  24523370.492                    24523383.234
 113883295.170 8  88740285.924 7  21671270.320                    21671277.531
 124126247.343 6  96721822.58044  23620445.531                    23620455.164
 120636521.282 7  94002546.566 6  22956366.539                    22956374.680
 11  8 14  0 35  0.0000000  0 10G27G04G05G09G02G10G25G12G30G17
 124246420.986 7  96815449.06944  23643321.336                    23643333.348
 112425230.939 7  87604193.33445  21393789.086                    21393797.242
 117557379.239 7  91603275.067 7  22370405.406                    22370414.641
 122871412.740 7  95744003.15744  23381659.977                    23381670.789
 108330654.973 8  84413629.35346  20614617.484                    20614622.926
 109957265.468 8  85681124.02746  20924157.117                    20924164.813
 128768618.847 6 100339278.595 6  24503863.445                    24503875.320
 113815563.965 7  88687508.418 7  21658381.539                    21658388.652
 124027225.478 6  96644662.75043  23601602.500                    23601611.715
 120686587.704 7  94041559.332 6  22965894.625                    22965901.848
 11  8 14  0 35 30.0000000  0 10G27G04G05G09G02G10G25G12G30G17
 124308037.120 6  96863461.46944  23655046.867                    23655058.723
 112498664.095 8  87661413.93745  21407763.227                    21407771.414
 117461575.965 7  91528623.275 7  22352174.875                    22352183.629
 122946568.070 7  95802565.65144  23395961.773                    23395972.656
 108324143.818 8  84408555.75246  20613378.586                    20613384.332
 109943331.517 8  85670266.42846  20921505.430                    20921513.000
 128666227.822 7 100259493.465 7  24484378.672                    24484391.070
 113748215.284 8  88635028.989 7  21645565.422                    21645572.605
 123928455.090 6  96567698.89144  23582807.078                    23582816.746
 120736798.474 7  94080684.598 6  22975448.594                    22975456.988
 11  8 14  0 36  0.0000000  0 10G27G04G05G09G02G10G25G12G30G17
 124369775.776 7  96911569.34844  23666795.008                    23666807.359
 112572280.793 8  87718777.55645  21421772.438                    21421780.234
 117366015.681 7  91454160.826 7  22333989.992                    22333998.984
 123021954.880 7  95861308.49344  23410307.734                    23410317.941
 108317946.723 8  84403726.87646  20612199.211                    20612204.746
 109930016.698 8  85659891.26446  20918971.813                    20918979.719
 128563961.309 7 100179805.342 6  24464918.070                    24464930.578
 113681251.459 8  88582849.440 7  21632822.586                    21632829.820
 123829939.166 6  96490933.30144  23564060.820                    23564069.539
 120787154.352 7  94119922.918 6  22985031.328                    22985039.039
 11  8 14  0 36 30.0000000  0 10G27G04G05G09G02G10G25G12G30G17
 124431634.040 6  96959770.41943  23678566.172                    23678578.625
 112646078.769 8  87776282.43045  21435815.609                    21435823.383
 117270700.938 7  91379889.708 7  22315852.281                    22315861.375
 123097569.811 7  95920229.09544  23424696.797                    23424706.859
 108312062.260 8  84399141.60146  20611079.625                    20611084.559
 109917321.655 8  85649999.04646  20916555.797                    20916563.934
 128461821.770 7 100100216.137 7  24445482.117                    24445493.609
 113614674.973 8  88530971.722 7  21620153.320                    21620160.477
 123731680.442 6  96414368.15443  23545361.766                    23545371.176
 120837655.780 7  94159274.665 7  22994641.086                    22994649.098
 11  8 14  0 37  0.0000000  0 10G27G04G05G09G02G10G25G12G30G17
 124493609.360 6  97008062.72443  23690359.453                    23690371.973
 112720056.041 8  87833927.02445  21449892.742                    21449900.926
 117175634.946 7  91305812.408 7  22297761.813                    22297770.465
 123173409.224 7  95979324.62044  23439128.797                    23439139.078
 108306489.610 8  84394799.30746  20610019.070                    20610024.094
 109905247.414 8  85640590.56446  20914258.133                    20914266.004
 128359811.784 7 100020727.860 6  24426069.922                    24426081.820
 113548488.123 8  88479397.615 7  21607558.453                    21607565.703
 123633681.900 6  96338005.74744  23526713.438                    23526722.449
 120888303.452 7  94198740.364 6  23004279.203                    23004287.066
 11  8 14  0 37 30.0000000  0 10G27G04G05G09G02G10G25G12G30G17
 124555698.774 6  97056443.91044  23702175.539                    23702187.715
 112794210.372 8  87891709.56945  21464004.211                    21464011.984
 117080820.211 7  91231930.921 7  22279719.422                    22279727.535
 123249469.839 7  96038592.48944  23453602.273                    23453613.117
 108301227.646 8  84390699.09446  20609017.789                    20609022.852
 109893794.675 8  85631666.36746  20912078.734                    20912086.594
 128257933.866 7  99941342.516 7  24406682.789                    24406695.035
 113482693.564 8  88428129.182 7  21595037.984                    21595044.879
 123535946.337 6  96261848.28044  23508115.383                    23508124.168
 120939098.029 7  94238320.521 6  23013945.227                    23013952.914
 11  8 14  0 38  0.0000000  0 10G27G04G05G09G02G10G25G12G30G17
 124617899.510 7  97104911.88744  23714012.063                    23714023.918
 112868539.624 8  87949628.42245  21478148.586                    21478156.215
 116986260.086 7  91158247.808 7  22261724.781                    22261733.078
 123325748.122 6  96098029.99244  23468117.938                    23468128.797
 108296275.212 8  84386840.08346  20608075.195                    20608080.449
 109882964.102 8  85623226.97846  20910017.797                    20910025.648
 128156190.404 7  99862061.918 6  24387321.344                    24387333.574
 113417293.879 8  88377168.443 7  21582592.883                    21582600.051
 123438476.434 6  96185897.80344  23489566.789                    23489576.113
 120990039.935 7  94278015.511 6  23023638.719                    23023646.930
 11  8 14  0 38 30.0000000  0 10G27G04G05G09G02G10G25G12G30G17
 124680208.613 6  97153464.30843  23725868.992                    23725881.141
 112943041.582 8  88007681.85445  21492325.508                    21492333.605
 116891957.538 7  91084765.421 7  22243779.273                    22243788.098
 123402240.476 7  96157634.29144  23482673.797                    23482684.820
 108291631.308 8  84383221.48146  20607191.438                    20607196.688
 109872756.941 8  85615273.35846  20908075.734                    20908083.242
 128054583.879 6  99782888.029 6  24367986.305                    24367998.488
 113352291.077 8  88326516.953 7  21570223.422                    21570230.734
 123341274.995 6  96110156.54443  23471069.648                    23471079.023
 121041129.837 7  94317825.794 6  23033361.211                    23033369.402
 11  8 14  0 39  0.0000000  0 10G27G04G05G09G02G10G25G12G30G17
 124742623.585 7  97202099.20344  23737746.000                    23737758.711
 113017713.973 8  88065868.08845  21506535.555                    21506543.594
 116797914.924 7  91011485.567 7  22225883.602                    22225892.012
 123478943.589 7  96217402.81344  23497270.000                    23497280.816
 108287294.868 8  84379842.45646  20606366.258                    20606371.477
 109863173.359 8  85607805.64946  20906251.891                    20906259.414
 127953117.018 6  99703822.985 6  24348678.039                    24348689.938
 113287687.656 8  88276176.662 7  21557929.406                    21557936.414
 123244344.814 6  96034626.63344  23452624.570                    23452634.031
 121092368.351 7  94357751.893 6  23043111.570                    23043119.387
 11  8 14  0 39 30.0000000  0 10G27G04G05G09G02G10G25G12G30G17
 124805141.818 6  97250814.58643  23749643.508                    23749655.410
 113092554.932 8  88124185.67945  21520777.414                    21520784.910
 116704135.769 7  90938411.004 7  22208038.102                    22208046.617
 123555854.104 7  96277332.95844  23511906.164                    23511916.488
 108283265.237 8  84376702.50046  20605599.445                    20605604.742
 109854214.485 8  85600824.73246  20904546.961                    20904554.234
 127851792.555 6  99624868.884 6  24329396.633                    24329408.551
 113223486.195 8  88226149.574 7  21545712.602                    21545719.473
 123147689.087 6  95959310.60344  23434231.500                    23434240.914
 121143756.075 7  94397794.259 6  23052890.016                    23052898.078
 11  8 14  0 40  0.0000000  0 10G27G04G05G09G02G10G25G12G30G17
 124867760.476 6  97299608.20844  23761559.289                    23761571.605
 113167562.551 8  88182633.12345  21535051.219                    21535058.957
 116610623.094 7  90865544.087 7  22190243.391                    22190251.621
 123632968.975 7  96337422.33244  23526580.492                    23526591.172
 108279541.508 8  84373800.91646  20604890.594                    20604896.230
 109845881.011 8  85594331.12646  20902961.328                    20902968.836
 127750613.043 6  99546027.757 6  24310142.586                    24310154.504
 113159689.239 8  88176437.679 7  21533572.102                    21533579.598
 123051310.660 6  95884210.63644  23415891.266                    23415900.242
 121195293.426 7  94437953.207 6  23062697.680                    23062704.973
 11  8 14  0 40 30.0000000  0 10G27G04G05G09G02G10G25G12G30G17
 124930476.194 6  97348477.50143  23773493.586                    23773506.223
 113242734.311 8  88241208.49245  21549355.953                    21549363.633
 116517379.618 7  90792886.944 7  22172499.117                    22172507.637
 123710284.367 7  96397667.96844  23541293.047                    23541304.008
 108276121.769 8  84371136.19946  20604239.953                    20604245.133
 109838173.190 8  85588325.04146  20901494.500                    20901502.020
 127649580.610 6  99467301.229 6  24290916.695                    24290928.867
 113096298.961 8  88127042.672 7  21521509.836                    21521516.750
 122955211.990 6  95809328.64144  23397604.375                    23397613.598
 121246980.826 7  94478229.076 6  23072533.523                    23072541.168
 11  8 14  0 41  0.0000000  0 10G27G04G05G09G02G10G25G12G30G17
 124993286.522 7  97397420.50443  23785446.477                    23785458.500
 113318068.341 8  88299910.28645  21563690.961                    21563698.895
 116424408.213 7  90720441.803 7  22154807.438                    22154816.215
 123787796.865 7  96458067.20044  23556043.570                    23556054.063
 108273005.310 8  84368707.80246  20603646.672                    20603652.242
 109831091.863 8  85582807.14246  20900146.945                    20900154.684
 127548698.076 7  99388691.528 6  24271719.773                    24271730.805
 113033317.792 7  88077966.447 7  21509524.578                    21509531.766
 122859396.111 6  95734667.02044  23379371.172                    23379380.078
 121298818.975 7  94518622.388 6  23082397.828                    23082406.188
 11  8 14  0 41 30.0000000  0 10G27G04G05G09G02G10G25G12G30G17
 125056188.607 6  97446435.00143  23797415.586                    23797428.188
 113393562.441 8  88358736.83145  21578057.070                    21578065.219
 116331711.829 7  90648210.958 7  22137167.758                    22137176.402
 123865503.069 7  96518617.36244  23570830.125                    23570841.477
 108270191.070 8  84366514.90446  20603111.391                    20603116.668
 109824637.162 7  85577777.51746  20898918.828                    20898926.242
 127447967.778 7  99310200.430 6  24252551.484                    24252562.441
 112970747.995 7  88029210.756 7  21497617.734                    21497624.898
 122763865.561 6  95660227.72444  23361192.047                    23361200.996
 121350808.361 7  94559133.556 7  23092291.078                    23092299.273
 11  8 14  0 42  0.0000000  0 10G27G04G05G09G02G10G25G12G30G17
 125119179.911 6  97495519.02643  23809403.008                    23809415.078
 113469214.624 8  88417686.54745  21592453.680                    21592461.262
 116239293.422 7  90576196.718 7  22119580.867                    22119589.711
 123943399.749 6  96579315.96344  23585653.367                    23585664.285
 108267678.292 8  84364556.90546  20602633.164                    20602638.281
 109818810.302 8  85573237.12446  20897809.633                    20897816.922
 127347392.597 6  99231830.224 6  24233412.211                    24233423.691
 112908592.088 8  87980777.573 7  21485789.828                    21485797.184
 122668623.688 6  95586013.36344  23343068.219                    23343077.445
 121402949.805 7  94599763.195 6  23102213.586                    23102221.664
 11  8 14  0 42 30.0000000  0 10G27G04G05G09G02G10G25G12G30G17
 125182257.488 6  97544670.27143  23821406.445                    23821418.805
 113545022.763 8  88476757.79345  21606879.617                    21606887.457
 116147155.998 7  90504401.420 7  22102047.766                    22102056.063
 124021483.030 6  96640159.95444  23600512.695                    23600523.199
 108265465.364 7  84362832.55346  20602212.164                    20602217.418
 109813611.311 7  85569185.97946  20896820.422                    20896827.828
 127246974.853 7  99153582.713 6  24214303.164                    24214315.117
 112846852.686 7  87932668.944 7  21474041.305                    21474048.234
 122573672.966 6  95512025.86344  23324999.625                    23325008.918
 121455243.748 7  94640511.667 7  23112164.609                    23112172.828
 11  8 14  0 43  0.0000000  0 10G27G04G05G09G02G10G25G12G30G17
 125245419.140 6  97593886.98643  23833426.023                    23833438.109
 113620985.055 8  88535949.17545  21621334.406                    21621342.109
 116055302.196 7  90432827.129 7  22084568.766                    22084576.887
 124099749.879 7  96701146.99144  23615406.273                    23615417.199
 108263551.733 8  84361341.42146  20601848.055                    20601853.188
 109809041.003 8  85565624.71846  20895950.719                    20895958.273
 127146717.378 7  99075460.091 6  24195225.602                    24195236.313
 112785531.962 8  87884886.547 7  21462372.609                    21462379.262
 122479016.432 7  95438267.60744  23306987.188                    23306996.426
 121507690.703 7  94681379.352 7  23122145.086                    23122153.309
 11  8 14  0 43 30.0000000  0 10G27G04G05G09G02G10G25G12G30G17
 125308661.655 6  97643166.74043  23845460.156                    23845472.430
 113697099.197 8  88595258.88145  21635818.586                    21635826.727
 115963735.123 7  90361476.270 7  22067143.305                    22067151.824
 124178196.741 6  96762274.30844  23630334.531                    23630345.223
 108261935.978 7  84360082.40146  20601541.141                    20601545.930
 109805099.635 7  85562553.54046  20895200.500                    20895208.109
 127046622.544 7  98997464.208 6  24176178.063                    24176189.430
 112724632.019 7  87837432.033 7  21450783.891                    21450790.730
 122384656.904 6  95364740.77243  23289030.211                    23289040.094
 121560291.280 7  94722366.750 7  23132154.641                    23132163.121
 11  8 14  0 44  0.0000000  0 10G27G04G05G09G02G10G25G12G30G17
 125371982.329 6  97692507.39943  23857510.328                    23857522.621
 113773363.377 8  88654685.49745  21650331.367                    21650339.531
 115872457.713 7  90290351.117 7  22049774.383                    22049782.680
 124256820.141 6  96823539.16843  23645295.883                    23645306.648
 108260617.118 8  84359054.72046  20601289.430                    20601294.758
 109801787.762 8  85559972.88246  20894570.203                    20894577.656
 126946693.089 7  98919597.211 6  24157161.500                    24157173.102
 112664155.599 7  87790307.541 7  21439275.297                    21439282.352
 122290597.268 6  95291447.62044  23271132.141                    23271140.535
 121613046.085 7  94763474.305 7  23142193.547                    23142202.488
 11  8 14  0 44 30.0000000  0 10G27G04G05G09G02G10G25G12G30G17
 125435378.351 6  97741906.75843  23869574.359                    23869586.621
 113849775.354 8  88714227.29945  21664871.695                    21664880.129
 115781472.753 7  90219453.840 7  22032460.313                    22032468.715
 124335617.002 7  96884939.20644  23660289.969                    23660301.660
 108259594.197 8  84358257.64046  20601094.492                    20601100.199
 109799106.012 7  85557883.22546  20894060.313                    20894067.879
 126846931.607 7  98841861.096 6  24138177.688                    24138189.020
 112604104.888 7  87743514.776 7  21427848.188                    21427855.477
 122196840.377 6  95218390.37544  23253290.484                    23253299.270
 121665955.572 7  94804702.426 7  23152261.688                    23152270.293
 11  8 14  0 45  0.0000000  0 10G27G04G05G09G02G10G25G12G30G17
 125498846.663 6  97791362.42743  23881652.242                    23881664.094
 113926332.897 8  88773882.51245  21679440.461                    21679448.242
 115690783.097 7  90148786.661 7  22015202.813                    22015211.277
 124414583.362 7  96946471.34144  23675317.234                    23675328.508
 108258865.440 8  84357689.77946  20600956.398                    20600961.430
 109797054.260 7  85556284.47346  20893669.461                    20893677.004
 126747340.248 7  98764257.578 6  24119225.977                    24119237.664
 112544481.916 7  87697055.319 7  21416502.313                    21416509.340
 122103388.682 6  95145570.96844  23235507.359                    23235516.020
 121719020.165 7  94846051.398 7  23162360.094                    23162368.402
 11  8 14  0 45 30.0000000  0 10G27G04G05G09G02G10G25G12G30G17
 125562384.776 6  97840872.49543  23893742.742                    23893755.707
 114003034.166 8  88833649.72545  21694035.984                    21694044.129
 115600391.787 7  90078351.971 7  21998001.750                    21998010.145
 124493716.360 7  97008133.30744  23690376.219                    23690387.273
 108258430.265 8  84357350.69146  20600873.070                    20600878.273
 109795632.819 8  85555176.87346  20893399.117                    20893406.152
 126647921.974 7  98686788.907 6  24100307.172                    24100318.738
 112485289.257 7  87650931.175 7  21405237.992                    21405245.129
 122010245.319 6  95072991.81344  23217782.594                    23217791.703
 121772240.490 7  94887521.733 6  23172487.555                    23172495.766
 11  8 14  0 46  0.0000000  0 10G27G04G05G09G02G10G25G12G30G17
 125625990.142 6  97890434.93743  23905846.922                    23905859.473
 114079877.207 8  88893527.41445  21708659.141                    21708666.684
 115510301.638 7  90008151.940 7  21980857.977                    21980866.078
 124573012.422 7  97069922.33744  23705465.547                    23705476.875
 108258287.729 8  84357239.63646  20600846.203                    20600851.816
 109794842.259 8  85554560.87246  20893248.602                    20893255.883
 126548679.454 7  98609457.185 6  24081421.477                    24081433.035
 112426529.332 7  87605144.230 7  21394056.250                    21394063.367
 121917413.171 6  95000655.16044  23200116.977                    23200126.332
 121825617.286 7  94929114.015 6  23182644.883                    23182653.078
 11  8 14  0 46 30.0000000  0 10G27G04G05G09G02G10G25G12G30G17
 125689659.812 6  97940047.51743  23917962.336                    23917975.395
 114156860.062 8  88953514.05545  21723307.992                    21723316.031
 115420515.511 7  89938188.824 7  21963771.977                    21963780.844
 124652468.173 7  97131835.79343  23720585.695                    23720597.422
 108258436.462 8  84357355.54346  20600874.852                    20600879.773
 109794682.840 8  85554436.66946  20893218.414                    20893225.563
 126449615.131 7  98532264.320 6  24062570.320                    24062581.781
 112368204.344 8  87559696.200 7  21382957.680                    21382964.656
 121824894.875 6  94928563.07644  23182511.766                    23182520.512
 121879150.962 7  94970828.541 6  23192832.078                    23192839.895
 11  8 14  0 47  0.0000000  0 10G27G04G05G09G02G10G25G12G30G17
 125753391.183 6  97989708.16443  23930090.328                    23930103.414
 114233980.856 8  89013608.18845  21737983.570                    21737991.918
 115331036.587 7  89868465.075 7  21946745.305                    21946753.449
 124732080.123 6  97193870.97544  23735735.992                    23735746.609
 108258875.649 8  84357697.77146  20600957.695                    20600963.137
 109795154.957 8  85554804.57446  20893308.172                    20893315.578
 126350731.752 7  98455212.440 6  24043753.781                    24043764.727
 112310316.820 7  87514589.052 7  21371942.039                    21371949.219
 121732693.514 6  94856717.93144  23164965.719                    23164974.508
 121932842.200 7  95012665.836 6  23203049.125                    23203057.414
 11  8 14  0 47 30.0000000  0 10G27G04G05G09G02G10G25G12G30G17
 125817181.625 6  98039414.87643  23942229.586                    23942242.641
 114311237.351 8  89073808.05745  21752685.180                    21752693.367
 115241867.466 7  89798982.744 7  21929776.414                    21929785.242
 124811845.064 7  97256025.37144  23750914.805                    23750925.676
 108259604.098 7  84358265.40646  20601096.711                    20601101.824
 109796258.563 8  85555664.55046  20893518.227                    20893525.492
 126252031.983 7  98378303.628 6  24024971.352                    24024982.988
 112252868.896 7  87469824.457 7  21361010.086                    21361017.199
 121640811.925 6  94785121.98944  23147481.531                    23147490.180
 121986691.376 7  95054626.215 6  23213296.336                    23213304.469
 11  8 14  0 48  0.0000000  0 10G27G04G05G09G02G10G25G12G30G17
 125881028.342 6  98089165.41443  23954379.813                    23954391.875
 114388627.722 8  89134112.24045  21767412.320                    21767420.340
 115153010.765 7  89729743.840 7  21912867.031                    21912875.664
 124891759.440 7  97318296.18944  23766121.820                    23766133.203
 108260620.497 8  84359057.43046  20601290.211                    20601295.574
 109797994.052 7  85557016.89546  20893847.914                    20893856.129
 126153518.324 7  98301539.817 6  24006225.102                    24006236.219
 112195862.791 7  87425404.130 7  21350162.406                    21350169.176
 121549252.826 6  94713777.31844  23130058.039                    23130067.465
 122040699.149 7  95096710.187 6  23223573.227                    23223581.621
 11  8 14  0 48 30.0000000  0 10G27G04G05G09G02G10G25G12G30G17
 125944928.291 6  98138957.43344  23966539.586                    23966551.727
 114466150.021 7  89194519.22645  21782163.992                    21782171.910
 115064469.583 7  89660750.800 7  21896018.680                    21896026.973
 124971819.916 6  97380680.88644  23781356.164                    23781368.113
 108261923.718 7  84360072.94646  20601537.984                    20601543.379
 109800361.691 7  85558861.83546  20894298.750                    20894306.449
 126055193.434 7  98224923.111 6  23987514.922                    23987525.441
 112139300.673 7  87381329.769 7  21339399.148                    21339405.668
 121458019.015 6  94642686.10244  23112697.016                    23112705.988
 122094865.885 7  95138918.012 6  23233881.141                    23233889.848
 11  8 14  0 49  0.0000000  0 10G27G04G05G09G02G10G25G12G30G17
 126008878.854 6  98188788.91644  23978708.781                    23978722.098
 114543802.213 8  89255027.41745  21796941.422                    21796948.777
 114976247.012 7  89592006.032 7  21879230.617                    21879238.832
 125052023.092 6  97443176.77743  23796618.617                    23796630.102
 108263512.777 8  84361311.19646  20601840.375                    20601845.746
 109803361.523 7  85561199.39046  20894869.727                    20894876.582
 125957060.013 7  98148455.598 6  23968839.922                    23968851.105
 112083184.749 8  87337603.095 7  21328720.297                    21328727.656
 121367113.397 6  94571850.60044  23095397.836                    23095407.145
 122149192.163 7  95181250.178 6  23244219.273                    23244227.168
 11  8 14  0 49 30.0000000  0 10G27G04G05G09G02G10G25G12G30G17
 126072877.176 6  98238657.58543  23990887.500                    23990900.316
 114621582.229 8  89315635.22945  21811741.797                    21811749.852
 114888345.224 7  89523511.215 7  21862503.563                    21862511.527
 125132365.357 7  97505781.05043  23811907.656                    23811918.898
 108265386.325 8  84362771.12046  20602196.789                    20602202.355
 109806993.102 8  85564029.21646  20895560.719                    20895568.270
 125859120.443 7  98072139.149 6  23950202.109                    23950213.871
 112027517.202 8  87294225.807 7  21318127.063                    21318134.004
 121276538.491 6  94501272.78044  23078161.945                    23078171.098
 122203678.778 7  95223707.279 6  23254586.234                    23254595.566
 11  8 14  0 50  0.0000000  0 10G27G04G05G09G02G10G25G12G30G17
 126136920.957 6  98288561.71043  24003074.367                    24003087.641
 114699488.457 7  89376341.36845  21826567.008                    21826575.082
 114800767.704 7  89455269.068 7  21845837.211                    21845846.059
 125212843.759 6  97568491.39643  23827222.438                    23827233.629
 108267543.617 7  84364452.14446  20602607.969                    20602612.988
 109811257.043 7  85567351.79846  20896372.156                    20896379.332
 125761377.775 7  97995976.114 6  23931602.391                    23931613.699
 111972300.542 8  87251199.855 7  21307619.469                    21307626.586
 121186297.580 7  94430955.22344  23060990.398                    23060998.977
 122258325.742 7  95266289.315 6  23264986.219                    23264994.574
 11  8 14  0 50 30.0000000  0 10G27G04G05G09G02G10G25G12G30G17
 126201006.763 6  98338498.55343  24015268.867                    24015282.543
 114777518.660 7  89437144.12045  21841415.359                    21841423.512
 114713517.026 7  89387281.612 7  21829234.297                    21829242.520
 125293454.646 7  97631304.97644  23842562.125                    23842573.461
 108269982.836 8  84366352.84746  20603071.711                    20603076.777
 109816152.971 8  85571166.82746  20897303.961                    20897310.910
 125663834.253 7  97919968.276 6  23913041.008                    23913051.805
 111917537.093 8  87208527.054 7  21297198.469                    21297205.508
 121096393.014 6  94360899.75044  23043881.789                    23043890.535
 122313133.753 7  95308996.820 7  23275416.016                    23275424.484
 11  8 14  0 51  0.0000000  0 10G27G04G05G09G02G10G25G12G30G17
 126265132.253 6  98388466.31443  24027472.602                    24027485.434
 114855671.018 8  89498042.04745  21856287.305                    21856295.711
 114626595.993 7  89319551.013 7  21812693.523                    21812701.789
 125374194.620 7  97694219.14743  23857926.266                    23857937.348
 108272703.316 8  84368472.71446  20603589.156                    20603594.570
 109821681.431 8  85575474.74446  20898355.797                    20898363.504
 125566492.800 7  97844117.882 6  23894517.250                    23894528.070
 111863228.591 8  87166208.747 7  21286863.523                    21286870.797
 121006827.963 7  94291108.83844  23026838.227                    23026846.816
 122368103.342 7  95351830.267 7  23285877.086                    23285885.328
 11  8 14  0 51 30.0000000  0 10G27G04G05G09G02G10G25G12G30G17
 126329294.773 6  98438462.90743  24039682.313                    24039695.852
 114933943.752 7  89559033.77945  21871182.242                    21871190.395
 114540007.530 7  89252079.551 7  21796216.125                    21796224.574
 125455060.455 6  97757231.39643  23873314.453                    23873325.902
 108275703.870 7  84370810.82446  20604160.313                    20604165.344
 109827842.288 8  85580275.43846  20899528.172                    20899535.824
 125469356.028 7  97768427.019 6  23876032.609                    23876043.699
 111809377.420 8  87124246.802 7  21276616.664                    21276623.293
 120917605.277 7  94221584.68644  23009859.375                    23009868.484
 122423235.054 7  95394790.034 7  23296367.742                    23296376.031
 11  8 14  0 52  0.0000000  0 10G27G04G05G09G02G10G25G12G30G17
 126393491.357 6  98488486.01543  24051898.430                    24051911.777
 115012334.709 8  89620117.61945  21886099.578                    21886107.547
 114453754.301 7  89184869.324 7  21779803.242                    21779811.098
 125536048.630 7  97820338.97943  23888726.516                    23888737.352
 108278983.056 8  84373366.03946  20604784.422                    20604789.910
 109834635.383 8  85585568.78046  20900820.734                    20900828.309
 125372426.374 7  97692897.546 6  23857587.102                    23857598.633
 111755985.634 8  87082642.825 7  21266456.281                    21266463.148
 120828727.534 7  94152329.33344  22992946.758                    22992955.020
 122478529.349 7  95437876.464 7  23306889.422                    23306898.336
 11  8 14  0 52 30.0000000  0 10G27G04G05G09G02G10G25G12G30G17
 126457719.476 6  98538533.69743  24064120.578                    24064134.102
 115090842.274 8  89681292.31845  21901039.305                    21901046.988
 114367839.037 7  89117922.439 7  21763453.797                    21763461.547
 125617155.848 7  97883539.30343  23904160.219                    23904171.734
 108282540.191 8  84376137.84846  20605461.492                    20605466.242
 109842060.558 8  85591354.66446  20902233.203                    20902241.492
 125275706.650 7  97617531.637 6  23839181.867                    23839193.047
 111703055.589 8  87041398.649 7  21256384.086                    21256391.359
 120740197.661 6  94083345.05844  22976100.195                    22976108.426
 122533986.795 7  95481090.046 6  23317442.984                    23317451.418
 11  8 14  0 53  0.0000000  0 10G27G04G05G09G02G10G25G12G30G17
 126521976.779 6  98588604.10343  24076348.688                    24076361.875
 115169464.732 8  89742556.54545  21916000.602                    21916008.320
 114282264.956 7  89051241.408 7  21747169.602                    21747177.816
 125698378.984 7  97946829.95243  23919616.703                    23919628.500
 108286374.401 8  84379125.55646  20606190.570                    20606196.125
 109850118.131 8  85597633.31846  20903766.727                    20903774.125
 125179199.733 7  97542331.563 6  23820816.789                    23820827.992
 111650589.697 8  87000516.150 7  21246400.102                    21246407.418
 120652018.687 6  94014634.20444  22959320.297                    22959328.426
 122589607.947 7  95524431.184 6  23328027.531                    23328036.078
 11  8 14  0 53 30.0000000  0 10G27G04G05G09G02G10G25G12G30G17
 126586260.052 6  98638694.72643  24088581.797                    24088595.230
 115248199.778 8  89803908.50645  21930983.539                    21930991.422
 114197034.453 7  88984828.101 7  21730950.648                    21730958.605
 125779714.427 7  98010208.10043  23935093.961                    23935106.430
 108290483.902 8  84382327.78246  20606972.945                    20606977.785
 109858807.436 8  85604404.22746  20905420.766                    20905428.008
 125082907.888 7  97467299.048 6  23802493.438                    23802504.371
 111598589.830 8  86959996.788 7  21236504.586                    21236511.758
 120564192.987 7  93946198.63844  22942607.352                    22942616.094
 122645393.230 7  95567900.228 6  23338643.023                    23338651.422
 11  8 14  0 54  0.0000000  0 10G27G04G05G09G02G10G25G12G30G17
 126650566.651 6  98688803.53143  24100818.516                    24100832.242
 115327045.674 8  89865346.84545  21945987.211                    21945995.527
 114112150.405 7  88918684.759 7  21714797.570                    21714805.559
 125861158.834 7  98073671.16243  23950592.773                    23950604.922
 108294867.397 8  84385743.50546  20607807.055                    20607812.410
 109868128.304 8  85611667.26846  20907194.055                    20907201.496
 124986833.711 7  97392436.134 6  23784211.086                    23784222.340
 111547057.792 8  86919841.954 7  21226698.664                    21226705.391
 120476723.356 6  93878040.54544  22925962.086                    22925971.137
 122701343.032 7  95611497.465 6  23349289.586                    23349298.133
 11  8 14  0 54 30.0000000  0 10G27G04G05G09G02G10G25G12G30G17
 126714894.132 6  98738928.49343  24113060.352                    24113073.848
 115406000.609 8  89926870.13945  21961011.961                    21961019.898
 114027615.581 7  88852813.540 7  21698711.234                    21698719.059
 125942708.861 6  98137216.51943  23966111.563                    23966122.855
 108299524.151 8  84389372.16046  20608693.297                    20608698.473
 109878080.951 8  85619422.60046  20909088.016                    20909095.395
 124890980.207 7  97317745.166 6  23765970.625                    23765981.543
 111495996.081 8  86880053.621 7  21216982.008                    21216988.699
 120389612.905 7  93810162.33944  22909385.766                    22909394.203
 122757458.140 7  95655223.499 6  23359968.305                    23359976.121
 11  8 14  0 55  0.0000000  0 10G27G04G05G09G02G10G25G12G30G17
 126779239.544 6  98789067.47543  24125304.984                    24125317.832
 115485062.715 8  89988476.94745  21976057.094                    21976064.824
 113943432.760 8  88787216.603 7  21682691.641                    21682699.699
 126024361.309 6  98200841.70643  23981649.250                    23981661.398
 108304453.030 8  84393212.85746  20609630.922                    20609635.883
 109888665.250 8  85627670.12446  20911102.102                    20911109.508
 124795349.945 7  97243228.135 7  23747772.906                    23747783.512
 111445406.819 8  86840633.431 7  21207354.836                    21207362.309
 120302864.298 6  93742566.08744  22892877.688                    22892886.352
 122813738.867 7  95699078.608 6  23370677.742                    23370686.082
 11  8 14  0 55 30.0000000  0 10G27G04G05G09G02G10G25G12G30G17
 126843600.166 6  98839218.27743  24137552.469                    24137566.234
 115564230.313 8  90050165.96345  21991121.953                    21991130.207
 113859604.794 7  88721896.178 7  21666739.719                    21666747.789
 126106112.952 6  98264544.14143  23997205.750                    23997218.156
 108309652.684 8  84397264.55546  20610620.383                    20610625.176
 109899880.563 8  85636409.35046  20913236.172                    20913243.563
 124699945.632 7  97168887.188 6  23729617.867                    23729629.020
 111395292.179 8  86801583.069 7  21197818.469                    21197825.281
 120216480.317 7  93675253.97944  22876439.438                    22876448.402
 122870185.395 7  95743062.894 6  23381419.305                    23381427.313
 11  8 14  0 56  0.0000000  0 10G27G04G05G09G02G10G25G12G30G17
 126907973.224 5  98889378.80042  24149802.992                    24149816.375
 115643501.280 8  90111935.52145  22006206.961                    22006214.945
 113776134.190 8  88656854.220 7  21650855.961                    21650863.656
 126187960.141 6  98328321.05943  24012781.922                    24012793.434
 108315121.835 8  84401526.24846  20611661.375                    20611666.219
 109911726.567 8  85645640.02546  20915490.453                    20915497.805
 124604769.703 7  97094724.162 6  23711506.891                    23711517.750
 111345653.659 8  86762903.706 7  21188372.602                    21188379.582
 120130463.533 7  93608227.98344  22860070.898                    22860079.598
 122926798.459 7  95787176.951 6  23392192.773                    23392201.145
 11  8 14  0 56 30.0000000  0 10G27G04G05G09G02G10G25G12G30G17
 126972356.107 6  98939546.94843  24162055.484                    24162069.766
 115722873.946 7  90173784.33945  22021310.914                    22021318.824
 113693023.843 8  88592092.979 7  21635040.297                    21635048.004
 126269899.578 6  98392169.88643  24028374.375                    24028386.422
 108320859.525 8  84405997.19146  20612753.344                    20612758.105
 109924203.105 8  85655362.02046  20917864.680                    20917872.117
 124509824.917 7  97020741.270 6  23693439.063                    23693449.859
 111296493.634 8  86724597.207 7  21179017.508                    21179024.840
 120044816.844 7  93541490.38144  22843773.055                    22843781.523
 122983578.623 7  95831421.216 6  23402997.766                    23403005.547
 11  8 14  0 57  0.0000000  0 10G27G04G05G09G02G10G25G12G30G17
 127036746.258 6  98989720.78343  24174308.148                    24174321.793
 115802346.470 8  90235710.96445  22036433.594                    22036442.059
 113610276.491 8  88527614.607 7  21619293.773                    21619301.602
 126351928.092 6  98456088.12743  24043983.930                    24043995.996
 108326864.568 8  84410676.46346  20613895.898                    20613900.953
 109937309.974 8  85665575.18346  20920358.711                    20920366.297
 124415114.050 7  96946940.621 6  23675416.484                    23675427.297
 111247814.333 8  86686665.297 7  21169754.469                    21169761.172
 119959543.042 7  93475043.34644  22827545.453                    22827554.203
 123040526.389 7  95875796.106 6  23413834.063                    23413842.598
 11  8 14  0 57 30.0000000  0 10G27G04G05G09G02G10G25G12G30G17
 127101140.653 6  99039897.94043  24186562.633                    24186576.570
 115881917.092 8  90297714.01745  22051576.117                    22051584.289
 113527894.739 8  88463421.093 7  21603616.938                    21603625.055
 126434042.208 6  98520073.07844  24059609.102                    24059621.438
 108333135.354 8  84415562.81146  20615089.055                    20615094.426
 109951046.212 8  85676278.76046  20922972.688                    20922980.004
 124320639.519 7  96873324.146 6  23657438.445                    23657449.336
 111199617.490 8  86649109.330 7  21160583.016                    21160589.820
 119874644.713 7  93408888.87044  22811390.406                    22811398.922
 123097641.727 7  95920301.566 6  23424703.328                    23424711.832
 11  8 14  0 58  0.0000000  0 10G27G04G05G09G02G10G25G12G30G17
 127165536.972 6  99090076.59643  24198816.648                    24198830.523
 115961584.032 8  90359792.14245  22066735.328                    22066743.648
 113445881.186 8  88399514.497 7  21588009.984                    21588018.172
 126516238.802 7  98584122.30043  24075251.391                    24075262.977
 108339671.198 8  84420655.70546  20616332.938                    20616338.207
 109965412.026 8  85687472.92346  20925706.516                    20925713.988
 124226404.250 7  96799894.110 6  23639506.273                    23639516.582
 111151905.291 8  86611931.015 7  21151502.992                    21151510.008
 119790124.713 7  93343029.21644  22795306.414                    22795314.820
 123154925.561 7  95964938.324 7  23435603.836                    23435612.734
 11  8 14  0 58 30.0000000  0 10G27G04G05G09G02G10G25G12G30G17
 127229932.512 6  99140254.67643  24211070.867                    24211085.148
 116041345.489 7  90421943.91245  22081913.680                    22081922.395
 113364238.468 8  88335896.867 7  21572474.227                    21572481.980
 126598514.386 7  98648233.05243  24090907.477                    24090919.395
 108346470.713 8  84425954.04946  20617626.781                    20617632.289
 109980406.962 8  85699157.30346  20928559.766                    20928567.121
 124132410.923 7  96726652.606 6  23621619.680                    23621630.270
 111104679.577 8  86575131.775 7  21142516.953                    21142523.738
 119705985.848 7  93277466.54244  22779295.633                    22779303.762
 123212378.196 7  96009706.620 6  23446537.141                    23446544.883
 11  8 14  0 59  0.0000000  0 10G27G04G05G09G02G10G25G12G30G17
 127294324.215 6  99190429.77543  24223324.680                    24223338.684
 116121199.634 7  90484167.90845  22097109.516                    22097118.191
 113282969.381 7  88272570.365 7  21557009.328                    21557016.766
 126680865.664 7  98712402.82143  24106578.406                    24106590.473
 108353532.434 8  84431456.71246  20618970.469                    20618975.590
 109996030.390 8  85711331.42046  20931533.289                    20931540.281
 124038661.942 7  96653601.500 6  23603779.906                    23603790.152
 111057942.146 8  86538713.019 7  21133622.563                    21133629.898
 119622230.597 6  93212202.80144  22763357.234                    22763365.977
 123269999.752 7  96054606.549 7  23457501.961                    23457510.617
 11  8 14  0 59 30.0000000  0 10G27G04G05G09G02G10G25G12G30G17
 127358709.764 6  99240600.10844  24235576.789                    24235591.246
 116201144.959 7  90546462.93645  22112323.211                    22112331.168
 113202076.760 8  88209537.221 7  21541616.008                    21541623.582
 126763289.572 7  98776629.16143  24122263.586                    24122275.730
 108360855.710 8  84437163.17946  20620364.141                    20620369.309
 110012281.793 8  85723994.87046  20934625.523                    20934632.762
 123945160.354 7  96580743.177 6  23585986.820                    23585997.598
 111011695.501 8  86502676.708 7  21124822.203                    21124829.516
 119538861.965 7  93147240.30844  22747492.688                    22747501.043
 123327791.085 7  96099638.762 7  23468499.297                    23468507.910
 11  8 14  1  0  0.0000000  0 10G27G04G05G09G02G10G25G12G30G17
 127423086.462 6  99290763.56243  24247827.719                    24247841.875
 116281179.274 7  90608827.34045  22127552.531                    22127561.078
 113121563.325 8  88146799.545 7  21526294.750                    21526302.629
 126845782.521 7  98840909.29143  24137961.891                    24137973.359
 108368439.059 8  84443072.29246  20621807.180                    20621812.266
 110029160.538 8  85737147.15746  20937837.227                    20937844.395
 123851908.643 7  96508079.565 6  23568241.398                    23568252.305
 110965941.351 8  86467024.161 7  21116115.477                    21116122.660
 119455882.522 7  93082581.07244  22731702.117                    22731710.617
 123385752.599 7  96144803.580 7  23479529.086                    23479537.875
 11  8 14  1  0 30.0000000  0 10G27G04G05G09G02G10G25G12G30G17
 127487451.621 7  99340918.00543  24260076.703                    24260090.227
 116361301.097 7  90671259.91345  22142799.398                    22142807.648
 113041431.565 8  88084359.282 7  21511046.023                    21511053.699
 126928341.420 7  98905240.79544  24153672.516                    24153684.203
 108376281.610 8  84449183.39146  20623299.727                    20623304.699
 110046666.007 8  85750787.80146  20941168.492                    20941175.617
 123758909.562 7  96435612.813 6  23550544.234                    23550554.941
 110920681.617 8  86431756.877 7  21107502.484                    21107510.227
 119373295.129 7  93018227.32144  22715986.039                    22715994.871
 123443884.597 7  96190101.243 7  23490591.094                    23490600.016
 11  8 14  1  1  0.0000000  0 10G27G04G05G09G02G10G25G12G30G17
 127551802.619 6  99391061.43143  24272322.219                    24272336.738
 116441508.918 7  90733759.50745  22158062.703                    22158070.871
 112961684.122 8  88022218.471 7  21495870.523                    21495878.359
 127010963.007 7  98969621.12443  24169394.430                    24169406.336
 108384381.863 8  84455495.29646  20624840.906                    20624845.742
 110064798.025 8  85764916.65646  20944619.094                    20944626.488
 123666165.725 7  96363344.957 6  23532895.867                    23532906.871
 110875918.303 8  86396876.411 7  21098984.617                    21098991.602
 119291102.379 7  92954181.08944  22700345.484                    22700353.488
 123502187.483 7  96235532.046 7  23501685.898                    23501693.957
 11  8 14  1  1 30.0000000  0 10G27G04G05G09G02G10G25G12G30G17
 127616136.594 6  99441191.61243  24284564.438                    24284578.645
 116521800.659 7  90796324.49745  22173342.023                    22173350.129
 112882323.628 8  87960379.195 7  21480768.398                    21480776.297
 127093644.020 7  99034047.76043  24185127.836                    24185140.016
 108392738.737 8  84462007.16446  20626431.070                    20626436.328
 110083555.686 8  85779533.02946  20948188.172                    20948195.816
 123573679.852 7  96291278.094 6  23515296.414                    23515306.695
 110831653.233 8  86362384.197 7  21090561.500                    21090568.527
 119209307.004 7  92890444.48344  22684780.594                    22684788.734
 123560661.731 7  96281096.386 7  23512812.930                    23512822.355
 11  8 14  1  2  0.0000000  0 10G27G04G05G09G02G10G25G12G30G17
 127680450.955 6  99491306.46743  24296803.313                    24296817.758
 116602174.706 7  90858953.61045  22188636.344                    22188644.563
 112803352.626 8  87898843.413 7  21465740.695                    21465748.895
 127176381.075 6  99098518.06943  24200873.055                    24200884.746
 108401350.846 8  84468717.91146  20628069.438                    20628074.949
 110102938.331 7  85794636.40346  20951876.445                    20951884.023
 123481454.541 7  96219414.286 6  23497746.594                    23497757.293
 110787888.285 8  86328281.689 7  21082233.234                    21082239.824
 119127911.661 7  92827019.59244  22669291.469                    22669299.250
 123619307.794 6  96326794.601 7  23523972.492                    23523981.266
 11  8 14  1  2 30.0000000  0 10G27G04G05G09G02G10G25G12G30G17
 127744743.165 6  99541404.06143  24309037.430                    24309052.098
 116682629.386 7  90921645.54445  22203946.727                    22203954.859
 112724773.914 8  87837613.310 7  21450787.852                    21450795.402
 127259170.978 6  99163029.54243  24216626.813                    24216639.332
 108410217.161 8  84475626.73646  20629757.109                    20629761.918
 110122945.684 8  85810226.56446  20955683.891                    20955691.254
 123389492.549 7  96147755.658 6  23480246.359                    23480257.477
 110744625.386 8  86294570.376 7  21074000.586                    21074007.176
 119046919.091 7  92763908.53245  22653878.617                    22653886.926
 123678126.152 6  96372627.048 6  23535164.750                    23535173.805
 11  8 14  1  3  0.0000000  0 10G27G04G05G09G02G10G25G12G30G17
 127809010.780 6  99591482.47943  24321267.688                    24321282.180
 116763163.264 7  90984399.23345  22219271.516                    22219279.555
 112646590.083 8  87776690.916 7  21435909.898                    21435917.711
 127342010.562 6  99227579.65343  24232391.242                    24232403.332
 108419336.694 8  84482732.86546  20631493.016                    20631497.414
 110143576.973 8  85826302.91346  20959610.172                    20959617.477
 123297796.652 7  96076304.384 6  23462796.703                    23462808.023
 110701866.491 8  86261251.792 7  21065863.391                    21065870.668
 118966332.073 7  92701113.50144  22638543.453                    22638551.363
 123737117.106 6  96418593.991 6  23546391.313                    23546399.613
 11  8 14  1  3 30.0000000  0 10G27G04G05G09G02G10G25G12G30G17
 127873250.889 6  99641539.46243  24333492.594                    24333506.715
 116843774.483 7  91047213.16245  22234610.719                    22234619.227
 112568803.603 8  87716078.133 7  21421107.594                    21421115.637
 127424896.292 7  99292165.74243  24248164.227                    24248176.473
 108428708.103 8  84490035.27446  20633275.836                    20633281.035
 110164831.356 8  85842864.77946  20963654.398                    20963661.902
 123206369.379 7  96005062.428 7  23445399.078                    23445409.883
 110659613.077 8  86228327.090 7  21057822.805                    21057829.891
 118886153.120 7  92638636.42844  22623285.680                    22623294.074
 123796281.160 6  96464695.842 6  23557649.773                    23557658.254
 11  8 14  1  4  0.0000000  0 10G27G04G05G09G02G10G25G12G30G17
 127937460.873 6  99691572.96243  24345711.797                    24345725.582
 116924461.214 7  91110085.93845  22249965.547                    22249973.957
 112491416.889 7  87655776.863 7  21406381.406                    21406389.223
 127507825.144 6  99356785.40743  24263945.016                    24263957.496
 108438330.196 8  84497533.01246  20635106.961                    20635111.965
 110186707.978 8  85859911.51146  20967817.914                    20967825.098
 123115213.537 7  95934031.972 6  23428052.281                    23428063.145
 110617867.161 8  86195797.841 7  21049878.742                    21049886.184
 118806384.947 7  92576479.45145  22608106.211                    22608114.535
 123855618.552 7  96510932.754 6  23568941.328                    23568949.219
 11  8 14  1  4 30.0000000  0 10G27G04G05G09G02G10G25G12G30G17
 128001638.013 6  99741580.85343  24357923.273                    24357939.039
 117005221.934 7  91173016.35545  22265333.641                    22265342.266
 112414432.776 8  87595789.301 7  21391731.852                    21391739.504
 127590793.804 6  99421436.04443  24279733.148                    24279746.094
 108448201.743 8  84505225.14246  20636985.063                    20636990.363
 110209205.949 8  85877442.41046  20972098.820                    20972106.480
 123024331.561 7  95863214.912 6  23410758.594                    23410769.141
 110576630.652 8  86163665.522 7  21042031.953                    21042038.508
 118727030.124 7  92514644.56544  22593006.031                    22593014.145
 123915129.808 7  96557305.150 6  23580266.344                    23580273.738
 11  8 14  1  5  0.0000000  0 10G27G04G05G09G02G10G25G12G30G17
 128065779.796 6  99791561.15142  24370130.016                    24370144.320
 117086054.711 7  91236002.92445  22280715.227                    22280723.953
 112337853.641 8  87536117.321 7  21377159.086                    21377167.164
 127673798.927 6  99486115.08043  24295528.922                    24295541.582
 108458321.033 8  84513110.30146  20638910.938                    20638915.867
 110232324.585 8  85895456.94146  20976497.836                    20976505.586
 122933726.106 7  95792613.324 6  23393516.648                    23393527.273
 110535905.076 8  86131931.331 7  21034281.813                    21034289.141
 118648091.078 7  92453133.67544  22577984.391                    22577992.617
 123974815.267 7  96603813.286 6  23591623.875                    23591631.594
 11  8 14  1  5 30.0000000  0 10G27G04G05G09G02G10G25G12G30G17
 128129883.876 6  99841512.07242  24382328.227                    24382343.605
 117166958.476 7  91299044.80745  22296111.383                    22296119.250
 112261682.512 8  87476763.257 7  21362664.195                    21362671.832
 127756837.776 6  99550820.40343  24311331.359                    24311343.570
 108468688.088 8  84521188.53446  20640883.711                    20640889.109
 110256063.718 8  85913954.96946  20981015.578                    20981022.668
 122843400.454 7  95722229.763 6  23376328.375                    23376339.043
 110495692.843 8  86100597.138 8  21026629.961                    21026636.688
 118569571.335 7  92391949.49545  22563042.523                    22563050.836
 124034675.210 7  96650457.400 6  23603014.422                    23603022.699
 11  8 14  1  6  0.0000000  0 10G27G04G05G09G02G10G25G12G30G17
 128193947.519 6  99891431.50042  24394519.406                    24394534.348
 117247931.308 7  91362140.51745  22311519.547                    22311528.242
 112185921.428 8  87417728.701 7  21348247.375                    21348255.223
 127839906.656 6  99615549.08243  24327139.477                    24327151.418
 108479300.814 8  84529458.19746  20642903.070                    20642908.219
 110280421.637 8  85932935.18746  20985650.516                    20985658.137
 122753356.803 7  95652065.944 6  23359193.438                    23359203.680
 110455995.209 8  86069663.934 7  21019075.633                    21019082.891
 118491472.802 7  92331093.55745  22548180.477                    22548189.078
 124094710.065 7  96697237.814 6  23614439.164                    23614446.734
 11  8 14  1  6 30.0000000  0 10G27G04G05G09G02G10G25G12G30G17
 128257968.118 6  99941317.37742  24406703.516                    24406718.027
 117328971.596 7  91425288.77845  22326941.375                    22326949.129
 112110573.090 8  87359015.771 7  21333909.375                    21333916.898
 127923002.386 6  99680298.67143  24342951.055                    24342964.629
 108490158.259 8  84537918.55046  20644969.445                    20644974.477
 110305397.885 8  85952397.20446  20990403.266                    20990410.605
 122663597.896 7  95582124.004 7  23342112.953                    23342123.316
 110416813.816 8  86039132.985 7  21011619.586                    21011626.469
 118413798.220 7  92270567.95245  22533399.641                    22533408.117
 124154920.411 7  96744154.967 6  23625896.758                    23625905.266
 11  8 14  1  7  0.0000000  0 10G27G04G05G09G02G10G25G12G30G17
 128321942.718 6  99991167.38542  24418876.586                    24418891.703
 117410077.633 7  91488488.26945  22342375.203                    22342383.563
 112035639.607 8  87300626.096 7  21319649.680                    21319657.504
 128006121.924 6  99745066.79943  24358768.391                    24358781.289
 108501259.068 8  84546568.54046  20647081.961                    20647086.652
 110330991.279 8  85972340.11546  20995273.430                    20995281.203
 122574126.220 7  95512405.867 6  23325086.922                    23325097.688
 110378150.118 8  86009005.430 7  21004262.281                    21004269.160
 118336549.958 7  92210374.55445  22518699.992                    22518708.020
 124215306.150 7  96791208.798 6  23637388.008                    23637396.453
 11  8 14  1  7 30.0000000  0 10G27G04G05G09G02G10G25G12G30G17
 128385868.783 6 100040979.58543  24431041.680                    24431056.582
 117491247.662 7  91551737.63045  22357821.492                    22357829.500
 111961123.674 8  87242561.783 7  21305469.789                    21305477.363
 128089262.065 6  99809850.98543  24374590.000                    24374603.156
 108512601.967 8  84555407.17446  20649240.125                    20649245.457
 110357200.737 8  85992763.07746  21000261.289                    21000268.723
 122484944.512 7  95442913.690 7  23308116.328                    23308126.953
 110340006.366 8  85979283.035 7  20997003.898                    20997010.637
 118259730.783 7  92150515.50545  22504081.109                    22504090.438
 124275868.023 7  96838399.880 6  23648912.398                    23648920.602
 11  8 14  1  8  0.0000000  0 10G27G04G05G09G02G10G25G12G30G17
 128449743.906 6 100090752.12943  24443196.930                    24443211.730
 117572480.454 7  91615035.88945  22373279.578                    22373287.594
 111887027.830 8  87184824.820 7  21291369.680                    21291377.199
 128172419.730 6  99874648.85443  24390415.547                    24390427.770
 108524185.914 8  84564433.63546  20651444.484                    20651449.520
 110384025.537 8  86013665.52046  21005365.703                    21005373.070
 122396055.597 7  95373649.661 7  23291201.422                    23291211.742
 110302384.445 8  85949967.244 7  20989844.734                    20989851.559
 118183343.393 7  92090992.91145  22489545.242                    22489553.477
 124336606.109 7  96885728.250 6  23660470.969                    23660478.820
 11  8 14  1  8 30.0000000  0 10G27G04G05G09G02G10G25G12G30G17
 128513565.485 6 100140482.92543  24455342.320                    24455357.023
 117653774.225 7  91678381.65745  22388749.172                    22388757.211
 111813354.546 8  87127417.108 7  21277349.984                    21277357.762
 128255591.644 7  99939457.81944  24406242.539                    24406255.285
 108536009.688 8  84573646.98246  20653694.555                    20653699.559
 110411464.758 8  86035046.73946  21010587.203                    21010594.762
 122307462.006 7  95304615.752 7  23274342.250                    23274352.891
 110265285.353 8  85921058.856 7  20982784.859                    20982791.426
 118107390.197 7  92031808.63945  22475091.758                    22475100.316
 124397520.725 6  96933194.185 6  23672061.969                    23672070.125
 11  8 14  1  9  0.0000000  0 10G27G04G05G09G02G10G25G12G30G17
 128577330.997 6 100190170.00643  24467477.219                    24467492.344
 117735127.474 7  91741773.79544  22404229.898                    22404238.809
 111740106.351 8  87070340.640 7  21263411.477                    21263419.395
 128338774.604 6 100004275.41343  24422071.461                    24422084.855
 108548072.131 8  84583046.30246  20655989.938                    20655995.004
 110439517.254 8  86056905.83046  21015925.664                    21015932.793
 122219166.441 7  95235814.073 7  23257539.773                    23257550.727
 110228710.922 8  85892559.287 7  20975824.852                    20975832.105
 118031873.772 7  91972964.69345  22460721.578                    22460729.590
 124458612.535 7  96980798.190 6  23683686.883                    23683695.547
 11  8 14  1  9 30.0000000  0 10G27G04G05G09G02G10G25G12G30G17
 128641037.936 6 100239811.49043  24479600.375                    24479615.398
 117816538.527 7  91805210.95845  22419722.453                    22419730.773
 111667285.641 8  87013597.287 7  21249553.500                    21249561.512
 128421965.452 6 100069099.15243  24437902.516                    24437916.027
 108560372.052 8  84592630.67046  20658330.500                    20658335.539
 110468182.187 8  86079242.15246  21021380.414                    21021387.617
 122131171.657 7  95167246.765 6  23240795.078                    23240805.879
 110192662.866 8  85864469.895 8  20968965.344                    20968972.430
 117956796.858 7  91914463.22245  22446435.000                    22446443.336
 124519881.641 6  97028540.315 6  23695346.680                    23695354.445
 11  8 14  1 10  0.0000000  0  9G04G05G09G02G10G25G12G30G17
 117898006.045 7  91868692.15845  22435224.984                    22435233.262
 111594894.613 8  86957188.741 7  21235778.578                    21235785.879
 128505161.008 6 100133926.63043  24453734.742                    24453747.676
 108572908.386 8  84602399.26246  20660716.063                    20660720.945
 110497458.439 8  86102054.83446  21026951.289                    21026958.504
 122043480.308 7  95098915.891 6  23224108.008                    23224118.477
 110157142.787 8  85836791.908 7  20962206.102                    20962212.914
 117882161.866 7  91856306.11345  22432232.031                    22432240.629
 124581328.483 6  97076420.941 6  23707039.484                    23707047.945
 11  8 14  1 10 30.0000000  0  9G04G05G09G02G10G25G12G30G17
 117979528.541 7  91932216.17745  22450738.000                    22450746.063
 111522935.882 8  86901117.051 7  21222084.906                    21222092.652
 128588358.186 6 100198755.34643  24469566.281                    24469579.906
 108585679.832 8  84612351.05446  20663146.188                    20663151.332
 110527344.625 8  86125342.78846  21032638.320                    21032645.242
 121956095.054 7  95030823.552 7  23207479.258                    23207489.555
 110122152.409 8  85809526.677 7  20955547.695                    20955554.328
 117807971.489 7  91798495.43845  22418114.141                    22418122.688
 124642953.369 6  97124440.311 6  23718766.656                    23718774.992
 11  8 14  1 11  0.0000000  0  9G04G05G09G02G10G25G12G30G17
 118061104.057 7  91995781.52045  22466261.758                    22466269.742
 111451411.642 8  86845383.925 7  21208474.570                    21208482.258
 128671553.581 6 100263582.70343  24485398.133                    24485411.781
 108598684.906 8  84622484.89646  20665621.023                    20665626.121
 110557839.487 8  86149105.03846  21038441.484                    21038448.375
 121869018.324 7  94962971.604 6  23190909.250                    23190919.762
 110087692.841 8  85782675.074 7  20948990.289                    20948997.016
 117734227.879 7  91741032.88145  22404081.242                    22404089.492
 124704756.569 6  97172598.636 6  23730526.859                    23730535.957
 11  8 14  1 11 30.0000000  0  9G04G05G09G02G10G25G12G30G17
 118142731.475 7  92059387.32245  22481794.820                    22481802.918
 111380324.699 8  86789991.562 7  21194946.867                    21194954.188
 128754744.426 6 100328406.53343  24501229.250                    24501242.551
 108611922.676 8  84632800.05346  20668140.188                    20668145.082
 110588942.220 8  86173340.96446  21044360.125                    21044367.391
 121782253.023 7  94895362.333 7  23174397.852                    23174408.547
 110053766.228 8  85756238.769 7  20942534.258                    20942541.051
 117660933.886 7  91683920.67445  22390134.188                    22390142.070
 124766738.356 6  97220896.108 7  23742322.477                    23742330.652
 11  8 14  1 12  0.0000000  0  9G04G05G09G02G10G25G12G30G17
 118224408.872 7  92123032.06345  22497337.531                    22497345.902
 111309677.053 8  86734941.481 7  21181502.961                    21181510.363
 128837927.470 6 100393224.26943  24517058.328                    24517071.734
 108625391.833 8  84643295.52146  20670702.688                    20670708.484
 110620651.423 8  86198049.45246  21050394.078                    21050401.453
 121695801.643 7  94827997.686 7  23157946.898                    23157957.648
 110020373.600 8  85730218.559 7  20936179.828                    20936186.684
 117588091.827 7  91627160.61845  22376272.891                    22376280.902
 124828899.256 6  97269333.163 7  23754150.688                    23754159.594
 11  8 14  1 12 30.0000000  0  9G04G05G09G02G10G25G12G30G17
 118306135.396 7  92186715.08845  22512889.461                    22512897.156
 111239471.465 8  86680235.886 7  21168143.258                    21168151.055
 128921099.716 6 100458033.60743  24532885.320                    24532899.555
 108639091.297 8  84653970.43046  20673310.477                    20673315.477
 110652965.920 8  86223229.60646  21056543.352                    21056550.539
 121609667.026 7  94760879.857 7  23141555.766                    23141566.590
 109987516.887 8  85704615.940 7  20929927.180                    20929933.867
 117515704.276 7  91570754.71645  22362497.477                    22362506.109
 124891239.104 6  97317909.631 6  23766013.703                    23766022.961
 11  8 14  1 13  0.0000000  0  9G04G05G09G02G10G25G12G30G17
 118387909.097 7  92250434.87444  22528450.609                    22528458.836
 111169709.661 8  86625876.083 7  21154868.219                    21154875.766
 129004258.045 6 100522832.08843  24548710.414                    24548724.457
 108653019.935 8  84664823.91746  20675960.828                    20675965.930
 110685884.663 8  86248880.59646  21062807.578                    21062814.586
 121523851.697 7  94694010.804 7  23125225.867                    23125236.313
 109955197.282 8  85679431.854 7  20923777.031                    20923783.984
 117443773.732 7  91514704.93945  22348809.695                    22348818.250
 124953758.318 7  97366625.912 6  23777910.734                    23777919.484
 11  8 14  1 13 30.0000000  0  9G04G05G09G02G10G25G12G30G17
 118469728.494 7  92314190.28145  22544020.555                    22544027.801
 111100394.130 8  86571864.029 7  21141677.750                    21141685.414
 129087399.254 6 100587617.22843  24564531.453                    24564545.324
 108667176.373 8  84675854.91346  20678654.891                    20678659.793
 110719406.280 8  86275001.35746  21069186.773                    21069193.980
 121438358.255 7  94627392.590 7  23108957.188                    23108967.863
 109923416.286 8  85654667.466 7  20917729.313                    20917736.199
 117372302.615 7  91459013.16045  22335209.219                    22335217.684
 125016457.480 6  97415482.381 6  23789842.258                    23789850.703
 11  8 14  1 14  0.0000000  0  9G04G05G09G02G10G25G12G30G17
 118551592.357 7  92377980.31645  22559598.055                    22559606.441
 111031527.551 8  86518201.801 7  21128572.797                    21128580.379
 129170520.429 6 100652386.79543  24580349.172                    24580363.027
 108681559.849 8  84687062.82146  20681391.813                    20681396.730
 110753529.566 8  86301590.96046  21075679.859                    21075687.344
 121353189.492 7  94561027.366 7  23092749.922                    23092760.488
 109892175.698 8  85630324.176 7  20911784.281                    20911791.375
 117301293.511 7  91403681.39645  22321696.844                    22321705.102
 125079336.762 6  97464479.211 6  23801807.328                    23801815.637
 11  8 14  1 14 30.0000000  0  9G04G05G09G02G10G25G12G30G17
 118633499.055 7  92441803.74345  22575184.492                    22575192.625
 110963111.857 8  86464890.919 7  21115553.750                    21115561.379
 129253618.301 6 100717138.15143  24596162.625                    24596176.563
 108696168.447 8  84698446.14646  20684171.563                    20684176.871
 110788253.321 8  86328648.45346  21082287.664                    21082294.699
 121268347.888 7  94494917.068 7  23076604.977                    23076615.539
 109861476.586 8  85606402.813 7  20905942.430                    20905949.613
 117230748.716 7  91348711.43345  22308272.586                    22308281.258
 125142396.211 6  97513616.447 6  23813807.203                    23813815.715
 11  8 14  1 15  0.0000000  0  9G04G05G09G02G10G25G12G30G17
 118715447.137 7  92505659.39545  22590778.664                    22590787.313
 110895149.249 7  86411933.086 7  21102620.859                    21102628.164
 129336689.646 6 100781868.85643  24611971.047                    24611984.176
 108711001.138 8  84710004.09346  20686994.086                    20686999.527
 110823575.953 8  86356172.60546  21089009.242                    21089016.527
 121183836.077 7  94429063.753 7  23060523.445                    23060533.645
 109831320.175 8  85582904.346 7  20900203.789                    20900210.922
 117160670.608 7  91294105.12345  22294937.195                    22294945.227
 125205636.370 6  97562894.514 6  23825841.648                    23825849.559
 11  8 14  1 15 30.0000000  0  9G04G05G09G02G10G25G12G30G17
 118797435.285 7  92569546.27644  22606380.797                    22606388.348
 110827642.587 8  86359330.542 7  21089774.578                    21089782.418
 129419731.541 6 100846576.64543  24627773.156                    24627786.863
 108726057.351 8  84721736.21146  20689859.164                    20689864.008
 110859496.440 8  86384162.61346  21095844.672                    21095851.820
 121099656.910 7  94363469.643 7  23044503.930                    23044514.543
 109801708.103 8  85559830.027 7  20894568.727                    20894575.746
 117091061.873 7  91239864.58045  22281691.000                    22281698.883
 125269057.467 6  97612313.546 6  23837909.781                    23837918.746
 11  8 14  1 16  0.0000000  0  9G04G05G09G02G10G25G12G30G17
 118879462.029 7  92633463.20345  22621989.680                    22621998.426
 110760593.495 8  86307084.551 7  21077015.484                    21077022.977
 129502740.902 6 100911259.03743  24643568.750                    24643583.102
 108741335.316 8  84733641.12846  20692766.570                    20692771.625
 110896013.012 8  86412617.11046  21102793.430                    21102800.707
 121015812.783 7  94298136.607 7  23028549.016                    23028559.754
 109772641.616 8  85537180.850 8  20889037.805                    20889044.293
 117021924.652 7  91185991.45545  22268534.664                    22268542.719
 125332659.683 6  97661873.712 6  23850013.250                    23850021.367
 11  8 14  1 16 30.0000000  0  9G04G05G09G02G10G25G12G30G17
 118961525.931 7  92697409.10445  22637606.063                    22637614.180
 110694004.490 8  86255197.056 7  21064344.266                    21064351.711
 129585714.644 6 100975913.65643  24659359.125                    24659372.492
 108756834.108 8  84745718.11246  20695715.672                    20695720.910
 110933124.487 8  86441535.16246  21109855.727                    21109863.113
 120932306.401 7  94233066.735 7  23012658.492                    23012668.805
 109744122.446 8  85514958.141 7  20883610.523                    20883617.570
 116953261.450 7  91132487.71145  22255467.969                    22255476.512
 125396443.722 6  97711575.562 6  23862151.063                    23862159.277
 11  8 14  1 17  0.0000000  0  9G04G05G09G02G10G25G12G30G17
 119043625.656 7  92761382.90645  22653229.438                    22653237.641
 110627877.811 8  86203669.818 7  21051760.516                    21051768.035
 129668650.113 6 101040538.47843  24675141.063                    24675155.395
 108772552.797 8  84757966.44246  20698706.758                    20698712.102
 110970829.537 8  86470915.74446  21117030.719                    21117038.250
 120849140.539 7  94168262.196 7  22996832.461                    22996842.898
 109716151.828 8  85493162.870 7  20878287.898                    20878294.910
 116885074.840 7  91079355.33945  22242492.930                    22242500.656
 125460409.107 6  97761418.710 6  23874322.938                    23874331.559
 11  8 14  1 17 30.0000000  0  9G04G05G09G02G10G25G12G30G17
 119125759.782 7  92825383.51744  22668858.273                    22668866.957
 110562215.408 8  86152504.351 7  21039265.172                    21039272.699
 129751544.030 6 101105130.91443  24690915.281                    24690929.555
 108788490.035 8  84770385.07246  20701739.750                    20701745.117
 111009126.581 8  86500757.61646  21124318.008                    21124325.438
 120766317.618 7  94103724.874 6  22981071.836                    22981081.961
 109688730.653 8  85471795.741 7  20873069.820                    20873076.418
 116817366.869 7  91026595.93645  22229608.477                    22229616.148
 125524556.357 6  97811403.572 6  23886529.523                    23886538.719
 11  8 14  1 18  0.0000000  0  9G04G05G09G02G10G25G12G30G17
 119207926.963 7  92889409.87044  22684494.273                    22684503.086
 110497019.614 8  86101702.481 7  21026858.898                    21026866.289
 129834393.464 6 101169688.67243  24706681.586                    24706695.824
 108804644.457 8  84782972.93546  20704813.969                    20704819.234
 111048013.948 8  86531059.47146  21131718.469                    21131725.480
 120683840.278 7  94039456.847 7  22965376.727                    22965387.016
 109661860.360 8  85450857.863 7  20867956.516                    20867963.324
 116750139.952 7  90974211.38745  22216815.219                    22216823.641
 125588885.558 6  97861530.228 6  23898771.211                    23898779.605
 11  8 14  1 18 30.0000000  0  9G04G05G09G02G10G25G12G30G17
 119290125.573 7  92953460.72044  22700136.531                    22700144.555
 110432292.274 8  86051265.629 7  21014541.695                    21014548.969
 129917194.953 6 101234209.11542  24722438.805                    24722452.574
 108821014.519 8  84795728.83646  20707928.797                    20707934.145
 111087490.088 8  86561820.11646  21139230.453                    21139237.723
 120601710.990 7  93975460.011 7  22949747.930                    22949757.863
 109635542.183 8  85430350.210 7  20862948.531                    20862955.289
 116683396.294 7  90922203.40345  22204114.398                    22204122.852
 125653397.038 6  97911798.899 6  23911048.039                    23911055.637
 11  8 14  1 19  0.0000000  0  9G04G05G09G02G10G25G12G30G17
 119372354.493 7  93017535.19444  22715783.883                    22715792.266
 110368036.141 8  86001195.963 7  21002314.031                    21002321.773
 129999945.948 6 101298690.17643  24738185.750                    24738199.484
 108837599.771 8  84808652.41946  20711085.180                    20711090.324
 111127553.895 8  86593038.68246  21146854.344                    21146861.598
 120519932.635 7  93911736.612 7  22934185.773                    22934196.414
 109609777.685 8  85410273.990 7  20858045.961                    20858052.383
 116617138.528 7  90870574.05145  22191505.711                    22191514.078
 125718091.031 7  97962209.795 6  23923358.719                    23923366.695
 11  8 14  1 19 30.0000000  0  9G04G05G09G02G10G25G12G30G17
 119454612.639 7  93081632.41245  22731437.578                    22731445.656
 110304253.241 8  85951495.044 7  20990176.414                    20990183.895
 130082643.230 6 101363129.39943  24753922.844                    24753936.734
 108854398.826 8  84821742.59846  20714281.758                    20714287.148
 111168203.475 8  86624713.69346  21154589.734                    21154597.219
 120438507.720 7  93848288.654 7  22918691.266                    22918701.859
 109584567.884 8  85390630.002 7  20853248.633                    20853255.262
 116551368.874 7  90819325.04345  22178990.367                    22178998.402
 125782967.772 7  98012763.098 6  23935704.141                    23935712.621
 11  8 14  1 20  0.0000000  0  9G04G05G09G02G10G25G12G30G17
 119536898.215 7  93145751.03444  22747095.813                    22747104.227
 110240945.212 8  85902164.154 7  20978129.320                    20978136.723
 130165283.872 6 101427524.44943  24769648.258                    24769662.820
 108871410.231 8  84834998.25046  20717518.922                    20717524.176
 111209437.143 8  86656843.83246  21162436.352                    21162443.859
 120357438.634 7  93785117.953 7  22903264.281                    22903274.594
 109559913.791 8  85371419.023 7  20848557.180                    20848563.660
 116486089.371 7  90768457.96445  22166568.203                    22166576.172
 125848027.402 7  98063458.911 6  23948084.859                    23948092.754
 11  8 14  1 20 30.0000000  0  9G04G05G09G02G10G25G12G30G17
 119619210.155 7  93209890.19144  22762759.000                    22762767.652
 110178114.682 8  85853205.339 7  20966173.234                    20966180.676
 130247864.937 6 101491873.13543  24785362.938                    24785377.234
 108888633.257 8  84848418.79946  20720796.242                    20720801.492
 111251253.912 8  86689428.34646  21170393.742                    21170400.875
 120276728.263 7  93722226.766 7  22887905.813                    22887915.926
 109535816.799 8  85352642.152 7  20843971.375                    20843977.926
 116421302.624 7  90717974.85045  22154239.266                    22154247.660
 125913270.283 7  98114297.518 6  23960499.586                    23960507.863
 11  8 14  1 21  0.0000000  0  9G04G05G09G02G10G25G12G30G17
 119701547.001 7  93274048.74844  22778427.633                    22778435.848
 110115763.385 8  85804619.958 7  20954308.023                    20954315.586
 130330383.288 6 101556172.94143  24801066.273                    24801080.047
 108906066.434 8  84862003.10746  20724113.703                    20724119.070
 111293651.525 8  86722465.45446  21178461.820                    21178469.156
 120196378.926 7  93659616.905 7  22872615.727                    22872626.074
 109512277.890 8  85334300.152 7  20839492.086                    20839498.855
 116357010.581 7  90667877.21845  22142005.266                    22142013.434
 125978696.289 7  98165278.803 6  23972950.086                    23972958.008
 11  8 14  1 21 30.0000000  0  9G04G05G09G02G10G25G12G30G17
 119783907.518 7  93338225.74144  22794099.734                    22794108.277
 110053893.649 8  85756409.816 7  20942534.523                    20942541.875
 130412836.190 6 101620421.68543  24816756.328                    24816771.070
 108923708.523 8  84875750.20746  20727470.984                    20727476.090
 111336628.584 8  86755954.08646  21186639.750                    21186647.211
 120116393.424 7  93597290.562 7  22857395.273                    22857405.832
 109489298.295 8  85316393.979 8  20835119.305                    20835126.387
 116293215.712 7  90618166.99245  22129865.180                    22129873.230
 126044305.854 6  98216403.117 6  23985434.727                    23985442.570
 11  8 14  1 22  0.0000000  0  9G04G05G09G02G10G25G12G30G17
 119866290.336 7  93402420.11044  22809776.859                    22809785.500
 109992507.079 8  85708576.171 7  20930853.188                    20930860.582
 130495220.562 6 101684617.05243  24832434.344                    24832448.574
 108941558.434 8  84889659.25046  20730867.727                    20730872.555
 111380183.304 8  86789892.83546  21194928.109                    21194935.434
 120036774.048 7  93535249.531 7  22842243.523                    22842254.688
 109466878.943 8  85298924.362 7  20830852.922                    20830859.754
 116229920.067 7  90568845.77345  22117820.180                    22117828.363
 126110098.877 6  98267670.412 6  23997955.328                    23997963.168
 11  8 14  1 22 30.0000000  0  9G04G05G09G02G10G25G12G30G17
 119948694.215 7  93466630.91644  22825457.914                    22825465.934
 109931605.965 8  85661120.799 7  20919263.922                    20919271.414
 130577533.488 6 101748756.79143  24848097.969                    24848112.230
 108959615.268 8  84903729.52946  20734303.813                    20734309.004
 111424313.862 8  86824280.28846  21203325.836                    21203333.340
 119957523.599 7  93473495.970 7  22827162.617                    22827173.367
 109445021.036 8  85281892.220 7  20826693.578                    20826700.258
 116167125.968 7  90519915.36445  22105871.430                    22105878.965
 126176075.800 6  98319080.995 6  24010510.188                    24010517.926
 11  8 14  1 23  0.0000000  0  9G04G05G09G02G10G25G12G30G17
 120031118.493 7  93530857.58744  22841142.547                    22841150.918
 109871192.852 7  85614045.684 7  20907767.992                    20907775.211
 130659772.815 6 101812839.12143  24863746.977                    24863762.039
 108977878.498 8  84917960.62346  20737779.055                    20737784.250
 111469019.531 8  86859115.87846  21211832.742                    21211840.051
 119878645.205 7  93412032.348 7  22812152.852                    22812163.656
 109423726.519 8  85265299.091 8  20822641.406                    20822647.738
 116104836.275 7  90471377.99845  22094017.625                    22094026.094
 126242237.630 6  98370635.666 6  24023100.078                    24023108.141
 11  8 14  1 23 30.0000000  0  8G04G05G02G10G25G12G30G17
 120113562.780 7  93595099.86944  22856831.680                    22856839.082
 109811270.769 7  85567353.188 7  20896364.922                    20896372.309
 108996347.558 8  84932352.10746  20741293.828                    20741298.867
 111514299.469 7  86894398.95946  21220449.453                    21220457.031
 119800142.320 7  93350861.323 7  22797214.750                    22797224.891
 109402997.041 8  85249146.256 7  20818696.648                    20818703.324
 116043054.000 7  90423236.02145  22082261.109                    22082268.742
 126308584.796 6  98422334.747 6  24035725.273                    24035733.953
 11  8 14  1 24  0.0000000  0  8G04G05G02G10G25G12G30G17
 120196023.919 7  93659355.28444  22872523.328                    22872531.496
 109751839.514 8  85521043.160 7  20885055.836                    20885062.969
 109015019.376 8  84946901.58646  20744846.672                    20744851.645
 111560149.753 8  86930126.45746  21229174.070                    21229181.816
 119722015.420 7  93289983.280 7  22782347.414                    22782357.941
 109382831.733 8  85233433.032 7  20814859.445                    20814865.738
 115981779.384 7  90375489.60645  22070601.125                    22070608.824
 126375116.002 6  98474177.202 6  24048386.625                    24048394.324
 11  8 14  1 24 30.0000000  0  8G04G05G02G10G25G12G30G17
 120278500.852 7  93723622.99544  22888218.000                    22888226.359
 109692901.690 8  85475117.613 8  20873840.109                    20873847.523
 109033892.973 8  84961608.30546  20748438.063                    20748443.203
 111606568.823 8  86966297.17046  21238007.633                    21238015.004
 119644267.266 7  93229400.373 7  22767551.813                    22767562.672
 109363231.778 8  85218160.342 7  20811129.539                    20811136.223
 115921014.678 7  90328140.53445  22059037.688                    22059045.664
 126441831.181 6  98526163.049 6  24061080.641                    24061089.770
 11  8 14  1 25  0.0000000  0  8G04G05G02G10G25G12G30G17
 120360992.075 7  93787901.84644  22903915.719                    22903924.012
 109634458.598 8  85429577.582 7  20862718.625                    20862725.684
 109052966.614 8  84976470.89646  20752067.789                    20752072.805
 111653554.729 8  87002909.57646  21246948.945                    21246955.996
 119566900.226 7  93169114.432 7  22752829.711                    22752840.418
 109344197.743 8  85203328.637 7  20807507.648                    20807514.328
 115860761.876 7  90281190.34045  22047572.016                    22047579.637
 126508730.341 6  98578292.233 6  24073811.563                    24073819.988
 11  8 14  1 25 30.0000000  0  8G04G05G02G10G25G12G30G17
 120443496.880 7  93852191.28044  22919615.719                    22919623.906
 109576512.592 7  85384424.889 8  20851691.953                    20851699.730
 109072240.620 8  84991489.61846  20755735.656                    20755740.625
 111701106.243 7  87039962.71646  21255997.602                    21256004.977
 119489917.282 7  93109127.788 7  22738180.289                    22738191.148
 109325731.164 8  85188939.098 7  20803993.180                    20803999.914
 115801023.601 7  90234641.08545  22036204.023                    22036212.000
 126575814.290 6  98630565.428 6  24086577.750                    24086585.895
 11  8 14  1 26  0.0000000  0  8G04G05G02G10G25G12G30G17
 120526014.049 7  93916490.36444  22935318.578                    22935326.457
 109519065.400 8  85339660.882 8  20840759.977                    20840767.480
 109091713.302 8  85006663.14646  20759440.891                    20759446.176
 111749220.967 8  87077454.72946  21265153.445                    21265160.852
 119413320.732 7  93049442.254 7  22723604.297                    22723615.457
 109307832.899 8  85174992.396 7  20800587.984                    20800594.418
 115741801.629 7  90188494.14045  22024934.016                    22024942.164
 126643082.884 6  98682982.515 6  24099378.117                    24099387.359
 11  8 14  1 26 30.0000000  0  8G04G05G02G10G25G12G30G17
 120608541.789 7  93980797.68844  22951023.102                    22951031.320
 109462118.962 8  85295287.074 8  20829923.781                    20829930.914
 109111382.968 8  85021990.17346  20763184.367                    20763189.457
 111797896.979 8  87115384.10245  21274416.133                    21274423.273
 119337112.746 7  92990059.482 7  22709102.383                    22709112.797
 109290503.531 8  85161489.000 7  20797289.813                    20797296.680
 115683097.883 7  90142751.00445  22013763.375                    22013771.250
 126710536.179 6  98735543.535 6  24112214.805                    24112223.508
 11  8 14  1 27  0.0000000  0  8G04G05G02G10G25G12G30G17
 120691079.574 7  94045112.82844  22966729.117                    22966737.910
 109405675.623 8  85251305.297 8  20819182.891                    20819189.781
 109131249.097 8  85037470.29046  20766964.813                    20766969.758
 111847132.989 8  87153749.84346  21283785.727                    21283793.043
 119261296.505 7  92930981.969 7  22694674.984                    22694685.660
 109273744.257 8  85148429.840 8  20794100.789                    20794107.715
 115624915.033 7  90097413.74945  22002691.359                    22002699.309
 126778174.212 6  98788248.468 6  24125086.438                    24125094.383
 11  8 14  1 27 30.0000000  0  8G04G05G02G10G25G12G30G17
 120773626.185 7  94109434.85544  22982437.344                    22982445.855
 109349736.978 8  85207716.776 8  20808537.938                    20808545.398
 109151310.727 8  85053102.73446  20770782.039                    20770787.223
 111896926.859 8  87192550.27346  21293260.742                    21293268.348
 119185874.226 8  92872211.420 7  22680322.680                    22680332.852
 109257555.971 8  85135815.592 8  20791020.242                    20791026.695
 115567254.851 7  90052483.77745  21991718.844                    21991727.008
 126845997.344 6  98841097.646 6  24137992.172                    24138000.895
 11  8 14  1 28  0.0000000  0  8G04G05G02G10G25G12G30G17
 120856180.253 6  94173762.66944  22998147.313                    22998155.367
 109294304.157 8  85164522.413 7  20797989.609                    20797996.703
 109171566.143 8  85068886.18646  20774636.523                    20774641.391
 111947276.426 8  87231783.72445  21302842.422                    21302849.586
 119110848.198 7  92813749.653 7  22666045.500                    22666056.090
 109241939.430 8  85123646.875 7  20788048.234                    20788054.941
 115510119.197 7  90007962.51645  21980846.594                    21980854.070
 126914005.439 6  98894090.989 6  24150932.758                    24150942.543
 11  8 14  1 28 30.0000000  0  8G04G05G02G10G25G12G30G17
 120938740.361 7  94238095.20644  23013857.766                    23013865.855
 109239379.384 8  85121723.927 8  20787537.445                    20787544.836
 109192014.276 8  85084819.80146  20778527.922                    20778532.684
 111998179.931 8  87271448.81946  21312528.609                    21312535.984
 119036220.978 7  92755598.634 7  22651844.406                    22651855.023
 109226895.447 8  85111924.301 7  20785185.289                    20785192.027
 115453510.102 7  89963851.57245  21970074.188                    21970082.430
 126982198.533 7  98947228.474 6  24163910.633                    24163918.664
 11  8 14  1 29  0.0000000  0  8G04G05G02G10G25G12G30G17
 121021305.929 7  94302432.00544  23029569.594                    23029577.824
 109184964.837 8  85079323.021 8  20777182.266                    20777189.805
 109212654.509 8  85100903.11646  20782455.500                    20782460.520
 112049635.776 8  87311544.30745  21322320.469                    21322327.848
 118961995.284 8  92697760.491 7  22637719.711                    22637729.953
 109212424.795 8  85100648.482 7  20782431.586                    20782438.656
 115397429.820 7  89920152.68545  21959402.320                    21959410.609
 127050576.989 6  99000510.373 6  24176922.563                    24176930.973
 11  8 14  1 29 30.0000000  0  8G04G05G02G10G25G12G30G17
 121103875.729 7  94366772.08944  23045281.844                    23045290.355
 109131062.219 8  85037321.018 8  20766925.227                    20766932.441
 109233485.684 8  85117135.21646  20786419.703                    20786424.594
 112101641.742 8  87352068.45345  21332216.461                    21332223.941
 118888173.579 8  92640237.156 7  22623671.602                    22623682.254
 109198528.261 8  85089820.023 7  20779787.398                    20779794.184
 115341880.347 8  89876867.40945  21948831.344                    21948839.578
 127119140.709 6  99053936.625 6  24189969.188                    24189978.465
 11  8 14  1 30  0.0000000  0  8G04G05G02G10G25G12G30G17
 121186448.316 7  94431114.35044  23060995.375                    23061003.445
 109077672.880 8  84995718.979 8  20756765.625                    20756772.820
 109254506.105 8  85133514.77246  20790419.328                    20790424.352
 112154195.513 7  87393019.46245  21342217.258                    21342224.652
 118814757.904 8  92583030.193 7  22609701.141                    22609711.223
 109185206.347 8  85079439.331 8  20777252.297                    20777259.379
 115286863.277 8  89833997.00245  21938362.406                    21938370.031
 127187889.740 6  99107507.283 6  24203052.508                    24203060.254
 11  8 14  1 30 30.0000000  0  8G04G05G02G10G25G12G30G17
 121269022.718 7  94495458.03944  23076708.125                    23076716.773
 109024798.593 7  84954518.279 8  20746703.906                    20746711.043
 109275715.158 8  85150041.31946  20794455.375                    20794460.500
 112207295.139 8  87434395.81945  21352321.992                    21352329.074
 118741750.940 7  92526141.696 7  22595808.508                    22595818.531
 109172459.781 8  85069506.955 8  20774826.945                    20774833.203
 115232380.784 7  89791543.14345  21927994.117                    21928001.996
 127256824.114 6  99161222.364 6  24216169.859                    24216178.051
 11  8 14  1 31  0.0000000  0  8G04G05G02G10G25G12G30G17
 121351597.731 7  94559802.18344  23092422.148                    23092430.512
 108972441.054 7  84913720.243 8  20736740.953                    20736747.988
 109297111.420 8  85166713.74446  20798526.945                    20798532.496
 112260938.428 8  87476195.79845  21362529.805                    21362537.098
 118669154.870 8  92469573.382 7  22581993.922                    22582004.047
 109160289.597 8  85060023.717 7  20772510.633                    20772517.492
 115178434.468 7  89749507.10145  21917728.703                    21917736.727
 127325943.892 6  99215081.902 6  24229322.375                    24229331.125
 11  8 14  1 31 30.0000000  0  8G04G05G02G10G25G12G30G17
 121434172.484 7  94624146.15044  23108135.250                    23108143.469
 108920602.561 8  84873326.645 8  20726875.680                    20726883.098
 109318694.290 8  85183531.57346  20802634.156                    20802639.219
 112315123.738 7  87518418.14245  21372840.727                    21372848.379
 118596972.622 7  92413327.525 7  22568257.953                    22568268.117
 109148696.179 8  85050989.912 8  20770304.547                    20770311.699
 115125026.842 7  89707890.80645  21907565.578                    21907573.504
 127395249.114 6  99269085.974 6  24242511.297                    24242519.516
 11  8 14  1 32  0.0000000  0  8G04G05G02G10G25G12G30G17
 121516745.777 7  94688488.94744  23123848.648                    23123856.855
 108869283.887 8  84833338.105 8  20717110.359                    20717117.543
 109340461.813 8  85200493.29346  20806776.242                    20806781.379
 112369848.305 7  87561060.67545  21383254.570                    21383261.641
 118525206.091 7  92357405.593 7  22554601.102                    22554611.473
 109137679.971 8  85042405.875 7  20768208.000                    20768215.012
 115072159.131 7  89666695.23445  21897505.234                    21897513.254
 127464739.437 6  99323234.247 6  24255735.016                    24255743.402
 11  8 14  1 32 30.0000000  0  9G29G04G05G02G10G25G12G30G17
 129577116.73116 100969241.01915  24657715.555                    24657723.828
 121599316.775 7  94752829.96744  23139561.461                    23139569.398
 108818487.299 8  84793756.397 8  20707443.969                    20707450.895
 109362413.956 8  85217598.87146  20810953.445                    20810958.680
 112425111.059 7  87604122.58645  21393770.422                    21393777.973
 118453858.088 7  92301809.799 7  22541023.563                    22541034.086
 109127241.960 8  85034272.384 7  20766221.930                    20766228.379
 115019833.719 8  89625922.23545  21887547.914                    21887555.723
 127534415.706 6  99377527.479 6  24268992.672                    24269002.602
 11  8 14  1 33  0.0000000  0  9G29G04G05G02G10G25G12G30G17
 129497570.867 6 100907257.340 5  24642577.359                    24642587.762
 121681883.788 6  94817167.86944  23155272.844                    23155282.285
 108768214.014 8  84754582.434 8  20697877.430                    20697884.543
 109384548.828 7  85234846.83446  20815165.711                    20815170.715
 112480909.019 7  87647601.51945  21404388.984                    21404395.746
 118382930.552 7  92246541.629 7  22527527.063                    22527537.180
 109117382.489 7  85026589.694 8  20764345.797                    20764352.391
 114968051.883 7  89585572.80145  21877694.219                    21877702.320
 127604277.146 6  99431964.950 6  24282288.023                    24282296.813
 11  8 14  1 33 30.0000000  0  9G29G04G05G02G10G25G12G30G17
 129417949.603 5 100845214.891 5  24627426.250                    24627436.906
 121764446.211 7  94881502.21244  23170984.086                    23170992.574
 108718465.702 8  84715817.552 8  20688410.453                    20688418.102
 109406865.735 8  85252236.65146  20819412.406                    20819417.715
 112537240.438 8  87691496.14545  21415108.547                    21415115.730
 118312426.222 7  92191603.220 7  22514110.398                    22514120.754
 109108102.127 8  85019358.261 7  20762579.680                    20762586.477
 114916815.910 7  89545648.72245  21867944.375                    21867952.406
 127674324.220 6  99486547.091 6  24295618.063                    24295625.547
 11  8 14  1 34  0.0000000  0  9G29G04G05G02G10G25G12G30G17
 129338253.397 6 100783114.050 5  24612260.328                    24612271.590
 121847002.927 7  94945832.09844  23186694.758                    23186702.590
 108669243.802 8  84677462.857 8  20679043.969                    20679051.223
 109429363.273 8  85269767.20746  20823693.539                    20823698.891
 112594103.022 8  87735804.65545  21425929.141                    21425936.047
 118242347.317 7  92136996.326 7  22500774.648                    22500784.891
 109099401.478 8  85012578.553 7  20760923.805                    20760930.922
 114866127.381 7  89506151.20945  21858298.453                    21858306.391
 127744556.827 6  99541273.805 6  24308982.219                    24308990.977
 11  8 14  1 34 30.0000000  0  9G29G04G05G02G10G25G12G30G17
 129258482.644 6 100720955.121 5  24597080.195                    24597091.672
 121929553.068 7  95010156.86844  23202402.914                    23202411.086
 108620550.215 8  84639519.842 7  20669777.688                    20669784.652
 109452040.831 8  85287438.04046  20828008.906                    20828013.855
 112651494.876 8  87780525.59545  21436850.516                    21436857.531
 118172696.370 7  92082722.904 7  22487520.758                    22487530.684
 109091281.475 8  85006251.287 8  20759379.078                    20759385.602
 114815988.315 7  89467081.86445  21848757.625                    21848765.180
 127814974.947 6  99596145.079 6  24322382.289                    24322390.574
 11  8 14  1 35  0.0000000  0  9G29G04G05G02G10G25G12G30G17
 129178637.963 6 100658738.622 6  24581886.367                    24581896.449
 122012095.506 7  95074475.62644  23218110.078                    23218118.910
 108572386.370 8  84601989.595 8  20660612.328                    20660619.563
 109474897.185 8  85305248.20546  20832358.500                    20832363.523
 112709413.679 7  87825657.13645  21447872.125                    21447878.637
 118103475.740 7  92028784.800 7  22474348.508                    22474358.633
 109083742.130 8  85000376.493 7  20757944.367                    20757950.754
 114766400.320 8  89428441.92045  21839320.813                    21839329.027
 127885578.738 6  99651161.033 6  24335817.844                    24335826.234
 11  8 14  1 35 30.0000000  0  9G29G04G05G02G10G25G12G30G17
 129098719.955 6 100596464.918 6  24566678.984                    24566689.035
 122094629.040 7  95138787.43644  23233815.695                    23233824.793
 108524753.726 8  84564873.285 8  20651548.234                    20651555.367
 109497931.105 8  85323196.72146  20836741.820                    20836746.730
 112767857.125 8  87871197.49245  21458993.000                    21459000.121
 118034687.533 7  91975183.664 7  22461258.656                    22461268.523
 109076783.591 8  84994954.265 7  20756620.398                    20756626.418
 114717365.044 8  89390232.64845  21829989.539                    21829997.980
 127956367.889 6  99706321.403 5  24349288.211                    24349296.336
 11  8 14  1 36  0.0000000  0  9G29G04G05G02G10G25G12G30G17
 129018728.893 6 100534134.293 6  24551456.906                    24551467.102
 122177152.685 7  95203091.53944  23249519.516                    23249528.152
 108477653.670 8  84528171.980 8  20642585.578                    20642592.543
 109521141.192 8  85341282.50846  20841158.492                    20841163.492
 112826822.988 8  87917144.93245  21470214.008                    21470221.063
 117966334.020 7  91921921.246 7  22448251.398                    22448261.398
 109070406.621 8  84989985.212 8  20755406.422                    20755413.184
 114668884.080 8  89352455.32045  21820764.164                    21820772.461
 128027342.193 6  99761626.066 6  24362794.977                    24362802.508
 11  8 14  1 36 30.0000000  0  9G29G04G05G02G10G25G12G30G17
 128938665.815 6 100471747.539 6  24536221.250                    24536231.898
 122259665.726 6  95267387.39444  23265221.188                    23265229.895
 108431087.812 8  84491886.925 8  20633724.156                    20633731.363
 109544526.976 8  85359505.20146  20845608.508                    20845613.578
 112886309.132 8  87963497.78445  21481533.953                    21481541.000
 117898417.754 7  91868999.533 7  22435327.055                    22435337.344
 109064611.756 8  84985469.737 7  20754303.883                    20754310.402
 114620959.299 8  89315111.37145  21811644.422                    21811652.285
 128098501.784 6  99817075.122 6  24376335.883                    24376344.375
 11  8 14  1 37  0.0000000  0  9G29G04G05G02G10G25G12G30G17
 128858531.051 7 100409304.926 6  24520972.727                    24520982.410
 122342167.111 6  95331674.15944  23280921.461                    23280928.980
 108385057.582 8  84456019.247 8  20624965.063                    20624972.125
 109568087.512 7  85377864.05346  20850092.078                    20850097.074
 112946313.332 8  88010254.30945  21492952.500                    21492959.563
 117830941.066 7  91816420.359 7  22422486.594                    22422496.895
 109059399.188 8  84981408.003 7  20753312.039                    20753318.508
 114573592.490 8  89278202.20245  21802630.883                    21802638.855
 128169846.852 6  99872668.679 6  24389912.117                    24389920.746
 11  8 14  1 37 30.0000000  0  9G29G04G05G02G10G25G12G30G17
 128778325.038 7 100346806.775 6  24505709.422                    24505719.742
 122424655.732 6  95395950.95844  23296618.203                    23296626.828
 108339564.098 8  84420569.807 8  20616307.625                    20616314.539
 109591821.241 8  85396357.87346  20854608.188                    20854613.414
 113006832.776 8  88057412.32245  21504468.336                    21504475.523
 117763905.869 7  91764185.208 7  22409729.953                    22409740.113
 109054769.082 8  84977800.129 8  20752430.875                    20752437.352
 114526784.972 8  89241728.83245  21793723.469                    21793731.566
 128241377.087 6  99928406.531 6  24403523.711                    24403532.164
 11  8 14  1 38  0.0000000  0  9G29G04G05G02G10G25G12G30G17
 128698048.589 7 100284253.780 6  24490433.367                    24490443.859
 122507130.513 6  95460216.99844  23312312.992                    23312320.578
 108294609.098 8  84385539.971 8  20607753.367                    20607760.012
 109615727.169 7  85414985.87346  20859157.563                    20859162.953
 113067865.586 7  88104970.37245  21516082.727                    21516090.387
 117697314.646 7  91712296.018 7  22397058.273                    22397067.797
 109050721.940 7  84974646.511 7  20751660.289                    20751666.934
 114480538.482 8  89205692.62645  21784923.352                    21784931.156
 128313092.305 6  99984288.520 6  24417170.453                    24417178.934
 11  8 14  1 38 30.0000000  0  9G29G04G05G02G10G25G12G30G17
 128617702.257 7 100221646.311 6  24475144.023                    24475154.035
 122589590.778 7  95524471.71844  23328004.594                    23328013.293
 108250194.006 8  84350930.835 8  20599301.117                    20599308.133
 109639804.564 8  85433747.47946  20863739.250                    20863744.277
 113129409.575 8  88152926.73645  21527794.141                    21527801.445
 117631169.786 7  91660754.633 7  22384471.266                    22384480.863
 109047258.313 8  84971947.583 7  20751001.328                    20751008.121
 114434854.789 8  89170094.95045  21776229.852                    21776237.762
 128384992.653 6 100040314.813 6  24430853.266                    24430860.801
 11  8 14  1 39  0.0000000  0  9G29G04G05G02G10G25G12G30G17
 128537286.449 7 100158984.707 6  24459841.672                    24459851.156
 122672035.233 7  95588714.09544  23343693.055                    23343701.566
 108206319.876 8  84316743.234 8  20590952.313                    20590959.160
 109664052.084 8  85452641.65646  20868353.297                    20868358.473
 113191461.846 7  88201279.15645  21539602.313                    21539609.836
 117565473.193 7  91609562.554 7  22371969.492                    22371979.590
 109044378.334 8  84969703.442 8  20750453.430                    20750459.883
 114389735.198 8  89134936.83245  21767643.391                    21767651.855
 128457077.892 6 100096485.105 6  24444570.297                    24444578.695
 11  8 14  1 39 30.0000000  0  9G29G04G05G02G10G25G12G30G17
 128456801.803 7 100096269.474 6  24444525.789                    24444535.309
 122754463.258 7  95652943.70344  23359378.688                    23359387.063
 108162987.818 8  84282978.023 8  20582706.273                    20582713.555
 109688468.737 8  85471667.61946  20872999.758                    20873004.813
 113254020.321 7  88250026.02745  21551506.789                    21551513.945
 117500227.369 7  91558721.706 7  22359553.500                    22359563.270
 109042081.910 8  84967914.017 8  20750016.414                    20750023.238
 114345181.359 7  89100219.54345  21759165.813                    21759173.191
 128529348.098 6 100152799.558 6  24458322.859                    24458331.273
 11  8 14  1 40  0.0000000  0  9G29G04G05G02G10G25G12G30G17
 128376249.082 7 100033501.216 6  24429196.727                    24429206.473
 122836873.583 7  95717159.49944  23375060.406                    23375069.715
 108120199.587 8  84249636.576 8  20574564.039                    20574571.086
 109713053.489 8  85490824.56046  20877678.391                    20877683.133
 113317082.755 7  88299165.58745  21563507.094                    21563514.570
 117435434.416 7  91508233.752 7  22347223.883                    22347234.133
 109040369.485 8  84966579.664 7  20749690.789                    20749697.215
 114301194.860 7  89065944.33345  21750795.188                    21750803.035
 128601803.014 6 100209257.941 6  24472110.891                    24472119.637
 11  8 14  1 40 30.0000000  0  9G29G04G05G02G10G25G12G30G17
 128295629.029 7  99970680.493 6  24413855.242                    24413864.836
 122919265.623 7  95781361.05644  23390739.953                    23390747.945
 108077956.331 8  84216719.791 8  20566525.242                    20566532.348
 109737805.696 8  85510111.99946  20882388.445                    20882393.422
 113380646.876 7  88348696.08045  21575603.266                    21575610.582
 117371096.657 7  91458100.488 7  22334980.688                    22334991.074
 109039241.338 8  84965700.586 8  20749475.906                    20749482.402
 114257777.209 8  89032112.38945  21742533.359                    21742541.020
 128674442.647 6 100265860.216 6  24485934.133                    24485942.289
 11  8 14  1 41  0.0000000  0  9G29G04G05G02G10G25G12G30G17
 128214942.231 7  99907807.774 6  24398501.125                    24398510.645
 123001638.570 7  95845547.74144  23406414.867                    23406423.434
 108036259.583 8  84184228.844 8  20558590.836                    20558597.941
 109762724.199 8  85529529.01846  20887130.039                    20887135.262
 113444710.547 7  88398615.81745  21587794.188                    21587801.496
 117307216.466 7  91408323.752 7  22322824.648                    22322834.590
 109038697.883 8  84965277.112 8  20749372.758                    20749379.168
 114214930.083 8  88998724.98945  21734379.555                    21734387.340
 128747266.842 6 100322606.332 6  24499791.922                    24499800.375
 11  8 14  1 41 30.0000000  0  8G29G04G05G02G10G25G12G30
 128134190.361 6  99844884.363 6  24383134.695                    24383143.445
 123083992.457 6  95909719.56244  23422086.172                    23422094.820
 107995111.428 8  84152165.382 8  20550760.398                    20550767.477
 109787808.908 8  85549075.54446  20891903.586                    20891908.563
 113509272.208 7  88448923.60345  21600080.078                    21600086.977
 117243796.844 7  91358905.912 7  22310756.000                    22310766.207
 109038739.884 8  84965309.844 7  20749380.641                    20749387.238
 114172655.893 8  88965784.02345  21726335.484                    21726342.887
 11  8 14  1 42  0.0000000  0  8G29G04G05G02G10G25G12G30
 128053373.094 6  99781909.958 6  24367755.055                    24367764.594
 123166325.472 6  95973875.11944  23437753.242                    23437762.313
 107954512.008 8  84120529.501 8  20543034.570                    20543041.449
 109813057.849 8  85568750.06146  20896708.016                    20896713.086
 113574328.369 7  88499616.73245  21612459.438                    21612466.930
 117180839.048 7  91309847.911 7  22298775.727                    22298785.648
 109039366.652 8  84965798.238 7  20749499.633                    20749506.516
 114130955.017 8  88933289.80745  21718399.820                    21718407.520
 11  8 14  1 42 30.0000000  0  8G29G04G05G02G10G25G12G30
 127972490.480 6  99718884.685 6  24352363.609                    24352373.520
 123248636.184 6  96038013.29044  23453417.164                    23453425.121
 107914462.335 8  84089322.001 8  20535413.234                    20535420.445
 109838469.426 8  85588551.30646  20901543.883                    20901548.668
 113639875.780 7  88550692.65145  21624932.547                    21624940.039
 117118344.608 7  91261150.966 7  22286884.055                    22286893.426
 109040577.558 8  84966741.804 8  20749730.305                    20749736.668
 114089828.347 8  88901243.01545  21710573.688                    21710581.191
 11  8 14  1 43  0.0000000  0  8G29G04G05G02G10G25G12G30
 127891543.992 6  99655809.614 6  24336959.727                    24336970.082
 123330924.257 6  96102133.85144  23469075.734                    23469084.152
 107874963.920 8  84058544.049 8  20527896.906                    20527904.086
 109864043.527 8  85608479.19046  20906410.641                    20906415.227
 113705912.910 7  88602150.16145  21637498.742                    21637506.270
 117056316.396 7  91212817.297 7  22275080.102                    22275089.070
 109042373.756 8  84968141.443 7  20750071.805                    20750078.703
 114049278.036 8  88869645.33745  21702857.234                    21702864.660
 11  8 14  1 43 30.0000000  0  8G29G04G05G02G10G25G12G30
 127810533.816 6  99592684.918 6  24321544.211                    24321553.797
 123413188.333 6  96166235.67143  23484729.711                    23484739.027
 107836016.912 8  84028195.766 8  20520485.539                    20520492.672
 109889778.052 8  85628532.08846  20911307.531                    20911312.258
 113772437.044 7  88653987.15045  21650158.180                    21650165.758
 116994755.921 8  91164848.093 7  22263365.242                    22263375.078
 109044754.217 8  84969996.350 7  20750524.711                    20750531.641
 114009304.704 8  88838497.25845  21695250.438                    21695258.266
 11  8 14  1 44  0.0000000  0  8G29G04G05G02G10G25G12G30
 127729460.752 6  99529511.189 6  24306115.648                    24306125.914
 123495428.082 6  96230318.56144  23500379.852                    23500388.551
 107797623.182 8  83998278.608 8  20513179.555                    20513186.699
 109915672.699 8  85648709.75846  20916234.992                    20916240.027
 113839445.860 7  88706201.81245  21662909.453                    21662916.668
 116933665.613 8  91117245.242 7  22251740.617                    22251750.148
 109047719.367 8  84972306.865 8  20751089.516                    20751096.133
 113969910.175 8  88807800.21445  21687754.172                    21687762.016
 11  8 14  1 44 30.0000000  0  8G29G04G05G02G10G25G12G30
 127648325.779 6  99466289.250 6  24290676.945                    24290686.633
 123577642.629 7  96294381.80644  23516024.453                    23516033.332
 107759784.069 8  83968793.618 8  20505979.016                    20505985.918
 109941726.807 8  85669011.69046  20921192.906                    20921197.684
 113906936.875 7  88758792.22545  21675752.938                    21675759.777
 116873047.816 8  91070010.562 7  22240205.320                    22240214.645
 109051269.622 8  84975073.315 8  20751764.523                    20751771.371
 113931095.902 7  88777555.32645  21680367.516                    21680375.641
 11  8 14  1 45  0.0000000  0  8G29G04G05G02G10G25G12G30
 127567129.691 6  99403019.642 6  24275225.750                    24275235.391
 123659830.952 6  96358424.62644  23531665.281                    23531673.250
 107722500.687 8  83939741.661 8  20498884.172                    20498891.191
 109967939.358 8  85689437.08446  20926181.195                    20926185.965
 113974907.653 7  88811756.48445  21688687.477                    21688694.434
 116812904.617 8  91023145.701 7  22228760.438                    22228770.043
 109055404.806 8  84978295.542 7  20752551.711                    20752558.215
 113892863.291 7  88747763.69745  21673092.789                    21673100.320
 11  8 14  1 45 30.0000000  0  8G29G04G05G02G10G25G12G30
 127485872.684 6  99339702.551 6  24259763.125                    24259772.164
 123741992.165 6  96422446.35943  23547299.688                    23547307.695
 107685773.156 8  83911122.841 8  20491894.852                    20491902.039
 109994308.491 8  85709984.48646  20931199.258                    20931204.074
 114043355.180 7  88865092.22545  21701712.422                    21701719.305
 116753237.550 8  90976651.844 7  22217406.219                    22217416.016
 109060124.630 8  84981973.342 7  20753449.531                    20753456.633
 113855212.981 7  88718425.82945  21665927.984                    21665935.590
 11  8 14  1 46  0.0000000  0  8G29G04G05G02G10G25G12G30
 127404555.824 6  99276338.806 6  24244288.781                    24244297.977
 123824125.703 6  96486446.50643  23562928.766                    23562937.684
 107649603.230 8  83882938.512 8  20485011.711                    20485019.059
 110020834.097 8  85730653.82046  20936246.352                    20936251.668
 114112277.393 7  88918797.86245  21714827.516                    21714835.008
 116694049.196 8  90930531.010 7  22206142.719                    22206152.992
 109065429.074 8  84986106.672 7  20754459.086                    20754465.719
 113818146.729 7  88689543.07045  21658874.414                    21658882.066
 11  8 14  1 46 30.0000000  0  8G29G04G05G02G10G25G12G30
 127323179.819 6  99212928.988 6  24228803.313                    24228812.637
 123906230.617 6  96550424.34043  23578553.203                    23578561.574
 107613991.886 8  83855189.447 8  20478235.547                    20478242.641
 110047514.960 8  85751444.13046  20941323.641                    20941328.668
 114181671.477 8  88972871.18345  21728032.977                    21728040.020
 116635341.317 8  90884784.581 7  22194971.344                    22194981.000
 109071317.945 8  84990695.406 7  20755579.914                    20755586.270
 113781665.620 7  88661116.27445  21651932.086                    21651939.879
 11  8 14  1 47  0.0000000  0  8G29G04G05G02G10G25G12G30
 127241745.183 6  99149473.486 6  24213306.578                    24213316.969
 123988306.169 6  96614379.32443  23594171.539                    23594179.871
 107578939.987 8  83827876.318 8  20471565.227                    20471572.465
 110074350.055 8  85772354.62546  20946430.281                    20946435.500
 114251535.006 7  89027310.30245  21741327.641                    21741334.711
 116577115.993 8  90839414.181 7  22183891.344                    22183901.281
 109077790.879 8  84995739.258 7  20756811.531                    20756818.273
 113745770.769 7  88633146.31645  21645101.477                    21645109.066
 11  8 14  1 47 30.0000000  0  8G29G04G05G02G10G25G12G30
 127160252.917 6  99085973.017 6  24197799.086                    24197808.957
 124070351.263 6  96678310.54143  23609784.164                    23609792.563
 107544448.375 8  83800999.763 8  20465001.672                    20465008.813
 110101338.118 8  85793384.31046  20951565.805                    20951570.500
 114321865.029 7  89082112.91845  21754710.750                    21754718.328
 116519375.064 8  90794421.239 7  22172903.883                    22172913.543
 109084847.709 8  85001238.097 7  20758154.383                    20758161.371
 113710463.163 7  88605633.94745  21638382.805                    21638390.246
 11  8 14  1 48  0.0000000  0  8G29G04G05G02G10G25G12G30
 127078704.256 7  99022428.641 6  24182281.453                    24182290.836
 124152365.695 7  96742217.90843  23625391.773                    23625399.406
 107510518.296 8  83774560.775 8  20458544.977                    20458552.023
 110128479.155 8  85814533.18746  20956730.867                    20956735.477
 114392659.922 7  89137277.77645  21768182.445                    21768190.031
 116462121.163 8  90749807.817 7  22162008.359                    22162018.488
 109092488.900 8  85007192.269 7  20759608.516                    20759615.090
 113675744.639 7  88578580.61245  21631776.133                    21631783.133
 11  8 14  1 48 30.0000000  0  8G29G04G05G02G10G25G12G30
 126997099.330 7  98958840.437 6  24166751.930                    24166761.559
 124234348.211 7  96806100.37343  23640991.602                    23641000.379
 107477150.152 7  83748559.651 8  20452195.133                    20452202.645
 110155771.264 8  85835799.79246  20961924.047                    20961929.047
 114463916.224 7  89192802.17545  21781742.305                    21781749.523
 116405355.548 8  90705574.893 7  22151206.164                    22151216.387
 109100713.536 8  85013601.084 7  20761173.406                    20761180.500
 113641615.566 7  88551986.58745  21625281.297                    21625288.664
 11  8 14  1 49  0.0000000  0  8G29G04G05G02G10G25G12G30
 126915439.494 6  98895209.417 6  24151212.797                    24151223.047
 124316298.621 7  96869957.86943  23656586.688                    23656594.875
 107444345.425 8  83722997.560 8  20445952.758                    20445959.801
 110183214.355 8  85857184.04446  20967146.328                    20967150.969
 114535631.792 7  89248684.44845  21795389.016                    21795396.039
 116349080.817 8  90661724.484 7  22140497.523                    22140507.512
 109109522.308 8  85020465.066 7  20762849.641                    20762856.574
 113608077.754 8  88525853.28545  21618899.195                    21618906.938
 11  8 14  1 49 30.0000000  0  8G29G04G05G02G10G25G12G30
 126833724.594 6  98831535.500 6  24135663.156                    24135672.805
 124398215.428 7  96933789.16043  23672175.375                    23672183.398
 107412104.221 8  83697874.571 8  20439817.438                    20439824.332
 110210806.256 8  85878684.25546  20972396.875                    20972402.004
 114607803.193 7  89304921.90645  21809122.828                    21809130.117
 116293297.996 8  90618257.401 7  22129882.266                    22129892.141
 109118913.752 8  85027783.084 7  20764636.906                    20764643.758
 113575131.235 7  88500180.72745  21612629.523                    21612637.039
 11  8 14  1 50  0.0000000  0  8G29G04G05G02G10G25G12G30
 126751956.094 6  98767819.832 6  24120103.156                    24120113.004
 124480098.418 7  96997594.09844  23687756.133                    23687764.883
 107380427.719 8  83673191.604 8  20433789.359                    20433796.625
 110238546.800 8  85900300.29246  20977675.945                    20977680.652
 114680428.665 7  89361513.19045  21822942.883                    21822950.422
 116238009.489 8  90575175.491 7  22119361.414                    22119371.355
 109128887.760 8  85035555.043 8  20766535.063                    20766541.512
 113542777.680 7  88474970.21545  21606472.695                    21606480.953
 11  8 14  1 50 30.0000000  0  8G29G04G05G02G10G25G12G30
 126670135.072 6  98704063.213 6  24104532.813                    24104542.488
 124561946.979 7  97061372.18144  23703331.500                    23703339.797
 107349317.033 8  83648949.546 8  20427869.469                    20427876.453
 110266435.450 8  85922031.72746  20982982.766                    20982987.559
 114753505.625 7  89418456.25845  21836849.313                    21836856.422
 116183217.657 8  90532480.625 7  22108934.789                    22108944.715
 109139444.649 8  85043781.193 8  20768544.016                    20768550.379
 113511018.546 8  88450222.89445  21600429.039                    21600437.242
 11  8 14  1 51  0.0000000  0  8G29G04G05G02G10G25G12G30
 126588262.124 6  98640266.186 6  24088952.703                    24088962.852
 124643760.115 7  97125122.66843  23718900.180                    23718908.445
 107318772.465 8  83625148.615 8  20422057.070                    20422064.340
 110294470.714 8  85943877.40446  20988317.938                    20988322.594
 114827031.372 7  89475749.05845  21850840.930                    21850848.320
 116128923.882 8  90490173.856 7  22098603.008                    22098612.809
 109150583.629 8  85052460.922 7  20770663.266                    20770669.992
 113479854.269 7  88425939.08045  21594499.320                    21594506.953
 11  8 14  1 51 30.0000000  0  8G29G04G05G02G10G25G12G30
 126506337.968 6  98576429.218 6  24073363.703                    24073373.172
 124725537.234 7  97188845.09743  23734461.508                    23734470.461
 107288795.056 8  83601789.629 8  20416352.352                    20416359.043
 110322651.843 8  85965836.74546  20993680.422                    20993685.551
 114901003.285 7  89533389.51445  21864916.719                    21864924.277
 116075130.211 8  90448256.788 7  22088366.414                    22088376.348
 109162304.534 8  85061594.091 7  20772893.930                    20772900.578
 113449285.930 7  88402119.64045  21588681.953                    21588689.645
 11  8 14  1 52  0.0000000  0  8G29G04G05G02G10G25G12G30
 126424363.719 6  98512553.238 6  24057763.688                    24057773.406
 124807277.869 7  97252539.10344  23750016.039                    23750025.219
 107259385.718 7  83578873.283 8  20410755.797                    20410762.875
 110350978.349 7  85987909.35746  20999070.977                    20999075.223
 114975418.539 7  89591375.42345  21879077.805                    21879085.160
 116021838.717 8  90406731.018 7  22078225.375                    22078235.152
 109174606.905 8  85071180.351 7  20775235.164                    20775241.512
 113419314.765 7  88378765.51346  21582978.805                    21582986.695
 11  8 14  1 52 30.0000000  0  8G29G04G05G02G10G25G12G30
 126342339.802 6  98448638.575 6  24042154.922                    24042164.895
 124888980.937 6  97316203.82443  23765564.234                    23765572.953
 107230544.547 8  83556399.675 8  20405267.680                    20405274.652
 110379448.486 8  86010093.90146  21004488.547                    21004493.328
 115050273.898 7  89649704.25545  21893322.266                    21893329.574
 115969050.533 8  90365597.435 7  22068179.797                    22068189.598
 109187489.847 8  85081219.014 7  20777686.461                    20777693.137
 113389941.016 7  88355876.91446  21577389.234                    21577397.047
 11  8 14  1 53  0.0000000  0  8G29G04G05G02G10G25G12G30
 126260267.636 6  98384686.300 6  24026537.180                    24026547.234
 124970646.019 7  97379838.94044  23781104.602                    23781113.117
 107202273.002 8  83534369.930 8  20399887.891                    20399894.461
 110408062.240 8  86032390.35546  21009933.219                    21009938.344
 115125567.290 7  89708374.42745  21907650.227                    21907657.734
 115916768.322 8  90324858.125 7  22058230.859                    22058241.242
 109200953.540 8  85091710.204 7  20780248.734                    20780255.465
 113361166.315 8  88333455.08945  21571913.266                    21571921.031
 11  8 14  1 53 30.0000000  0  8G29G04G05G02G10G25G12G30
 126178148.374 6  98320697.315 6  24010910.438                    24010920.020
 125052272.743 6  97443444.18943  23796637.766                    23796646.598
 107174571.422 7  83512784.319 8  20394616.289                    20394622.965
 110436818.928 7  86054798.17746  21015405.602                    21015410.398
 115201296.258 7  89767384.00845  21922061.133                    21922068.637
 115864993.842 8  90284514.436 7  22048378.719                    22048388.473
 109214997.925 8  85102653.895 7  20782920.938                    20782927.785
 113332991.592 7  88311500.77246  21566552.266                    21566559.223
 11  8 14  1 54  0.0000000  0  8G29G04G05G02G10G25G12G30
 126095982.285 6  98256671.851 6  23995274.594                    23995284.313
 125133860.095 7  97507018.75243  23812162.953                    23812171.543
 107147440.291 8  83491643.217 8  20389453.500                    20389460.227
 110465717.062 8  86077316.20846  21020904.961                    21020909.539
 115277457.763 7  89826730.62745  21936553.844                    21936561.336
 115813728.505 8  90244567.478 7  22038623.227                    22038633.191
 109229621.843 8  85114049.158 8  20785703.789                    20785710.770
 113305417.315 7  88290014.33546  21561304.461                    21561312.430
 11  8 14  1 54 30.0000000  0  8G29G04G05G02G10G25G12G30
 126013770.395 6  98192610.700 6  23979631.117                    23979639.828
 125215407.421 6  97570562.13543  23827680.617                    23827689.582
 107120880.173 8  83470947.050 8  20384399.250                    20384405.688
 110494755.757 8  86099943.76346  21026430.773                    21026435.672
 115354049.124 7  89886412.19245  21951128.914                    21951136.371
 115762974.081 8  90205018.625 7  22028964.633                    22028974.527
 109244824.498 8  85125895.390 7  20788597.023                    20788603.809
 113278444.195 8  88268996.33646  21556171.945                    21556179.828
 11  8 14  1 55  0.0000000  0  8G29G04G05G02G10G25G12G30
 125931513.644 6  98128514.595 6  23963977.227                    23963986.980
 125296914.197 7  97634073.89543  23843191.141                    23843200.016
 107094891.868 8  83450696.457 8  20379453.523                    20379460.086
 110523934.175 8  86122680.20646  21031983.297                    21031987.910
 115431067.766 7  89946426.71645  21965784.898                    21965792.227
 115712732.432 8  90165869.344 7  22019403.773                    22019413.785
 109260605.291 8  85138192.127 8  20791599.945                    20791606.313
 113252073.300 8  88248447.59946  21551153.578                    21551161.133
 11  8 14  1 55 30.0000000  0  8G29G04G05G02G10G25G12G30
 125849213.062 6  98064384.341 6  23948316.516                    23948325.680
 125378379.838 6  97697553.65343  23858693.188                    23858702.254
 107069475.675 8  83430891.665 8  20374617.094                    20374624.059
 110553251.663 8  86145525.00846  21037562.398                    21037566.652
 115508511.146 7  90006772.18845  21980522.117                    21980529.645
 115663005.303 8  90127120.970 7  22009941.156                    22009950.988
 109276964.022 8  85150939.196 8  20794712.867                    20794719.609
 113226305.319 8  88228368.67846  21546249.969                    21546257.656
 11  8 14  1 56  0.0000000  0  8G29G04G05G02G10G25G12G30
 125766869.457 6  98000220.557 6  23932646.688                    23932655.637
 125459803.349 6  97761000.52544  23874188.250                    23874197.148
 107044631.945 8  83411532.950 8  20369889.406                    20369895.801
 110582706.827 8  86168477.09146  21043167.234                    21043171.977
 115586376.016 7  90067446.09345  21995339.320                    21995347.098
 115613794.018 8  90088774.565 7  22000576.773                    22000586.598
 109293899.596 8  85164135.761 7  20797935.789                    20797942.355
 113201140.496 8  88208759.73346  21541461.570                    21541468.816
 11  8 14  1 56 30.0000000  0  8G29G04G05G02G10G25G12G30
 125684483.796 6  97936024.017 6  23916969.328                    23916977.926
 125541184.322 6  97824414.27643  23889674.164                    23889683.066
 107020361.551 8  83392620.983 8  20365270.844                    20365277.402
 110612299.295 8  86191536.15446  21048798.719                    21048802.961
 115664659.975 7  90128446.57545  22010235.977                    22010244.027
 115565100.594 8  90050831.679 7  21991310.305                    21991320.477
 109311412.053 8  85177781.837 7  20801268.383                    20801274.910
 113176579.960 8  88189621.67246  21536787.727                    21536795.414
 11  8 14  1 57  0.0000000  0  8G29G04G05G02G10G25G12G30
 125602056.733 7  97871795.228 6  23901284.148                    23901292.996
 125622521.907 7  97887794.20643  23905152.688                    23905160.480
 106996664.566 8  83374155.836 8  20360761.375                    20360768.199
 110642027.787 8  86214701.22546  21054455.750                    21054460.410
 115743359.506 7  90189770.88145  22025212.609                    22025220.004
 115516926.427 8  90013293.405 7  21982143.469                    21982152.996
 109329500.452 8  85191876.701 7  20804710.125                    20804716.992
 113152624.119 8  88170954.79446  21532229.336                    21532236.652
 11  8 14  1 57 30.0000000  0  8G29G04G05G02G10G25G12G30
 125519589.521 7  97807535.174 6  23885590.672                    23885599.531
 125703815.845 6  97951140.15943  23920622.203                    23920630.508
 106973541.667 8  83356138.027 8  20356361.305                    20356368.156
 110671891.696 8  86237971.80946  21060138.508                    21060143.363
 115822472.227 7  90251417.14145  22040266.945                    22040274.113
 115469273.447 8  89976161.253 7  21973075.367                    21973084.875
 109348163.859 8  85206419.625 7  20808261.555                    20808268.715
 113129273.878 8  88152759.82446  21527785.883                    21527793.066
 11  8 14  1 58  0.0000000  0  8G29G04G05G02G10G25G12G30
 125437083.292 7  97743244.727 6  23869890.047                    23869899.297
 125785065.312 6  98014451.42644  23936083.289                    23936092.090
 106950993.206 8  83338567.828 8  20352070.469                    20352077.699
 110701890.114 8  86261347.20746  21065847.164                    21065852.137
 115901995.453 7  90313383.29145  22055399.656                    22055407.125
 115422143.109 8  89939436.359 7  21964106.586                    21964116.348
 109367401.443 8  85221409.957 7  20811922.516                    20811929.230
 113106529.688 8  88135037.09246  21523457.508                    21523465.195
 11  8 14  1 58 30.0000000  0  8G29G04G05G02G10G25G12G30
 125354539.211 7  97678924.788 6  23854182.695                    23854191.281
 125866270.371 6  98077728.08243  23951536.266                    23951544.559
 106929020.028 8  83321445.905 8  20347888.875                    20347895.754
 110732022.906 8  86284827.30646  21071581.414                    21071585.922
 115981926.865 7  90375667.50145  22070610.055                    22070617.371
 115375537.583 8  89903120.394 7  21955237.664                    21955247.523
 109387212.842 8  85236847.424 7  20815692.516                    20815699.078
 113084392.639 7  88117787.46446  21519245.461                    21519252.801
 11  8 14  1 59  0.0000000  0  8G29G04G05G02G10G25G12G30
 125271957.666 6  97614575.649 6  23838467.352                    23838476.008
 125947430.003 7  98140969.36343  23966980.969                    23966988.691
 106907622.115 8  83304772.232 8  20343817.352                    20343824.039
 110762288.726 8  86308411.07246  21077340.492                    21077345.512
 116062263.187 7  90438267.21945  22085898.055                    22085905.055
 115329458.059 8  89867214.299 7  21946469.227                    21946478.789
 109407597.458 8  85252731.547 7  20819571.570                    20819578.125
 113062862.923 8  88101011.09146  21515148.016                    21515155.613
 11  8 14  1 59 30.0000000  0  8G29G04G05G02G10G25G12G30
 125189339.956 6  97550198.354 6  23822746.094                    23822755.227
 126028543.807 7  98204174.92243  23982415.797                    23982424.555
 106886799.677 8  83288546.981 8  20339854.961                    20339861.004
 110792686.599 8  86332097.73246  21083125.016                    21083129.770
 116143002.117 7  90501180.67545  22101262.063                    22101268.859
 115283906.049 8  89831719.249 7  21937800.625                    21937810.492
 109428553.874 8  85269061.222 7  20823559.172                    20823566.090
 113041941.070 7  88084708.36146  21511166.563                    21511174.555
 11  8 14  2  0  0.0000000  0  8G29G04G05G02G10G25G12G30
 125106687.468 6  97485793.948 6  23807017.789                    23807026.555
 126109611.426 7  98267344.49043  23997842.398                    23997851.094
 106866553.861 8  83272771.042 8  20336002.188                    20336008.758
 110823216.597 8  86355887.34846  21088934.531                    21088939.258
 116224140.989 7  90564405.77645  22116701.711                    22116708.809
 115238883.627 8  89796636.876 7  21929233.586                    21929242.770
 109450081.963 8  85285836.365 7  20827656.141                    20827662.383
 113021628.159 7  88068880.14246  21507300.992                    21507308.457
 11  8 14  2  0 30.0000000  0  8G29G04G05G02G10G25G12G30
 125024000.973 6  97421363.045 6  23791282.773                    23791291.328
 126190632.158 7  98330477.55243  24013260.438                    24013268.461
 106846884.304 8  83257444.140 8  20332258.805                    20332265.668
 110853877.438 8  86379778.92546  21094769.141                    21094773.969
 116305676.643 7  90627940.05145  22132218.102                    22132224.902
 115194392.039 8  89761968.128 7  21920766.875                    21920776.582
 109472180.725 8  85303056.180 7  20831861.516                    20831867.891
 113001924.172 8  88053526.39045  21503551.859                    21503559.242
 11  8 14  2  1  0.0000000  0  8G29G04G05G02G10G25G12G30
 124941281.581 6  97356906.515 6  23775541.383                    23775551.078
 126271605.431 6  98393573.68343  24028669.336                    24028677.941
 106827791.584 8  83242566.720 8  20328626.109                    20328632.641
 110884668.139 8  86403771.68846  21100628.727                    21100633.367
 116387606.475 7  90691781.48445  22147808.617                    22147815.852
 115150432.791 8  89727714.193 7  21912401.766                    21912411.266
 109494849.221 8  85320719.954 7  20836174.984                    20836181.422
 112982829.786 8  88038647.67946  21499917.773                    21499925.535
 11  8 14  2  1 30.0000000  0  8G29G04G05G02G10G25G12G30
 124858530.053 7  97292424.936 6  23759794.648                    23759803.500
 126352531.127 6  98456632.67443  24044068.656                    24044077.477
 106809276.086 8  83228139.090 8  20325102.609                    20325109.203
 110915588.528 8  86427865.50946  21106512.672                    21106517.598
 116469927.825 7  90755927.99945  22163473.664                    22163481.039
 115107007.694 8  89693876.474 7  21904138.391                    21904147.617
 109518086.780 8  85338827.146 7  20840596.750                    20840603.629
 112964345.571 7  88024244.38846  21496400.344                    21496408.164
 11  8 14  2  2  0.0000000  0  8G29G04G05G02G10G25G12G30
 124775747.148 7  97227918.884 6  23744041.297                    23744050.137
 126433407.544 6  98519653.27743  24059458.094                    24059467.156
 106791336.931 8  83214160.552 8  20321688.313                    20321695.250
 110946636.275 8  86452058.56746  21112420.781                    21112425.066
 116552636.526 7  90820376.35045  22179212.688                    22179220.055
 115064117.077 8  89660455.232 7  21895976.023                    21895985.695
 109541891.579 8  85357376.346 7  20845127.016                    20845133.391
 112946470.803 7  88010316.00846  21492999.281                    21493006.707
 11  8 14  2  2 30.0000000  0  8G29G04G05G02G10G25G12G30
 124692934.356 7  97163389.531 6  23728282.633                    23728291.551
 126514234.980 6  98582635.69443  24074839.938                    24074848.523
 106773974.879 8  83200631.709 8  20318384.602                    20318391.648
 110977811.561 8  86476351.00846  21118353.297                    21118358.004
 116635730.818 7  90885125.16345  22195024.953                    22195032.188
 115021763.022 8  89627452.102 7  21887916.570                    21887926.164
 109566263.018 8  85376367.075 7  20849764.547                    20849771.594
 112929206.642 8  87996863.41646  21489714.086                    21489721.543
 11  8 14  2  3  0.0000000  0  8G29G04G05G02G10G25G12G30
 124610092.856 7  97098837.806 6  23712517.672                    23712527.145
 126595012.732 6  98645579.42343  24090211.492                    24090219.695
 106757190.302 8  83187552.833 8  20315190.445                    20315197.418
 111009113.547 8  86500742.19446  21124309.367                    21124314.391
 116719207.912 7  90950172.25145  22210910.094                    22210917.645
 114979947.179 8  89594868.345 7  21879958.883                    21879968.723
 109591200.310 8  85395798.733 7  20854509.828                    20854516.266
 112912553.490 8  87983886.93346  21486545.555                    21486552.578
 11  8 14  2  3 30.0000000  0  8G29G04G05G02G10G25G12G30
 124527223.943 7  97034264.698 6  23696748.758                    23696757.676
 126675740.891 6  98708484.52443  24105573.203                    24105581.730
 106740983.530 8  83174924.213 8  20312106.711                    20312113.551
 111040542.176 8  86525232.05246  21130290.211                    21130295.117
 116803065.052 7  91015515.48745  22226867.367                    22226874.387
 114938671.142 8  89562705.215 7  21872104.789                    21872114.191
 109616702.762 8  85415670.782 7  20859362.898                    20859369.613
 112896511.947 8  87971387.02846  21483492.469                    21483500.473
 11  8 14  2  4  0.0000000  0  8G29G04G05G02G10G25G12G30
 124444328.360 7  96969670.796 6  23680974.422                    23680983.078
 126756418.798 6  98771350.40543  24120926.133                    24120934.484
 106725354.517 8  83162745.789 8  20309132.297                    20309139.473
 111072096.380 8  86549819.76646  21136294.641                    21136299.793
 116887299.123 7  91081152.42345  22242896.555                    22242904.348
 114897936.075 8  89530963.626 7  21864352.805                    21864362.277
 109642768.952 8  85435982.097 7  20864323.266                    20864329.555
 112881081.974 8  87959363.66446  21480556.500                    21480563.414
 11  8 14  2  4 30.0000000  0  8G29G04G05G02G10G25G12G30
 124361407.092 7  96905056.885 6  23665195.164                    23665203.871
 126837045.570 6  98834176.49143  24136268.883                    24136277.461
 106710303.272 8  83151017.574 8  20306268.336                    20306274.824
 111103775.036 8  86574504.44946  21142323.164                    21142327.906
 116971907.257 7  91147080.84944  22258997.602                    22259004.230
 114857743.368 8  89499644.647 7  21856704.523                    21856714.160
 109669398.141 8  85456732.123 7  20869390.813                    20869397.395
 112866263.885 8  87947817.10146  21477736.672                    21477743.965
 11  8 14  2  5  0.0000000  0  8G29G04G05G02G10G25G12G30
 124278461.863 7  96840424.275 6  23649410.602                    23649419.570
 126917621.037 7  98896962.60143  24151601.805                    24151609.766
 106695829.954 8  83139739.691 8  20303514.172                    20303521.066
 111135577.811 8  86599285.84646  21148375.039                    21148379.551
 117056886.964 7  91213298.80145  22275168.258                    22275175.523
 114818094.376 8  89468749.358 7  21849159.523                    21849169.090
 109696589.125 8  85477919.898 7  20874564.672                    20874571.195
 112852057.936 8  87936747.53046  21475033.000                    21475040.934
 11  8 14  2  5 30.0000000  0  8G29G04G05G02G10G25G12G30
 124195493.241 7  96775773.444 6  23633622.500                    23633630.949
 126998144.632 6  98959708.26743  24166924.922                    24166933.242
 106681934.453 8  83128912.057 8  20300870.109                    20300876.316
 111167503.657 8  86624163.15646  21154450.414                    21154454.586
 117142235.336 7  91279804.01745  22291409.289                    22291417.148
 114778990.420 8  89438278.755 7  21841718.000                    21841727.910
 109724340.597 8  85499544.434 7  20879845.914                    20879852.500
 112838464.389 8  87926155.15546  21472446.188                    21472453.938
 11  8 14  2  6  0.0000000  0  8G29G04G05G02G10G25G12G30
 124112502.416 7  96711105.320 6  23617829.813                    23617838.680
 127078616.036 6  99022413.29143  24182237.719                    24182246.012
 106668616.926 8  83118534.799 8  20298335.516                    20298342.324
 111199551.901 8  86649135.82746  21160548.805                    21160553.691
 117227949.404 7  91346594.19245  22307720.711                    22307727.840
 114740432.712 8  89408233.807 7  21834380.922                    21834391.129
 109752651.512 8  85521604.884 7  20885233.258                    20885239.910
 112825483.297 7  87916040.02846  21469976.164                    21469983.270
 11  8 14  2  6 30.0000000  0  8G29G04G05G02G10G25G12G30
 124029490.668 7  96646420.867 6  23602032.945                    23602041.449
 127159034.611 6  99085077.15543  24197540.586                    24197549.313
 106655877.260 8  83108607.818 8  20295910.961                    20295918.289
 111231721.699 8  86674203.22946  21166670.453                    21166675.090
 117314025.991 7  91413666.86345  22324100.078                    22324107.371
 114702422.462 8  89378615.452 7  21827148.148                    21827157.398
 109781520.575 8  85544100.272 7  20890726.742                    20890733.426
 112813114.698 8  87906402.16746  21467622.258                    21467629.563
 11  8 14  2  7  0.0000000  0  8G29G04G05G02G10G25G12G30
 123946459.187 7  96581721.058 6  23586233.016                    23586241.688
 127239400.140 6  99147699.66643  24212834.063                    24212842.359
 106643715.158 8  83099130.885 8  20293596.961                    20293603.664
 111264012.620 8  86699365.00246  21172814.977                    21172819.496
 117400462.423 7  91481019.92445  22340548.281                    22340555.633
 114664961.125 8  89349424.820 7  21820018.953                    21820028.785
 109810946.785 8  85567029.793 7  20896326.109                    20896332.859
 112801358.926 8  87897241.83246  21465385.422                    21465392.645
 11  8 14  2  7 30.0000000  0  8G29G04G05G02G10G25G12G30
 123863409.204 7  96517006.827 6  23570428.922                    23570437.438
 127319712.227 6  99210280.51643  24228116.859                    24228125.629
 106632131.168 8  83090104.437 8  20291392.625                    20291399.223
 111296424.248 7  86724620.83646  21178983.188                    21178987.703
 117487256.002 7  91548651.26444  22357065.102                    22357071.840
 114628050.013 8  89320662.927 7  21812995.250                    21813005.293
 109840929.449 7  85590392.907 7  20902031.555                    20902038.387
 112790216.172 8  87888559.19046  21463264.938                    21463272.066
 11  8 14  2  8  0.0000000  0  8G29G04G05G02G10G25G12G30
 123780341.935 7  96452279.120 6  23554621.875                    23554630.203
 127399970.501 6  99272819.42643  24243389.922                    24243397.984
 106621124.955 8  83081528.200 8  20289297.984                    20289304.859
 111328955.529 8  86749969.90446  21185173.219                    21185178.023
 117574403.797 7  91616558.61845  22373648.391                    22373655.445
 114591690.246 8  89292330.666 7  21806076.602                    21806086.109
 109871466.635 8  85614188.128 7  20907842.969                    20907849.559
 112779686.450 8  87880354.23046  21461261.039                    21461268.859
 11  8 14  2  8 30.0000000  0  8G29G04G05G02G10G25G12G30
 123697258.322 7  96387538.709 6  23538811.258                    23538819.992
 127480174.318 6  99335315.89643  24258651.383                    24258660.293
 106610696.231 8  83073401.958 8  20287313.594                    20287320.746
 111361605.592 8  86775411.53246  21191386.461                    21191391.430
 117661902.971 7  91684739.78945  22390299.094                    22390306.426
 114555882.888 8  89264428.844 7  21799262.547                    21799271.750
 109902557.246 8  85638414.575 7  20913759.156                    20913765.938
 112769769.616 8  87872626.85545  21459373.914                    21459381.258
 11  8 14  2  9  0.0000000  0  8G29G04G05G02G10G25G12G30
 123614159.436 7  96322786.388 6  23522997.766                    23523006.523
 127560323.185 6  99397769.54543  24273902.422                    24273912.258
 106600844.804 8  83065725.556 8  20285438.516                    20285445.488
 111394373.624 7  86800945.08246  21197621.484                    21197626.895
 117749750.227 7  91753192.17644  22407015.555                    22407023.305
 114520629.009 8  89236958.317 7  21792553.844                    21792563.395
 109934200.185 7  85663071.423 7  20919780.781                    20919787.117
 112760465.560 7  87865376.97645  21457603.430                    21457610.969
 11  8 14  2  9 30.0000000  0  8G29G04G05G02G10G25G12G30
 123531046.774 7  96258023.339 6  23507182.336                    23507191.066
 127640417.206 6  99460180.45643  24289144.750                    24289153.367
 106591570.844 8  83058499.124 8  20283673.875                    20283681.094
 111427259.597 8  86826570.54046  21203879.828                    21203885.270
 117837943.118 7  91821913.89844  22423797.852                    22423805.723
 114485930.057 8  89209920.197 7  21785950.758                    21785960.297
 109966394.083 8  85688157.572 7  20925906.797                    20925913.402
 112751774.493 8  87858604.75246  21455949.492                    21455957.188
 11  8 14  2 10  0.0000000  0  9G29G04G05G26G02G10G25G12G30
 123447921.806 7  96193250.697 6  23491363.711                    23491372.391
 127720455.901 6  99522548.27543  24304376.086                    24304384.191
 106582874.363 8  83051722.685 8  20282019.313                    20282026.121
 130458917.26816 101656341.72453  24825508.734                    24825517.328
 111460262.730 8  86852287.28446  21210159.656                    21210164.203
 117926478.922 7  91890902.82444  22440646.008                    22440653.484
 114451787.312 8  89183315.487 7  21779453.227                    21779462.980
 109999137.756 8  85713672.131 7  20932137.992                    20932144.922
 112743696.652 8  87852310.35946  21454412.281                    21454420.012
 11  8 14  2 10 30.0000000  0  9G29G04G05G26G02G10G25G12G30
 123364785.497 7  96128469.224 6  23475543.734                    23475552.215
 127800438.675 6  99584872.50244  24319595.781                    24319604.727
 106574754.503 8  83045395.542 8  20280473.922                    20280480.727
 130366061.576 6 101583986.75043  24807839.000                    24807847.941
 111493382.019 8  86878094.54146  21216462.328                    21216467.488
 118015354.509 7  91960156.49644  22457558.953                    22457565.949
 114418201.552 8  89157144.793 7  21773062.750                    21773072.039
 110032429.530 8  85739613.774 7  20938473.055                    20938479.563
 112736231.511 8  87846493.39546  21452992.086                    21452999.355
 11  8 14  2 11  0.0000000  0  9G29G04G05G26G02G10G25G12G30
 123281639.241 6  96063680.018 6  23459721.164                    23459729.738
 127880365.513 7  99647153.16343  24334805.547                    24334814.660
 106567211.553 8  83039517.953 8  20279038.500                    20279045.285
 130273075.792 6 101511530.41743  24790144.086                    24790153.285
 111526617.248 8  86903992.13846  21222787.094                    21222791.973
 118104567.376 7  92029672.99244  22474535.453                    22474542.680
 114385174.139 8  89131409.182 7  21766777.719                    21766787.102
 110066268.344 8  85765981.681 7  20944912.109                    20944919.172
 112729379.317 7  87841154.06546  21451687.734                    21451695.340
 11  8 14  2 11 30.0000000  0  9G29G04G05G26G02G10G25G12G30
 123198484.135 6  95998883.912 6  23443896.828                    23443905.672
 127960235.763 6  99709389.77143  24350004.750                    24350013.016
 106560245.129 8  83034089.592 8  20277712.953                    20277719.832
 130179962.889 6 101438974.99143  24772425.320                    24772434.852
 111559967.439 7  86929979.32946  21229133.188                    21229138.078
 118194114.041 7  92099449.60145  22491575.945                    22491582.789
 114352705.896 8  89106109.279 7  21760598.844                    21760608.258
 110100652.534 8  85792774.556 7  20951455.406                    20951462.277
 112723139.763 7  87836292.10546  21450500.539                    21450508.438
 11  8 14  2 12  0.0000000  0  9G29G04G05G26G02G10G25G12G30
 123115321.447 7  95934081.908 6  23428072.258                    23428080.141
 128040049.217 6  99771582.07742  24365191.984                    24365201.371
 106553854.725 8  83029110.094 8  20276496.773                    20276503.574
 130086725.402 6 101366322.46143  24754682.586                    24754691.953
 111593432.012 8  86956055.64046  21235501.422                    21235506.152
 118283991.648 7  92169484.08144  22508678.594                    22508685.996
 114320797.951 8  89081245.980 7  21754526.984                    21754537.086
 110135580.950 8  85819991.507 7  20958102.109                    20958108.934
 112717512.645 8  87831907.37946  21449429.492                    21449437.520
 11  8 14  2 12 30.0000000  0  9G29G04G05G26G02G10G25G12G30
 123032152.377 7  95869274.933 6  23412245.258                    23412253.770
 128119805.574 6  99833729.94442  24380369.578                    24380378.422
 106548040.071 8  83024579.223 8  20275390.266                    20275396.930
 129993366.295 6 101293575.15943  24736916.891                    24736926.469
 111627010.496 7  86982220.72046  21241890.828                    21241895.660
 118374197.612 7  92239774.42444  22525844.688                    22525851.902
 114289451.250 8  89056820.006 7  21748562.234                    21748571.273
 110171052.163 8  85847631.407 7  20964852.055                    20964859.023
 112712497.786 7  87827999.72546  21448475.281                    21448482.961
 11  8 14  2 13  0.0000000  0  9G29G04G05G26G02G10G25G12G30
 122948978.300 7  95804464.051 6  23396417.617                    23396426.313
 128199504.396 6  99895833.03342  24395535.773                    24395544.063
 106542801.090 8  83020496.924 8  20274393.328                    20274400.043
 129899888.378 6 101220735.32843  24719128.859                    24719137.941
 111660701.805 8  87008473.70546  21248302.156                    21248306.953
 118464728.864 7  92310318.23044  22543071.984                    22543079.336
 114258666.801 8  89032832.160 7  21742703.773                    21742713.602
 110207064.714 8  85875693.141 7  20971704.766                    20971711.953
 112708094.952 7  87824568.97346  21447637.141                    21447645.082
 11  8 14  2 13 30.0000000  0  9G29G04G05G26G02G10G25G12G30
 122865800.555 7  95739650.308 6  23380589.758                    23380598.250
 128279145.572 6  99957891.06442  24410690.289                    24410699.406
 106538137.165 8  83016862.728 8  20273505.961                    20273512.660
 129806294.418 6 101147805.04043  24701318.367                    24701327.656
 111694505.717 8  87034814.43346  21254734.688                    21254739.602
 118555582.301 7  92381113.09944  22560360.547                    22560367.914
 114228445.550 8  89009283.163 7  21736952.813                    21736962.250
 110243617.209 8  85904175.605 7  20978660.602                    20978667.594
 112704303.905 7  87821614.92646  21446916.281                    21446923.734
 11  8 14  2 14  0.0000000  0  9G29G04G05G26G02G10G25G12G30
 122782620.423 7  95674834.715 6  23364760.430                    23364768.813
 128358728.804 6 100019903.95942  24425834.898                    24425843.965
 106534048.325 8  83013676.642 8  20272727.570                    20272734.582
 129712587.904 6 101074787.02643  24683486.297                    24683496.094
 111728422.022 7  87061242.73546  21261188.969                    21261193.520
 118646755.608 7  92452157.22044  22577710.484                    22577718.031
 114198788.565 8  88986173.863 7  21731309.352                    21731318.832
 110280707.721 8  85933077.306 7  20985718.938                    20985725.910
 112701124.606 7  87819137.56946  21446311.039                    21446318.637
 11  8 14  2 14 30.0000000  0  9G29G04G05G26G02G10G25G12G30
 122699439.115 7  95610018.185 6  23348931.430                    23348940.133
 128438253.438 6 100081871.15542  24440968.063                    24440976.262
 106530533.703 8  83010938.000 8  20272059.094                    20272065.664
 129618771.342 6 101001683.27542  24665633.266                    24665643.172
 111762449.469 8  87087757.64946  21267664.109                    21267668.656
 118738245.201 7  92523447.76944  22595120.953                    22595127.734
 114169696.605 8  88963504.833 7  21725773.305                    21725782.828
 110318334.943 8  85962397.222 7  20992879.023                    20992886.043
 112698556.362 8  87817136.36246  21445821.992                    21445829.430
 11  8 14  2 15  0.0000000  0  9G29G04G05G26G02G10G25G12G30
 122616257.947 7  95545201.783 6  23333103.352                    23333111.359
 128517719.196 6 100143792.54143  24456090.109                    24456098.418
 106527592.627 8  83008646.280 8  20271499.320                    20271506.063
 129524847.462 6 100928495.91343  24647761.266                    24647769.332
 111796587.454 8  87114358.69846  21274160.406                    21274164.684
 118830048.258 7  92594982.59144  22612589.969                    22612597.438
 114141170.397 8  88941276.645 7  21720344.898                    21720354.379
 110356497.111 8  85992133.973 7  21000141.125                    21000147.941
 112696598.828 7  87815611.03746  21445449.758                    21445457.090
 11  8 14  2 15 30.0000000  0  9G29G04G05G26G02G10G25G12G30
 122533078.413 7  95480386.650 6  23317273.734                    23317282.957
 128597126.128 6 100205668.04843  24471200.727                    24471208.766
 106525225.196 8  83006801.553 8  20271048.813                    20271055.086
 129430819.570 6 100855227.51843  24629867.641                    24629876.402
 111830835.673 8  87141045.64146  21280677.852                    21280682.203
 118922162.401 6  92666759.81244  22630118.711                    22630125.664
 114113211.138 8  88919490.238 7  21715024.328                    21715033.555
 110395193.056 8  86022286.665 7  21007504.586                    21007511.313
 112695251.985 8  87814561.55746  21445193.313                    21445200.855
 11  8 14  2 16  0.0000000  0  9G29G04G05G26G02G10G25G12G30
 122449901.893 7  95415573.864 6  23301445.977                    23301454.648
 128676473.857 6 100267497.49343  24486299.906                    24486308.047
 106523430.980 8  83005403.495 8  20270707.563                    20270713.938
 129336690.588 6 100781880.34443  24611955.273                    24611964.320
 111865193.658 8  87167818.11546  21287215.609                    21287220.172
 119014584.635 6  92738777.12244  22647705.828                    22647713.520
 114085819.668 8  88898146.265 7  21709811.805                    21709821.340
 110434421.063 8  86052853.943 7  21014969.617                    21014976.195
 112694515.406 7  87813987.61546  21445053.617                    21445061.000
 11  8 14  2 16 30.0000000  0  9G29G04G05G26G02G10G25G12G30
 122366729.636 7  95350764.419 6  23285618.891                    23285627.609
 128755762.036 7 100329280.49043  24501387.891                    24501396.297
 106522209.120 8  83004451.423 8  20270474.648                    20270481.441
 129242463.474 6 100708456.70943  24594023.969                    24594033.934
 111899660.653 8  87194675.52846  21293774.820                    21293779.246
 119107311.719 7  92811031.95544  22665350.992                    22665358.641
 114058996.685 7  88877245.268 7  21704707.852                    21704716.938
 110474179.532 8  86083834.572 7  21022535.211                    21022541.996
 112694388.509 8  87813888.74646  21445029.273                    21445036.941
 11  8 14  2 17  0.0000000  0  9G29G04G05G26G02G10G25G12G30
 122283562.878 7  95285959.266 6  23269792.625                    23269801.113
 128834990.486 7 100391016.97943  24516464.883                    24516473.031
 106521559.036 8  83003944.885 8  20270351.141                    20270357.414
 129148141.042 6 100634958.76142  24576075.359                    24576084.875
 111934236.110 8  87221617.46446  21300354.203                    21300358.828
 119200340.787 6  92883522.12244  22683054.563                    22683061.563
 114032742.925 8  88856787.823 7  21699711.703                    21699720.875
 110514466.653 8  86115227.141 7  21030201.602                    21030208.598
 112694870.831 7  87814264.58846  21445120.703                    21445128.328
 11  8 14  2 17 30.0000000  0  9G29G04G05G26G02G10G25G12G30
 122200403.234 7  95221159.655 6  23253968.125                    23253975.840
 128914158.951 7 100452706.71044  24531529.852                    24531539.035
 106521480.462 8  83003883.685 8  20270336.000                    20270342.852
 129053726.439 6 100561389.04443  24558108.563                    24558118.867
 111968919.711 8  87248643.66746  21306954.125                    21306958.480
 119293669.240 6  92956245.54744  22700814.148                    22700821.359
 114007059.379 8  88836774.703 7  21694824.250                    21694833.824
 110555280.886 8  86147030.446 7  21037968.367                    21037975.277
 112695962.145 8  87815114.97446  21445328.719                    21445336.055
 11  8 14  2 18  0.0000000  0  9G29G04G05G26G02G10G25G12G30
 122117252.044 7  95156366.658 6  23238144.609                    23238153.309
 128993267.203 7 100514349.51743  24546583.898                    24546591.977
 106521972.723 8  83004267.296 8  20270429.625                    20270436.227
 128959222.585 6 100487749.76243  24540125.336                    24540134.996
 112003710.761 8  87275753.59846  21313574.820                    21313579.176
 119387294.063 6  93029199.94744  22718630.203                    22718637.906
 113981946.575 8  88817206.310 7  21690045.297                    21690054.879
 110596620.663 8  86179243.264 7  21045835.000                    21045841.535
 112697661.706 7  87816439.32746  21445651.766                    21445659.367
 11  8 14  2 18 30.0000000  0  9G29G04G05G26G02G10G25G12G30
 122034110.745 6  95091581.365 6  23222323.328                    23222331.824
 129072315.171 7 100575945.37743  24561625.789                    24561634.625
 106523035.213 8  83005095.234 8  20270631.672                    20270638.344
 128864632.457 6 100414043.24143  24522124.953                    24522135.168
 112038608.713 7  87302946.82846  21320215.531                    21320220.023
 119481212.391 7  93102383.02944  22736502.844                    22736510.082
 113957405.367 8  88798083.318 7  21685375.508                    21685384.895
 110638484.071 8  86211864.099 7  21053801.344                    21053808.277
 112699969.125 7  87818237.32246  21446091.516                    21446098.520
 11  8 14  2 19  0.0000000  0  9G29G04G05G26G02G10G25G12G30
 121950980.729 7  95026804.867 6  23206503.750                    23206512.215
 129151302.132 7 100637493.68443  24576656.820                    24576664.980
 106524667.090 8  83006366.852 8  20270942.102                    20270948.816
 128769959.011 6 100340271.76643  24504109.047                    24504119.086
 112073612.718 7  87330222.69946  21326876.547                    21326881.406
 119575421.240 6  93175792.50744  22754429.852                    22754436.902
 113933436.290 8  88779406.132 7  21680814.000                    21680823.813
 110680869.219 8  86244891.489 7  21061867.016                    21061874.094
 112702883.745 7  87820508.47346  21446646.102                    21446653.223
 11  8 14  2 19 30.0000000  0  9G29G04G05G26G02G10G25G12G30
 121867863.260 7  94962038.142 6  23190687.641                    23190695.551
 129230228.154 7 100698994.50844  24591675.711                    24591684.449
 106526867.966 8  83008081.847 8  20271361.133                    20271367.383
 128675205.471 6 100266437.95043  24486078.445                    24486087.539
 112108722.510 7  87357581.00146  21333557.742                    21333562.484
 119669917.805 7  93249426.17844  22772412.281                    22772419.172
 113910040.123 8  88761175.378 7  21676362.031                    21676371.836
 110723775.043 8  86278324.599 7  21070031.602                    21070038.566
 112706405.019 7  87823252.34246  21447315.609                    21447323.609
 11  8 14  2 20  0.0000000  0  9G29G04G05G26G02G10G25G12G30
 121784759.859 6  94897282.387 6  23174873.445                    23174881.469
 129309093.209 6 100760447.81243  24606683.492                    24606691.629
 106529637.199 8  83010239.723 8  20271888.133                    20271894.652
 128580374.943 7 100192544.10043  24468033.305                    24468041.969
 112143937.638 8  87385021.37946  21340258.805                    21340262.980
 119764699.121 6  93323281.74444  22790448.289                    22790455.715
 113887217.612 8  88743391.633 7  21672019.156                    21672028.578
 110767199.303 8  86312161.691 7  21078295.008                    21078301.707
 112710532.433 7  87826468.52046  21448101.266                    21448109.000
 11  8 14  2 20 30.0000000  0  9G29G04G05G26G02G10G25G12G30
 121701671.940 6  94832538.688 7  23159062.352                    23159069.977
 129387897.036 6 100821853.39443  24621679.172                    24621687.613
 106532973.973 7  83012839.840 8  20272522.727                    20272529.168
 128485470.235 7 100118592.47043  24449973.109                    24449982.199
 112179257.749 7  87412543.56646  21346979.930                    21346984.617
 119859762.629 6  93397357.18344  22808538.492                    22808545.691
 113864969.396 8  88726055.382 7  21667785.453                    21667794.762
 110811140.157 8  86346401.321 7  21086656.305                    21086663.234
 112715265.331 7  87830156.50446  21449001.992                    21449009.473
 11  8 14  2 21  0.0000000  0  9G29G04G05G26G02G10G25G12G30
 121618601.084 7  94767808.272 6  23143253.938                    23143261.598
 129466639.244 7 100883211.01943  24636662.953                    24636671.863
 106536877.534 8  83015881.593 8  20273265.891                    20273272.262
 128390494.510 7 100044585.49243  24431899.938                    24431908.246
 112214682.219 8  87440147.06546  21353721.430                    21353725.969
 119955105.116 7  93471650.02144  22826681.227                    22826688.180
 113843295.898 8  88709166.960 7  21663661.094                    21663670.488
 110855596.023 8  86381042.262 7  21095116.508                    21095123.371
 112720602.936 8  87834315.69846  21450017.383                    21450025.023
 11  8 14  2 21 30.0000000  0  9G29G04G05G26G02G10G25G12G30
 121535548.394 7  94703091.982 6  23127449.523                    23127457.656
 129545319.610 6 100944520.39243  24651635.461                    24651644.172
 106541346.910 8  83019364.254 8  20274116.258                    20274122.816
 128295450.782 7  99970525.54843  24413813.320                    24413822.051
 112250210.193 8  87467831.21546  21360481.945                    21360486.406
 120050723.464 7  93546157.79844  22844877.352                    22844884.469
 113822197.537 8  88692726.709 7  21659645.813                    21659655.164
 110900564.664 8  86416082.769 7  21103673.977                    21103680.262
 112726544.434 7  87838945.45146  21451148.039                    21451155.566
 11  8 14  2 22  0.0000000  0  9G29G04G05G26G02G10G25G12G30
 121452515.591 7  94638391.198 6  23111648.359                    23111657.195
 129623938.369 6 101005781.76543  24666596.359                    24666604.949
 106546381.856 8  83023287.614 8  20275074.195                    20275080.840
 128200342.311 7  99896415.12943  24395714.797                    24395723.305
 112285841.626 8  87495595.99046  21367262.625                    21367266.820
 120146614.975 7  93620878.45144  22863124.547                    22863131.492
 113801675.280 8  88676735.368 7  21655740.695                    21655750.055
 110946044.746 8  86451521.797 7  21112328.320                    21112335.023
 112733089.426 7  87844045.46046  21452393.656                    21452401.461
 11  8 14  2 22 30.0000000  0  9G29G04G05G26G02G10G25G12G30
 121369504.541 7  94573707.351 6  23095852.219                    23095860.715
 129702495.202 6 101066994.90743  24681544.508                    24681552.719
 106551981.736 8  83027651.181 8  20276139.938                    20276146.520
 128105172.347 6  99822256.80943  24377604.758                    24377613.156
 112321576.319 8  87523441.22346  21374062.375                    21374066.945
 120242777.035 7  93695809.91244  22881424.055                    22881430.793
 113781729.713 8  88661193.392 7  21651945.414                    21651954.594
 110992034.656 8  86487358.093 7  21121080.031                    21121086.488
 112740237.296 7  87849615.24746  21453753.602                    21453760.754
 11  8 14  2 23  0.0000000  0  8G29G05G26G02G10G25G12G30
 121286516.505 7  94509041.406 6  23080060.125                    23080068.215
 106558145.409 8  83032454.074 8  20277312.672                    20277319.430
 128009943.820 6  99748052.88343  24359483.281                    24359491.777
 112357413.298 8  87551366.16346  21380881.891                    21380886.668
 120339206.803 6  93770949.97344  22899773.594                    22899781.109
 113762361.134 8  88646101.014 7  21648259.352                    21648269.129
 111038532.092 8  86523589.862 7  21129928.055                    21129934.320
 112747986.987 8  87855653.98246  21455228.688                    21455236.016
 11  8 14  2 23 30.0000000  0  8G29G05G26G02G10G25G12G30
 121203552.663 7  94444394.313 7  23064272.359                    23064280.727
 106564871.958 8  83037695.565 8  20278592.773                    20278599.375
 127914659.833 6  99673805.72443  24341350.820                    24341359.629
 112393352.216 8  87579370.53746  21387720.859                    21387725.711
 120435901.182 6  93846296.23244  22918173.516                    22918181.488
 113743570.057 8  88631458.641 7  21644683.625                    21644692.973
 111085534.998 8  86560215.508 7  21138872.102                    21138879.078
 112756337.843 7  87862161.16446  21456817.844                    21456825.125
 11  8 14  2 24  0.0000000  0  8G29G05G26G02G10G25G12G30
 121120614.585 7  94379767.291 6  23048489.469                    23048498.219
 106572160.400 8  83043374.903 8  20279979.797                    20279986.270
 127819323.441 6  99599517.73443  24323208.844                    24323217.191
 112429392.584 7  87607453.95546  21394579.391                    21394583.902
 120532857.002 7  93921846.18544  22936623.914                    22936631.266
 113725356.707 8  88617266.432 7  21641217.688                    21641227.109
 111133041.317 8  86597233.420 7  21147912.680                    21147919.590
 112765288.644 7  87869135.82346  21458520.977                    21458528.246
 11  8 14  2 24 30.0000000  0  8G29G05G26G02G10G25G12G30
 121037703.851 7  94315161.554 6  23032712.336                    23032720.488
 106580009.761 7  83049491.312 8  20281473.547                    20281480.086
 127723937.599 6  99525191.20943  24305057.336                    24305066.105
 112465534.078 8  87635616.18846  21401456.648                    21401461.273
 120630071.622 7  93997597.83344  22955123.500                    22955130.695
 113707721.585 8  88603524.812 7  21637861.789                    21637871.199
 111181049.480 8  86634642.387 7  21157048.242                    21157054.875
 112774838.719 7  87876577.44646  21460337.813                    21460345.547
 11  8 14  2 25  0.0000000  0  8G29G05G26G02G10G25G12G30
 120954822.314 7  94250578.556 6  23016940.617                    23016948.867
 106588419.553 8  83056044.424 8  20283073.695                    20283080.320
 127628505.735 6  99450828.83143  24286897.086                    24286906.203
 112501776.354 8  87663856.94046  21408353.453                    21408357.984
 120727541.982 7  94073548.72044  22973671.617                    22973678.707
 113690665.204 8  88590234.145 7  21634616.547                    21634625.566
 111229557.355 8  86672440.732 7  21166278.844                    21166285.410
 112784987.319 7  87884485.45546  21462269.820                    21462276.918
 11  8 14  2 25 30.0000000  0  8G29G05G26G02G10G25G12G30
 120871971.074 7  94186019.176 6  23001174.828                    23001182.641
 106597388.536 7  83063033.262 8  20284780.867                    20284787.277
 127533030.965 6  99376433.01843  24268728.813                    24268737.969
 112538118.471 8  87692175.49646  21415268.703                    21415273.746
 120825265.263 7  94149696.71044  22992267.031                    22992275.207
 113674187.681 8  88577394.546 7  21631480.609                    21631489.656
 111278562.630 8  86710626.656 7  21175604.398                    21175611.094
 112795733.250 7  87892858.91046  21464314.281                    21464321.527
 11  8 14  2 26  0.0000000  0  8G29G05G26G02G10G25G12G30
 120789151.819 7  94121484.696 6  22985414.398                    22985422.793
 106606915.565 8  83070456.946 8  20286593.438                    20286600.297
 127437516.210 6  99302006.00043  24250553.305                    24250561.996
 112574560.284 8  87720571.74346  21422203.695                    21422208.102
 120923238.832 7  94226039.71944  23010911.078                    23010918.516
 113658289.510 8  88565006.378 7  21628455.523                    21628464.570
 111328063.803 8  86749199.012 7  21185024.023                    21185030.855
 112807075.717 7  87901697.20746  21466473.016                    21466479.980
 11  8 14  2 26 30.0000000  0  8G29G05G26G02G10G25G12G30
 120706365.900 7  94056976.222 6  22969660.828                    22969668.570
 106616999.780 8  83078314.799 8  20288512.508                    20288519.332
 127341964.660 6  99227550.33543  24232370.539                    24232378.781
 112611101.176 8  87749045.19446  21429156.930                    21429161.551
 121021459.649 6  94302575.40744  23029602.117                    23029609.629
 113642970.835 8  88553069.771 7  21625540.102                    21625549.594
 111378058.379 8  86788155.834 7  21194537.398                    21194544.031
 112819013.630 8  87910999.47646  21468744.156                    21468751.566
 11  8 14  2 27  0.0000000  0  8G29G05G26G02G10G25G12G30
 120623615.394 7  93992495.340 6  22953913.914                    22953922.145
 106627640.918 7  83086606.608 8  20290537.211                    20290543.656
 127246379.914 6  99153068.81643  24214181.766                    24214190.125
 112647741.181 8  87777595.87246  21436129.141                    21436133.750
 121119925.089 6  94379301.69544  23048339.664                    23048346.777
 113628232.335 8  88541585.245 7  21622735.164                    21622744.699
 111428544.766 8  86827495.874 7  21204144.656                    21204151.832
 112831546.262 7  87920765.16846  21471129.563                    21471137.035
 11  8 14  2 27 30.0000000  0  8G29G05G26G02G10G25G12G30
 120540901.637 7  93928043.107 6  22938174.273                    22938181.758
 106638837.285 8  83095331.071 8  20292667.945                    20292674.152
 127150764.929 7  99078563.73143  24195985.477                    24195994.520
 112684479.925 8  87806223.49346  21443120.023                    21443125.055
 121218632.004 6  94456216.16444  23067123.141                    23067130.098
 113614074.060 8  88530552.835 7  21620041.070                    21620051.012
 111479520.758 8  86867217.434 7  21213845.195                    21213851.781
 112844672.403 7  87930993.33746  21473627.594                    21473634.762
 11  8 14  2 28  0.0000000  0  8G29G05G26G02G10G25G12G30
 120458226.011 7  93863620.608 6  22922441.703                    22922449.527
 106650587.421 7  83104487.041 8  20294903.750                    20294910.379
 127055122.717 7  99004037.41043  24177785.898                    24177794.215
 112721316.263 8  87834927.15546  21450130.156                    21450134.551
 121317577.342 6  94533316.41044  23085951.273                    23085958.906
 113600495.851 8  88519972.438 7  21617457.453                    21617467.039
 111530984.031 8  86907318.691 7  21223638.664                    21223645.430
 112858390.717 7  87941682.93846  21476237.484                    21476244.836
 11  8 14  2 28 30.0000000  0  8G29G05G26G02G10G25G12G30
 120375590.289 7  93799229.205 6  22906716.578                    22906724.164
 106662890.855 8  83114074.159 8  20297245.180                    20297251.680
 126959456.693 6  98929492.55443  24159581.750                    24159590.008
 112758250.333 8  87863706.97446  21457158.492                    21457163.129
 121416758.616 6  94610600.53144  23104825.117                    23104831.953
 113587498.408 8  88509844.565 7  21614984.297                    21614993.668
 111582932.650 8  86947798.129 7  21233523.844                    21233530.727
 112872700.533 8  87952833.44446  21478960.617                    21478968.234
 11  8 14  2 29  0.0000000  0  8G29G05G26G02G10G25G12G30
 120292996.273 7  93734870.322 6  22890999.008                    22891007.156
 106675746.487 8  83124091.549 8  20299691.586                    20299697.969
 126863770.032 6  98854931.58643  24141372.750                    24141381.574
 112795281.824 8  87892562.70646  21464205.289                    21464210.016
 121516172.751 6  94688066.08243  23123742.813                    23123749.934
 113575081.833 8  88500169.312 7  21612621.180                    21612630.723
 111635364.469 8  86988654.104 7  21243501.531                    21243508.445
 112887600.674 7  87964443.95046  21481796.305                    21481803.719
 11  8 14  2 29 30.0000000  0  8G29G05G26G02G10G25G12G30
 120210445.421 7  93670545.086 6  22875290.016                    22875297.434
 106689153.428 8  83134538.543 8  20302242.633                    20302249.391
 126768066.280 6  98780357.33943  24123160.055                    24123169.168
 112832410.474 8  87921494.14246  21471270.859                    21471275.441
 121615817.332 6  94765711.18943  23142704.367                    23142711.719
 113563246.482 8  88490946.966 7  21610369.188                    21610378.719
 111688277.685 8  87029885.183 7  21253570.258                    21253577.320
 112903090.191 7  87976513.71246  21484743.781                    21484751.027
 11  8 14  2 30  0.0000000  0  8G29G05G26G02G10G25G12G30
 120127939.260 7  93606254.681 7  22859589.469                    22859597.383
 106703109.873 8  83145413.710 8  20304898.367                    20304905.496
 126672348.295 6  98705771.95443  24104945.883                    24104954.996
 112869635.460 8  87950500.64846  21478354.680                    21478358.586
 121715688.827 6  94843533.14044  23161709.406                    23161716.660
 113551992.016 8  88482177.249 7  21608227.469                    21608236.855
 111741669.513 8  87071489.215 7  21263730.398                    21263737.164
 112919167.415 8  87989041.43246  21487803.219                    21487810.660
 11  8 14  2 30 30.0000000  0  8G29G05G26G02G10G25G12G30
 120045479.643 7  93542000.549 7  22843898.078                    22843906.152
 106717615.075 8  83156716.494 8  20307658.719                    20307665.172
 126576619.441 6  98631178.15943  24086729.242                    24086737.094
 112906956.867 8  87979582.28346  21485456.320                    21485460.887
 121815784.681 7  94921529.91944  23180756.914                    23180764.688
 113541318.772 8  88473860.441 7  21606196.336                    21606205.934
 111795537.992 8  87113464.661 7  21273981.156                    21273988.262
 112935831.498 7  88002026.44346  21490973.961                    21490981.660
 11  8 14  2 31  0.0000000  0  8G29G05G26G02G10G25G12G30
 119963067.887 7  93477783.710 7  22828215.383                    22828223.180
 106732668.045 8  83168446.098 8  20310523.563                    20310529.672
 126480883.190 6  98556578.57943  24068510.930                    24068520.309
 112944374.102 8  88008738.59146  21492576.398                    21492581.090
 121916102.552 7  94999699.65244  23199846.898                    23199854.984
 113531227.023 8  88465996.745 7  21604276.172                    21604285.563
 111849881.440 8  87155810.204 7  21284322.594                    21284329.223
 112953081.289 7  88015467.85046  21494256.586                    21494263.891
 11  8 14  2 31 30.0000000  0  8G29G05G26G02G10G25G12G30
 119880706.021 7  93413605.744 7  22812542.148                    22812550.477
 106748267.394 8  83180601.459 8  20313491.813                    20313498.398
 126385142.678 6  98481975.67443  24050292.555                    24050300.848
 112981886.887 8  88037969.35846  21499714.930                    21499719.516
 122016638.882 7  95078039.64843  23218978.977                    23218985.953
 113521716.736 8  88458586.124 7  21602466.273                    21602475.902
 111904697.354 8  87198523.910 7  21294753.766                    21294760.445
 112970915.528 8  88029364.67546  21497650.563                    21497658.125
 11  8 14  2 32  0.0000000  0  8G29G05G26G02G10G25G12G30
 119798395.505 7  93349467.808 7  22796878.773                    22796886.902
 106764411.764 8  83193181.512 8  20316563.906                    20316570.152
 126289401.288 6  98407372.10743  24032073.844                    24032082.094
 113019494.905 8  88067274.32246  21506871.477                    21506876.082
 122117390.999 7  95156547.79544  23238151.195                    23238158.848
 113512787.774 8  88451628.495 7  21600767.148                    21600776.930
 111959983.153 8  87241603.762 7  21305274.352                    21305281.160
 112989332.782 7  88043715.79946  21501154.750                    21501162.410
 11  8 14  2 32 30.0000000  0  8G29G05G26G02G10G25G12G30
 119716138.094 7  93285371.217 6  22781226.414                    22781233.797
 106781099.945 8  83206185.316 8  20319739.742                    20319745.855
 126193662.052 6  98332770.19843  24013854.477                    24013863.258
 113057197.665 8  88096653.10046  21514045.875                    21514050.465
 122218356.033 7  95235221.85144  23257364.234                    23257371.148
 113504440.134 8  88445123.851 7  21599178.570                    21599188.188
 112015736.677 8  87285048.065 7  21315883.641                    21315890.516
 113008331.695 8  88058520.15846  21504770.586                    21504777.676
 11  8 14  2 33  0.0000000  0  8G29G05G26G02G10G25G12G30
 119633935.477 7  93221317.351 7  22765583.141                    22765591.039
 106798331.078 8  83219612.190 8  20323018.523                    20323024.973
 126097928.683 6  98258172.86243  23995637.219                    23995645.875
 113094994.888 8  88126105.49146  21521238.742                    21521243.352
 122319531.393 7  95314059.78844  23276616.766                    23276624.734
 113496674.021 8  88439072.347 7  21597700.570                    21597710.379
 112071956.009 8  87328855.336 7  21326581.859                    21326589.105
 113027911.252 7  88073776.97346  21508496.055                    21508503.348
 11  8 14  2 33 30.0000000  0  8G29G05G26G02G10G25G12G30
 119551789.205 7  93157307.383 7  22749951.664                    22749959.105
 106816103.420 8  83233460.797 8  20326400.086                    20326406.965
 126002204.102 6  98183582.34643  23977421.039                    23977430.078
 113132886.474 8  88155631.42346  21528449.008                    21528453.691
 122420914.308 7  95393059.44944  23295909.945                    23295917.309
 113489489.089 8  88433473.721 7  21596333.359                    21596343.063
 112128638.649 8  87373023.633 7  21337368.219                    21337374.980
 113048069.818 7  88089484.96446  21512332.313                    21512339.578
 11  8 14  2 34  0.0000000  0  8G29G05G26G02G10G25G12G30
 119469701.041 7  93093342.679 6  22734330.523                    22734338.227
 106834415.743 8  83247730.159 8  20329884.953                    20329891.422
 125906491.845 6  98109001.46243  23959208.422                    23959215.605
 113170872.051 8  88185230.57446  21535677.430                    21535682.168
 122522501.913 7  95472218.59644  23315241.547                    23315248.746
 113482885.433 8  88428328.031 7  21595076.938                    21595086.574
 112185782.297 8  87417551.155 7  21348242.258                    21348249.063
 113068806.157 7  88105643.16946  21516278.016                    21516285.359
 11  8 14  2 34 30.0000000  0  8G29G05G26G02G10G25G12G30
 119387672.839 7  93029424.701 7  22718720.914                    22718728.484
 106853266.803 8  83262419.328 8  20333472.633                    20333478.695
 125810795.087 6  98034432.64543  23940997.367                    23941006.172
 113208951.296 8  88214902.72446  21542923.883                    21542928.578
 122624291.265 7  95551534.96444  23334611.102                    23334618.633
 113476862.987 8  88423635.231 7  21593930.656                    21593940.152
 112243384.790 8  87462436.219 7  21359203.828                    21359210.402
 113090118.892 8  88122250.50946  21520333.773                    21520341.395
 11  8 14  2 35  0.0000000  0  8G29G05G26G02G10G25G12G30
 119305706.353 7  92965554.804 7  22703123.430                    22703130.496
 106872655.331 8  83277527.292 8  20337161.664                    20337168.355
 125715117.205 7  97959878.52643  23922790.352                    23922798.895
 113247123.966 8  88244647.66446  21550187.859                    21550192.426
 122726279.660 7  95631006.41444  23354018.656                    23354026.727
 113471421.490 8  88419395.130 7  21592895.406                    21592904.875
 112301443.495 8  87507676.765 7  21370251.883                    21370258.746
 113112006.547 7  88139305.84946  21524498.836                    21524506.207
 11  8 14  2 35 30.0000000  0  8G29G05G26G02G10G25G12G30
 119223802.931 7  92901734.039 7  22687536.961                    22687544.813
 106892579.799 8  83293052.876 8  20340953.117                    20340959.508
 125619461.739 6  97885341.88743  23904588.180                    23904596.176
 113285389.470 8  88274464.94246  21557469.289                    21557474.047
 122828464.211 7  95710630.73244  23373463.617                    23373471.332
 113466560.823 8  88415607.633 7  21591970.492                    21591979.805
 112359956.485 8  87553271.312 7  21381386.695                    21381393.375
 113134467.650 8  88156808.01746  21528773.250                    21528780.523
 11  8 14  2 36  0.0000000  0  8G29G05G26G02G10G25G12G30
 119141964.653 7  92837964.041 7  22671963.805                    22671971.559
 106913038.871 8  83308995.033 8  20344846.758                    20344853.063
 125523831.814 6  97810825.13944  23886389.961                    23886397.926
 113323747.629 8  88304354.43346  21564768.734                    21564773.406
 122930842.313 7  95790405.85744  23392945.484                    23392953.520
 113462280.692 8  88412272.494 7  21591155.688                    21591165.516
 112418921.009 8  87599217.699 7  21392607.359                    21392613.906
 113157500.564 7  88174755.76046  21533156.070                    21533164.145
 11  8 14  2 36 30.0000000  0  8G29G05G26G02G10G25G12G30
 119060193.280 7  92774246.159 7  22656403.813                    22656410.797
 106934031.307 8  83325352.794 8  20348840.945                    20348847.492
 125428230.860 6  97736330.96644  23868197.305                    23868205.883
 113362198.512 8  88334316.15746  21572085.563                    21572090.238
 123033411.139 7  95870329.61244  23412464.195                    23412471.086
 113458581.165 8  88409389.779 7  21590451.789                    21590461.301
 112478334.765 8  87645514.133 7  21403913.172                    21403919.938
 113181104.193 7  88193148.21246  21537647.531                    21537654.887
 11  8 14  2 37  0.0000000  0  8G29G05G26G02G10G25G12G30
 118978490.293 7  92710581.551 7  22640855.328                    22640863.211
 106955555.429 8  83342124.864 8  20352937.188                    20352943.633
 125332662.338 6  97661862.08644  23850011.336                    23850019.465
 113400741.280 8  88364349.48946  21579420.586                    21579424.723
 123136167.770 7  95950399.70443  23432017.477                    23432025.117
 113455461.668 8  88406959.044 7  21589858.188                    21589867.465
 112538195.456 7  87692158.831 7  21415304.438                    21415311.020
 113205276.612 8  88211983.87346  21542247.055                    21542254.852
 11  8 14  2 37 30.0000000  0  8G29G05G26G02G10G25G12G30
 118896857.811 7  92646971.882 7  22625321.453                    22625329.199
 106977610.062 8  83359310.306 8  20357133.898                    20357140.402
 125237129.723 6  97587421.17444  23831831.805                    23831840.297
 113439376.369 8  88394454.75746  21586772.016                    21586776.836
 123239109.509 7  96030614.03643  23451606.703                    23451614.078
 113452922.223 8  88404980.298 7  21589375.016                    21589384.586
 112598500.740 8  87739149.961 7  21426780.070                    21426786.586
 113230016.652 7  88231261.84445  21546955.133                    21546962.477
 11  8 14  2 38  0.0000000  0  8G29G05G26G02G10G25G12G30
 118815297.297 7  92583418.275 7  22609801.211                    22609808.797
 107000193.483 8  83376907.796 8  20361431.430                    20361437.578
 125141636.261 6  97513010.74743  23813660.289                    23813667.898
 113478103.049 8  88424631.39946  21594141.289                    21594146.191
 123342233.440 7  96110970.33344  23471230.297                    23471238.168
 113450962.384 8  88403453.183 7  21589002.016                    21589011.473
 112659248.136 8  87786485.596 7  21438339.773                    21438346.613
 113255322.473 7  88250980.67345  21551770.922                    21551778.215
 11  8 14  2 38 30.0000000  0  8G29G05G26G02G10G25G12G30
 118733810.852 7  92519922.377 7  22594294.703                    22594302.195
 107023304.510 8  83394916.407 8  20365829.203                    20365835.488
 125046185.326 6  97438633.49744  23795496.633                    23795504.605
 113516921.103 8  88454879.24546  21601528.258                    21601532.684
 123445537.078 7  96191466.68243  23490888.898                    23490896.215
 113449581.845 8  88402377.469 7  21588739.148                    21588748.531
 112720435.045 7  87834163.714 7  21449983.477                    21449990.117
 113281192.543 7  88271139.18446  21556693.680                    21556701.387
 11  8 14  2 39  0.0000000  0  8G29G05G26G02G10G25G12G30
 118652400.263 7  92456485.599 7  22578803.094                    22578809.609
 107046941.852 8  83413335.135 8  20370327.453                    20370333.703
 124950780.554 6  97364292.17644  23777341.188                    23777349.660
 113555830.457 8  88485198.23646  21608932.422                    21608937.262
 123549017.864 7  96272101.05343  23510580.648                    23510587.711
 113448780.358 8  88401752.969 7  21588586.672                    21588596.223
 112782059.242 8  87882182.574 7  21461710.023                    21461716.570
 113307625.249 7  88291736.10846  21561724.070                    21561731.375
 11  8 14  2 39 30.0000000  0  8G29G05G26G02G10G25G12G30
 118571067.469 7  92393109.427 7  22563326.031                    22563332.879
 107071103.916 8  83432162.738 8  20374924.906                    20374931.488
 124855425.287 6  97289989.51543  23759195.852                    23759204.410
 113594831.233 8  88515588.46246  21616353.820                    21616358.914
 123652672.574 7  96352870.97343  23530305.375                    23530312.066
 113448557.670 8  88401579.471 7  21588544.195                    21588553.605
 112844118.537 8  87930540.476 7  21473519.492                    21473526.273
 113334619.238 7  88312770.39246  21566860.445                    21566868.246
 11  8 14  2 40  0.0000000  0  8G29G05G26G02G10G25G12G30
 118489813.844 7  92329794.957 7  22547863.898                    22547870.996
 107095788.570 7  83451397.557 8  20379622.203                    20379628.785
 124760122.799 6  97215727.86643  23741059.773                    23741068.359
 113633922.621 8  88546049.29146  21623793.133                    21623797.520
 123756498.408 7  96433774.22244  23550062.656                    23550070.273
 113448913.040 8  88401856.410 7  21588611.680                    21588621.313
 112906610.097 7  87979235.199 7  21485411.109                    21485417.945
 113362172.399 7  88334240.40546  21572103.953                    21572111.375
 11  8 14  2 40 30.0000000  0  8G29G05G26G02G10G25G12G30
 118408641.157 7  92266543.574 7  22532416.844                    22532424.234
 107120993.961 8  83471038.130 8  20384418.820                    20384425.355
 124664876.407 6  97141509.97443  23722935.086                    23722943.168
 113673104.490 8  88576580.62146  21631248.820                    21631253.695
 123860492.373 7  96514808.48144  23569852.234                    23569859.402
 113449845.921 8  88402583.351 7  21588789.188                    21588798.781
 112969530.643 7  88028264.196 7  21497384.672                    21497391.305
 113390282.893 7  88356144.69846  21577453.156                    21577460.344
 11  8 14  2 41  0.0000000  0  9G29G15G05G26G02G10G25G12G30
 118327552.098 7  92203357.350 7  22516985.891                    22516993.457
 129417235.41016 100844660.47315  24627290.758                    24627299.473
 107146720.127 8  83491084.524 8  20389314.273                    20389320.738
 124569690.109 6  97067338.95743  23704821.695                    23704830.113
 113712377.199 8  88607182.75346  21638722.734                    21638727.043
 123964652.551 7  96595972.27243  23589672.492                    23589680.711
 113451356.672 8  88403760.580 7  21589076.766                    21589086.340
 113032879.039 8  88077626.589 7  21509439.477                    21509445.852
 113418949.860 7  88378482.60646  21582907.961                    21582915.500
 11  8 14  2 41 30.0000000  0  9G29G15G05G26G02G10G25G12G30
 118246547.691 7  92140237.097 7  22501571.547                    22501578.535
 129323652.892 6 100771739.214 5  24609482.695                    24609492.039
 107172964.206 8  83511534.470 8  20394308.148                    20394314.840
 124474566.872 6  96993216.99643  23686720.352                    23686727.879
 113751739.889 8  88637854.99045  21646213.141                    21646217.629
 124068975.613 7  96677262.94344  23609525.500                    23609533.297
 113453443.973 8  88405387.069 7  21589474.219                    21589483.441
 113096651.874 7  88127319.708 7  21521575.008                    21521581.742
 113448170.624 7  88401252.03545  21588468.789                    21588476.215
 11  8 14  2 42  0.0000000  0  9G29G15G05G26G02G10G25G12G30
 118165629.922 7  92077184.358 7  22486173.266                    22486180.691
 129229943.319 6 100698718.914 5  24591650.203                    24591659.520
 107199724.747 8  83532386.861 8  20399400.789                    20399407.375
 124379510.078 6  96919146.82743  23668631.922                    23668639.070
 113791192.467 8  88668597.27346  21653720.445                    21653725.172
 124173458.971 7  96758678.53044  23629407.414                    23629415.426
 113456107.521 8  88407462.579 7  21589980.828                    21589990.320
 113160847.016 8  88177341.901 7  21533790.938                    21533797.520
 113477943.805 7  88424451.93045  21594134.336                    21594141.387
 11  8 14  2 42 30.0000000  0  9G29G15G05G26G02G10G25G12G30
 118084800.782 7  92014200.696 7  22470791.469                    22470799.297
 129136108.937 6 100625601.356 5  24573793.797                    24573802.809
 107227000.313 8  83553640.568 8  20404591.242                    20404597.789
 124284523.383 6  96845131.33343  23650555.570                    23650563.535
 113830735.094 8  88699409.72345  21661245.633                    21661249.973
 124278100.225 7  96840217.16543  23649320.922                    23649327.867
 113459347.021 8  88409986.884 7  21590597.336                    21590606.746
 113225461.908 8  88227691.173 7  21546086.844                    21546093.328
 113508267.653 8  88448080.91646  21599904.766                    21599911.961
 11  8 14  2 43  0.0000000  0  9G29G15G05G26G02G10G25G12G30
 118004062.191 7  91951287.603 7  22455427.375                    22455434.652
 129042152.077 6 100552388.363 5  24555913.695                    24555923.793
 107254789.343 8  83575294.372 8  20409879.086                    20409885.113
 124189610.341 6  96771173.21744  23632494.781                    23632502.613
 113870367.307 8  88730291.99345  21668786.977                    21668791.801
 124382896.584 6  96921876.66443  23669262.352                    23669269.809
 113463161.754 8  88412959.414 7  21591323.211                    21591332.449
 113290493.493 8  88278365.141 7  21558461.516                    21558468.582
 113539140.273 7  88472137.50846  21605779.664                    21605787.008
 11  8 14  2 43 30.0000000  0  9G29G15G05G26G02G10G25G12G30
 117923415.812 7  91888446.355 7  22440080.891                    22440088.531
 128948075.248 6 100479081.953 6  24538012.391                    24538021.199
 107283089.827 8  83597346.717 8  20415264.297                    20415270.637
 124094774.347 6  96697275.12944  23614448.453                    23614456.426
 113910088.831 8  88761243.84146  21676345.820                    21676350.250
 124487845.048 6  97003654.66343  23689233.359                    23689240.996
 113467551.106 8  88416379.695 7  21592158.336                    21592167.777
 113355939.273 7  88329361.849 7  21570915.891                    21570922.121
 113570559.761 7  88496620.23945  21611758.273                    21611766.113
 11  8 14  2 44  0.0000000  0  9G29G15G05G26G02G10G25G12G30
 117842863.887 7  91825678.703 7  22424752.586                    22424760.000
 128853881.252 6 100405684.170 6  24520088.078                    24520096.141
 107311900.499 8  83619796.620 8  20420746.898                    20420753.461
 124000018.941 6  96623439.83644  23596416.516                    23596424.605
 113949899.949 8  88792265.50346  21683921.359                    21683926.043
 124592943.063 6  97085549.23443  23709233.016                    23709240.234
 113472514.679 8  88420247.423 7  21593102.977                    21593112.348
 113421797.601 7  88380680.027 7  21583448.289                    21583455.121
 113602524.546 7  88521527.86945  21617841.234                    21617848.504
 11  8 14  2 44 30.0000000  0  9G29G15G05G26G02G10G25G12G30
 117762408.208 7  91762986.052 7  22409442.781                    22409450.035
 128759572.620 6 100332197.092 6  24502141.219                    24502149.941
 107341219.690 8  83642642.754 8  20426326.203                    20426332.820
 123905347.679 7  96549670.12344  23578401.414                    23578409.730
 113989800.180 8  88823356.60546  21691514.359                    21691518.953
 124698188.030 7  97167558.28443  23729260.867                    23729267.625
 113478051.677 8  88424561.970 7  21594156.539                    21594165.914
 113488065.087 8  88432317.027 7  21596058.570                    21596065.258
 113635032.537 7  88546858.77845  21624027.500                    21624034.273
 11  8 14  2 45  0.0000000  0  9G29G15G05G26G02G10G25G12G30
 117682050.476 7  91700369.709 7  22394150.813                    22394158.281
 128665151.287 6 100258622.189 6  24484172.719                    24484182.465
 107371045.165 8  83665883.400 8  20432001.672                    20432007.953
 123810763.723 7  96475968.43644  23560402.406                    23560410.828
 114029789.246 7  88854516.93245  21699123.867                    21699128.746
 124803577.299 6  97249679.79543  23749315.805                    23749322.836
 113484161.235 8  88429322.671 7  21595319.086                    21595328.176
 113554738.930 7  88484270.680 7  21608746.031                    21608752.461
 113668081.542 7  88572611.25946  21630316.547                    21630323.660
 11  8 14  2 45 30.0000000  0  9G29G15G05G26G02G10G25G12G30
 117601792.641 7  91637831.221 7  22378877.594                    22378885.680
 128570620.343 6 100184961.929 6  24466184.656                    24466193.148
 107401375.470 8  83689517.425 8  20437773.359                    20437779.707
 123716270.905 7  96402337.75044  23542421.938                    23542429.070
 114069867.197 8  88885746.51746  21706750.523                    21706754.828
 124909108.086 7  97331911.57043  23769397.844                    23769405.211
 113490842.901 8  88434529.166 7  21596590.828                    21596600.023
 113621816.796 7  88536539.152 7  21621510.891                    21621517.316
 113701670.043 7  88598784.12045  21636707.875                    21636715.324
 11  8 14  2 46  0.0000000  0  9G29G15G05G26G02G10G25G12G30
 117521636.835 7  91575372.220 7  22363624.914                    22363632.059
 128475982.641 7 100111218.420 6  24448175.461                    24448183.773
 107432209.223 7  83713543.738 8  20443641.055                    20443647.316
 123621872.732 7  96328780.80344  23524458.070                    23524465.578
 114110034.088 8  88917045.40846  21714394.195                    21714398.664
 125014777.480 7  97414251.36843  23789505.461                    23789513.328
 113498096.136 8  88440181.049 7  21597971.070                    21597980.336
 113689296.298 7  88589120.578 7  21634351.570                    21634358.023
 113735796.139 7  88625375.88945  21643201.805                    21643209.477
 11  8 14  2 46 30.0000000  0  9G29G15G05G26G02G10G25G12G30
 117441584.667 7  91512993.973 7  22348391.320                    22348398.734
 128381239.964 6 100037393.134 6  24430145.453                    24430154.852
 107463544.002 8  83737960.464 8  20449603.805                    20449610.246
 123527572.707 7  96255300.34644  23506513.414                    23506521.066
 114150289.525 7  88948413.29546  21722054.180                    21722058.766
 125120582.989 7  97496697.24943  23809639.211                    23809646.836
 113505919.890 8  88446277.482 7  21599459.508                    21599469.293
 113757174.270 7  88642012.511 7  21647268.398                    21647275.039
 113770457.594 7  88652384.82745  21649797.922                    21649804.699
 11  8 14  2 47  0.0000000  0  9G29G15G05G26G02G10G25G12G30
 117361638.350 7  91450698.201 7  22333178.125                    22333185.305
 128286395.303 6  99963488.368 6  24412097.570                    24412106.219
 107495378.554 8  83762766.622 8  20455661.719                    20455667.746
 123433374.429 7  96181899.14844  23488588.070                    23488595.246
 114190633.429 7  88979850.11645  21729731.805                    21729735.801
 125226522.214 7  97579247.30443  23829799.672                    23829806.555
 113514313.535 8  88452817.991 7  21601056.953                    21601066.152
 113825448.304 7  88695213.053 7  21660260.586                    21660267.227
 113805652.531 7  88679809.45645  21656494.867                    21656502.336
 11  8 14  2 47 30.0000000  0  9G29G15G05G26G02G10G25G12G30
 117281799.865 7  91388486.455 7  22317985.031                    22317992.449
 128191451.123 6  99889506.057 6  24394030.625                    24394038.563
 107527711.034 8  83787960.783 8  20461814.375                    20461820.621
 123339281.302 7  96108579.90144  23470682.445                    23470690.758
 114231065.855 7  89011355.91545  21737425.414                    21737429.820
 125332592.519 7  97661899.48943  23849983.680                    23849991.078
 113523276.374 8  88459802.024 7  21602762.258                    21602772.039
 113894116.026 8  88748720.378 7  21673327.492                    21673334.027
 113841378.981 7  88707648.25345  21663293.844                    21663300.992
 11  8 14  2 48  0.0000000  0  9G29G15G05G26G02G10G25G12G30
 117202071.143 7  91326360.233 7  22302813.148                    22302820.043
 128096410.151 6  99815448.294 6  24375944.656                    24375952.855
 107560539.537 8  83813541.446 8  20468061.219                    20468067.730
 123245296.852 7  96035345.32943  23452797.461                    23452805.211
 114271586.563 8  89042930.50346  21745136.531                    21745140.895
 125438791.054 7  97744651.60543  23870192.703                    23870199.625
 113532807.497 8  88467228.870 7  21604576.297                    21604585.945
 113963174.416 7  88802532.109 7  21686469.258                    21686475.445
 113877634.928 7  88735899.65045  21670192.883                    21670200.277
 11  8 14  2 48 30.0000000  0  9G29G15G05G26G02G10G25G12G30
 117122454.107 7  91264321.038 7  22287662.742                    22287669.750
 128001275.064 6  99741317.239 6  24357841.000                    24357849.469
 107593862.408 8  83839507.339 8  20474402.242                    20474408.930
 123151424.806 7  95962198.35243  23434933.719                    23434941.227
 114312195.591 8  89074573.90946  21752864.281                    21752868.410
 125545115.436 7  97827501.76343  23890425.758                    23890432.836
 113542906.169 8  88475097.980 7  21606497.836                    21606507.336
 114032621.002 7  88856646.341 7  21699683.914                    21699690.793
 113914418.406 7  88764562.10846  21677192.563                    21677199.781
 11  8 14  2 49  0.0000000  0  9G29G15G05G26G02G10G25G12G30
 117042950.556 7  91202370.288 7  22272533.320                    22272540.750
 127906048.420 6  99667114.801 6  24339719.859                    24339728.379
 107627677.331 8  83865856.646 8  20480837.109                    20480843.270
 123057668.444 6  95889141.48043  23417092.500                    23417100.016
 114352892.426 8  89106285.73546  21760608.539                    21760612.840
 125651562.505 7  97910447.54743  23910681.891                    23910689.082
 113553571.323 8  88483408.493 7  21608527.719                    21608537.031
 114102452.645 8  88911060.606 7  21712972.273                    21712979.168
 113951727.085 7  88793633.81245  21684292.367                    21684299.391
 11  8 14  2 49 30.0000000  0  9G29G15G05G26G02G10G25G12G30
 116963563.048 7  91140509.943 7  22257426.898                    22257433.570
 127810732.602 6  99592842.871 5  24321581.141                    24321590.000
 107661983.200 8  83892588.506 8  20487365.297                    20487371.809
 122964031.716 6  95816177.87043  23399273.969                    23399281.801
 114393677.429 8  89138066.26646  21768369.422                    21768373.680
 125758130.261 6  97993487.32643  23930960.813                    23930968.223
 113564802.200 8  88492159.839 7  21610664.602                    21610673.770
 114172666.695 7  88965772.858 7  21726333.938                    21726340.367
 113989558.957 7  88823113.20245  21691491.242                    21691498.586
 11  8 14  2 50  0.0000000  0  9G29G15G05G26G02G10G25G12G30
 116884293.196 7  91078741.293 7  22242342.063                    22242348.672
 127715330.328 6  99518503.531 5  24303426.453                    24303435.117
 107696777.417 8  83919700.897 8  20493986.805                    20493992.867
 122870517.734 6  95743309.91443  23381479.539                    23381486.441
 114434550.352 8  89169915.29446  21776147.453                    21776151.730
 125864815.702 6  98076618.80343  23951262.977                    23951270.191
 113576597.725 8  88501351.155 7  21612909.164                    21612918.660
 114243260.767 7  89020781.230 7  21739767.688                    21739774.125
 114027911.816 7  88852998.56245  21698789.586                    21698796.750
 11  8 14  2 50 30.0000000  0  9G29G15G05G26G02G10G25G12G30
 116805142.708 7  91017065.655 7  22227280.133                    22227287.156
 127619844.433 7  99444099.079 5  24285256.180                    24285264.883
 107732058.355 8  83947192.550 8  20500700.414                    20500706.305
 122777130.383 6  95670540.60943  23363707.789                    23363714.945
 114475511.203 7  89201832.85045  21783942.172                    21783946.344
 125971616.318 6  98159840.05443  23971585.281                    23971593.730
 113588957.145 8  88510981.883 7  21615261.516                    21615270.801
 114314231.853 8  89076083.388 7  21753272.906                    21753279.281
 114066783.667 7  88883288.31945  21706186.523                    21706194.031
 11  8 14  2 51  0.0000000  0  9G29G15G05G26G02G10G25G12G30
 116726113.798 7  90955484.753 7  22212241.516                    22212248.813
 127524277.560 7  99369631.496 6  24267070.359                    24267078.707
 107767824.123 8  83975061.997 8  20507506.063                    20507512.426
 122683873.207 7  95597872.75044  23345961.875                    23345969.516
 114516560.099 8  89233819.00445  21791753.547                    21791757.984
 126078529.533 6  98243149.04843  23991930.867                    23991938.262
 113601879.344 8  88521051.142 7  21617720.164                    21617729.730
 114385577.104 8  89131677.091 7  21766849.406                    21766855.867
 114106172.243 7  88913980.72545  21713682.164                    21713689.559
 11  8 14  2 51 30.0000000  0  9G29G15G05G26G02G10G25G12G30
 116647208.814 7  90894000.409 7  22197226.172                    22197233.281
 127428632.162 7  99295102.729 6  24248869.688                    24248878.504
 107804073.085 8  84003307.954 8  20514403.961                    20514410.137
 122590749.745 7  95525309.08044  23328240.750                    23328248.652
 114557696.692 7  89265873.49845  21799581.453                    21799585.527
 126185552.961 6  98326543.91343  24012296.563                    24012303.910
 113615363.467 8  88531558.267 7  21620286.242                    21620295.473
 114457293.997 7  89187560.392 7  21780496.516                    21780503.516
 114146075.463 7  88945074.14745  21721275.383                    21721282.602
 11  8 14  2 52  0.0000000  0  9G29G15G05G26G02G10G25G12G30
 116568429.503 7  90832614.003 7  22182234.992                    22182241.988
 127332910.772 7  99220514.749 6  24230654.641                    24230662.883
 107840802.850 8  84031928.570 8  20521393.516                    20521399.910
 122497763.825 7  95452852.57244  23310546.289                    23310553.441
 114598920.927 7  89297996.27545  21807426.070                    21807430.449
 126292683.718 6  98410022.41943  24032682.891                    24032690.219
 113629408.435 8  88542502.405 7  21622958.672                    21622968.375
 114529379.833 7  89243731.167 7  21794213.758                    21794220.656
 114186491.111 7  88976566.87145  21728966.289                    21728973.629
 11  8 14  2 52 30.0000000  0  9G29G15G05G26G02G10G25G12G30
 116489777.904 7  90771327.107 7  22167268.055                    22167275.355
 127237116.443 7  99145869.930 6  24212425.547                    24212433.723
 107878011.852 8  84060922.606 8  20528474.398                    20528480.301
 122404918.577 7  95380505.70244  23292878.328                    23292885.625
 114640232.787 7  89330187.34145  21815287.703                    21815291.875
 126399919.381 6  98493582.66443  24053088.602                    24053097.012
 113644013.122 8  88553882.697 7  21625738.039                    21625747.449
 114601831.448 7  89300186.981 7  21808001.398                    21808007.680
 114227416.875 7  89008457.08445  21736753.961                    21736761.656
 11  8 14  2 53  0.0000000  0  9G29G15G05G26G02G10G25G12G30
 116411255.837 7  90710141.156 7  22152325.859                    22152333.141
 127141251.570 7  99071170.144 6  24194183.180                    24194191.328
 107915697.674 8  84090288.193 8  20535645.836                    20535651.938
 122312217.652 7  95308271.28744  23275238.180                    23275246.012
 114681631.798 7  89362446.31645  21823165.352                    21823169.816
 126507257.480 6  98577222.74743  24073515.367                    24073522.500
 113659176.279 8  88565698.153 7  21628623.516                    21628632.887
 114674645.940 7  89356925.546 7  21821857.523                    21821863.570
 114268850.313 7  89040742.88446  21744638.750                    21744645.836
 11  8 14  2 53 30.0000000  0  9G29G15G05G26G02G10G25G12G30
 116332865.708 7  90649057.997 7  22137408.359                    22137415.316
 127045318.787 7  98996417.459 6  24175928.016                    24175935.625
 107953858.607 8  84120023.997 8  20542907.594                    20542913.637
 122219664.937 7  95236152.35244  23257626.359                    23257633.488
 114723118.440 7  89394773.57745  21831060.047                    21831064.680
 126614695.270 6  98660940.49543  24093960.211                    24093966.551
 113674896.997 8  88577948.074 7  21631615.031                    21631624.266
 114747820.963 7  89413945.045 7  21835781.859                    21835788.879
 114310789.373 7  89073422.67745  21752619.641                    21752626.797
 11  8 14  2 54  0.0000000  0  9G29G15G05G26G02G10G25G12G30
 116254609.352 7  90588079.082 7  22122516.852                    22122523.836
 126949321.004 7  98921614.105 6  24157659.781                    24157667.758
 107992492.872 8  84150128.631 8  20550258.977                    20550265.066
 122127263.975 7  95164151.68744  23240042.391                    23240049.816
 114764692.821 7  89427169.20045  21838970.906                    21838975.535
 126722230.568 6  98744734.26443  24114423.297                    24114430.328
 113691174.299 8  88590631.709 7  21634712.281                    21634721.609
 114821353.848 7  89471243.394 7  21849774.938                    21849781.352
 114353231.887 7  89106494.77545  21760695.984                    21760703.262
 11  8 14  2 54 30.0000000  0  9G29G15G05G26G02G10G25G12G30
 116176489.061 7  90527206.196 7  22107651.133                    22107658.164
 126853260.769 6  98846762.141 6  24139379.063                    24139388.359
 108031598.173 8  84180600.301 8  20557701.086                    20557706.984
 122035018.282 7  95092271.98744  23222488.805                    23222496.461
 114806354.794 7  89459633.07445  21846899.047                    21846903.980
 126829860.434 6  98828601.67643  24134904.375                    24134911.656
 113708006.899 8  88603748.033 7  21637915.586                    21637924.840
 114895241.557 7  89528818.241 7  21863835.492                    21863841.844
 114396175.446 7  89139957.28945  21768867.945                    21768875.273
 11  8 14  2 55  0.0000000  0  9G29G15G05G26G02G10G25G12G30
 116098506.616 7  90466440.702 7  22092811.727                    22092818.652
 126757140.996 6  98771863.778 6  24121088.188                    24121096.898
 108071172.593 8  84211437.529 8  20565231.820                    20565237.578
 121942931.533 6  95020516.17244  23204964.836                    23204972.734
 114848104.299 8  89492165.16345  21854844.039                    21854848.168
 126937582.617 6  98912541.03343  24155402.719                    24155410.680
 113725393.609 8  88617296.139 7  21641224.055                    21641233.613
 114969481.012 7  89586667.175 7  21877962.281                    21877969.242
 114439617.682 8  89173808.38545  21777134.297                    21777141.719
 11  8 14  2 55 30.0000000  0  9G29G15G05G26G02G10G25G12G30
 116020664.305 7  90405784.411 7  22077998.641                    22078005.227
 126660964.392 6  98696921.161 6  24102786.484                    24102795.332
 108111214.352 7  84242638.903 8  20572851.141                    20572857.512
 121851007.326 6  94948887.01244  23187471.586                    23187480.086
 114889941.386 7  89524765.48345  21862805.422                    21862810.223
 127045394.581 6  98996550.35143  24175918.844                    24175926.652
 113743333.397 8  88631275.210 7  21644637.734                    21644647.250
 115044069.270 7  89644787.889 7  21892155.844                    21892162.742
 114483556.394 7  89208046.35445  21785496.156                    21785502.852
 11  8 14  2 56  0.0000000  0  9G29G15G05G26G02G10G25G12G30
 115942964.134 7  90345238.871 7  22063212.344                    22063219.656
 126564733.497 6  98621936.196 6  24084473.891                    24084482.703
 108151720.987 7  84274202.522 8  20580559.531                    20580565.648
 121759249.308 7  94877387.31944  23170010.695                    23170019.172
 114931865.747 7  89557433.81845  21870783.258                    21870787.520
 127153293.600 6  99080627.51543  24196451.344                    24196458.777
 113761824.793 8  88645684.110 7  21648156.625                    21648166.363
 115119003.629 7  89703178.291 7  21906415.789                    21906422.102
 114527989.028 8  89242669.19345  21793950.852                    21793958.375
 11  8 14  2 56 30.0000000  0  9G29G15G05G26G02G10G25G12G30
 115865408.079 7  90284805.628 7  22048454.281                    22048460.738
 126468451.126 6  98546911.118 6  24066152.242                    24066160.973
 108192690.440 8  84306126.784 8  20588355.578                    20588361.453
 121667661.137 7  94806019.97344  23152581.875                    23152589.469
 114973877.586 7  89590170.32945  21878777.281                    21878782.313
 127261277.286 6  99164770.63443  24216999.484                    24217007.945
 113780866.617 8  88660521.908 7  21651779.703                    21651789.719
 115194281.263 7  89761836.202 7  21920740.789                    21920747.531
 114572913.296 8  89277675.12945  21802499.773                    21802507.285
 11  8 14  2 57  0.0000000  0  9G29G15G05G26G02G10G25G12G30
 115787998.437 7  90224486.474 7  22033723.531                    22033730.359
 126372120.193 7  98471848.161 5  24047821.500                    24047829.344
 108234121.004 8  84338410.348 8  20596239.484                    20596245.691
 121576246.330 7  94734787.69144  23135186.953                    23135194.395
 115015977.041 8  89622975.08745  21886789.000                    21886793.266
 127369343.285 6  99248977.88942  24237564.539                    24237571.773
 113800457.655 8  88675787.673 7  21655508.352                    21655517.551
 115269899.405 7  89820759.438 7  21935130.344                    21935136.863
 114618326.898 7  89313062.35545  21811142.094                    21811149.328
 11  8 14  2 57 30.0000000  0  9G29G15G05G26G02G10G25G12G30
 115710737.324 7  90164283.037 7  22019021.070                    22019027.777
 126275743.490 7  98396749.518 5  24029480.867                    24029488.523
 108276010.862 8  84371051.805 8  20604210.945                    20604217.172
 121485008.942 7  94663693.67544  23117825.055                    23117831.699
 115058164.453 8  89655848.39445  21894817.031                    21894821.250
 127477489.152 5  99333247.45543  24258142.984                    24258151.430
 113820596.884 8  88691480.586 7  21659340.688                    21659349.516
 115345855.774 8  89879946.231 7  21949583.883                    21949590.785
 114664227.590 8  89348829.14745  21819876.711                    21819883.863
 11  8 14  2 58  0.0000000  0  9G29G15G05G26G02G10G25G12G30
 115633626.756 7  90104196.926 7  22004347.422                    22004354.305
 126179323.595 7  98321617.207 5  24011133.609                    24011140.117
 108318357.422 8  84404049.132 8  20612269.445                    20612275.164
 121393952.407 7  94592740.56044  23100497.773                    23100504.914
 115100439.383 8  89688789.89845  21902861.695                    21902866.207
 127585712.309 6  99417577.12242  24278737.523                    24278745.414
 113841282.688 8  88707599.409 7  21663276.766                    21663286.156
 115422146.728 7  89939393.728 7  21964101.852                    21964108.660
 114710612.605 7  89384973.32845  21828703.289                    21828710.512
 11  8 14  2 58 30.0000000  0  9G29G15G05G26G02G10G25G12G30
 115556669.416 8  90044230.201 7  21989702.547                    21989709.480
 126082863.157 7  98246453.318 5  23992777.219                    23992784.469
 108361159.415 8  84437401.338 8  20620413.875                    20620420.148
 121303080.584 7  94521931.40344  23083205.359                    23083212.387
 115142802.166 8  89721799.86545  21910923.055                    21910927.559
 127694010.752 6  99501965.50443  24299346.438                    24299354.168
 113862514.050 8  88724143.336 7  21667317.414                    21667326.469
 115498769.498 8  89999099.799 7  21978682.891                    21978689.320
 114757479.908 7  89421493.31445  21837621.445                    21837628.934
 11  8 14  2 59  0.0000000  0  9G29G15G05G26G02G10G25G12G30
 115479866.539 7  89984383.826 7  21975087.898                    21975094.434
 125986365.264 6  98171260.237 6  23974414.328                    23974422.605
 108404413.538 8  84471105.860 8  20628645.242                    20628651.398
 121212396.369 7  94451268.42144  23065948.570                    23065955.434
 115185252.407 7  89754877.96145  21919001.070                    21919005.563
 127802381.209 6  99586409.98543  24319969.258                    24319976.258
 113884289.101 8  88741110.924 7  21671460.641                    21671470.066
 115575720.978 8  90059062.000 7  21993326.398                    21993332.852
 114804826.481 8  89458386.76345  21846631.352                    21846638.973
 11  8 14  2 59 30.0000000  0  9G29G15G05G26G02G10G25G12G30
 115403220.268 7  89924659.490 7  21960502.250                    21960509.277
 125889831.929 7  98096039.546 6  23956044.281                    23956052.125
 108448117.250 7  84505160.718 8  20636961.563                    20636968.355
 121121903.543 7  94380754.58944  23048727.742                    23048735.238
 115227789.784 7  89788023.96445  21927095.445                    21927099.852
 127910821.148 6  99670908.56243  24340604.648                    24340612.238
 113906606.157 8  88758500.844 7  21675707.648                    21675716.750
 115652998.101 7  90119277.947 7  22008031.586                    22008037.980
 114852649.640 8  89495651.56645  21855731.828                    21855739.453
 11  8 14  3  0  0.0000000  0  9G29G15G05G26G02G10G25G12G30
 115326733.033 8  89865059.067 7  21945947.531                    21945953.758
 125793266.585 7  98020793.948 6  23937668.953                    23937676.422
 108492269.509 7  84539565.089 8  20645363.453                    20645369.609
 121031605.937 7  94310392.87244  23031545.180                    23031552.246
 115270415.086 7  89821238.49745  21935206.625                    21935211.188
 128019328.906 6  99755460.05443  24361252.547                    24361260.012
 113929464.358 8  88776312.443 7  21680057.477                    21680066.730
 115730598.265 8  90179745.627 7  22022798.008                    22022805.184
 114900947.371 7  89533286.18545  21864922.555                    21864930.027
 11  8 14  3  0 30.0000000  0  9G29G15G05G26G02G10G25G12G30
 115250407.341 7  89805584.526 7  21931423.211                    21931430.012
 125696672.384 6  97945525.868 6  23919286.445                    23919295.656
 108536868.606 8  84574317.644 8  20653850.273                    20653856.551
 120941507.829 7  94240186.60444  23014400.055                    23014407.500
 115313128.406 8  89854521.59345  21943335.023                    21943339.992
 128127901.727 6  99840062.24443  24381913.242                    24381920.602
 113952862.517 8  88794544.783 7  21684509.961                    21684519.117
 115808519.051 7  90240463.136 7  22037625.883                    22037632.332
 114949717.443 8  89571288.84445  21874203.359                    21874210.516
 11  8 14  3  1  0.0000000  0  9G29G15G05G26G02G10G25G12G30
 115174244.908 8  89746237.209 7  21916929.852                    21916936.313
 125600051.448 6  97870236.996 6  23900899.797                    23900908.887
 108581911.491 8  84609415.999 8  20662421.477                    20662427.898
 120851612.225 7  94170138.14644  22997293.125                    22997300.387
 115355929.436 8  89887873.05145  21951479.555                    21951484.336
 128236537.293 6  99924713.32943  24402585.594                    24402593.273
 113976798.795 8  88813196.442 7  21689064.773                    21689073.898
 115886757.079 8  90301427.843 7  22052514.063                    22052520.789
 114998956.830 8  89609657.21345  21883573.164                    21883580.305
 11  8 14  3  1 30.0000000  0 10G29G15G05G26G02G10G25G12G30G21
 115098248.447 8  89687019.218 7  21902467.781                    21902475.016
 125503407.427 6  97794930.129 6  23882509.063                    23882518.285
 108627396.835 8  84644859.141 8  20671077.445                    20671083.727
 120761923.143 7  94100250.60844  22980226.047                    22980233.109
 115398818.673 8  89921293.22745  21959641.258                    21959646.102
 128345233.168 6 100009411.40643  24423270.320                    24423277.309
 114001271.988 8  88832266.472 7  21693722.180                    21693731.383
 115965309.451 7  90362637.495 7  22067462.391                    22067468.992
 115048663.285 8  89648389.53145  21893032.016                    21893039.582
 132289323.18516 103082590.16952  25173817.242                    25173823.004
 11  8 14  3  2  0.0000000  0 10G29G15G05G26G02G10G25G12G30G21
 115022419.738 7  89627931.950 7  21888038.336                    21888045.293
 125406742.486 6  97719606.951 7  23864113.836                    23864123.285
 108673321.925 8  84680644.938 8  20679816.500                    20679822.484
 120672444.240 7  94030526.86044  22963198.133                    22963205.918
 115441795.845 7  89954781.93245  21967819.602                    21967824.168
 128453986.910 6 100094154.58743  24443966.023                    24443972.352
 114026280.418 8  88851753.566 7  21698481.078                    21698490.082
 116044173.372 7  90424089.919 7  22082469.656                    22082476.262
 115098834.265 7  89687483.80745  21902579.461                    21902586.336
 132232252.750 6 103038119.82442  25162957.391                    25162964.184
 11  8 14  3  2 30.0000000  0 10G29G15G05G26G02G10G25G12G30G21
 114946760.882 8  89568977.026 7  21873640.813                    21873647.621
 125310059.638 6  97644269.795 6  23845717.094                    23845725.078
 108719684.402 8  84716771.556 8  20688639.172                    20688645.293
 120583179.008 7  93960969.59244  22946211.758                    22946218.996
 115484861.129 8  89988339.29645  21976015.219                    21976019.445
 128562796.263 6 100178941.08743  24464670.789                    24464678.348
 114051822.538 8  88871656.529 7  21703341.438                    21703350.563
 116123345.718 7  90485782.667 7  22097535.734                    22097542.066
 115149466.909 7  89726937.83045  21912214.492                    21912221.719
 132175194.193 6 102993658.71242  25152099.461                    25152107.281
 11  8 14  3  3  0.0000000  0 10G29G15G05G26G02G10G25G12G30G21
 114871274.208 7  89510156.275 7  21859276.641                    21859283.891
 125213361.612 6  97568920.791 6  23827315.727                    23827323.898
 108766482.133 8  84753237.331 8  20697544.633                    20697550.477
 120494131.158 7  93891581.68744  22929266.984                    22929274.176
 115528014.493 7  90021965.28745  21984226.727                    21984230.922
 128671658.601 6 100263768.83143  24485386.711                    24485394.434
 114077896.688 8  88891974.067 7  21708303.070                    21708312.336
 116202823.244 7  90547713.215 7  22112659.555                    22112666.293
 115200558.690 7  89766749.61945  21921936.797                    21921943.938
 132118147.044 6 102949206.42342  25141243.133                    25141251.613
 11  8 14  3  3 30.0000000  0 10G29G15G05G26G02G10G25G12G30G21
 114795961.855 7  89451471.358 7  21844945.039                    21844951.797
 125116651.175 7  97493562.097 6  23808912.500                    23808920.219
 108813713.220 8  84790040.788 8  20706532.000                    20706538.473
 120405304.443 7  93822366.09944  22912364.047                    22912370.852
 115571256.578 7  90055660.41145  21992455.438                    21992459.945
 128780571.648 6 100348636.13743  24506112.750                    24506119.930
 114104501.530 8  88912705.125 7  21713365.766                    21713375.000
 116282603.424 7  90609879.599 7  22127841.367                    22127847.977
 115252107.182 7  89806917.28945  21931746.133                    21931753.332
 132061110.992 5 102904762.91142  25130389.234                    25130398.215
 11  8 14  3  4  0.0000000  0 10G29G15G05G26G02G10G25G12G30G21
 114720825.732 8  89392923.761 7  21830647.008                    21830653.977
 125019931.270 7  97418196.048 6  23790506.828                    23790514.902
 108861375.242 8  84827180.038 8  20715601.875                    20715608.445
 120316702.364 7  93753325.54644  22895503.383                    22895509.492
 115614586.969 8  90089424.34445  22000700.633                    22000705.258
 128889533.188 6 100433541.18242  24526846.211                    24526855.016
 114131635.303 8  88933848.343 7  21718529.336                    21718538.734
 116362683.132 7  90672279.389 7  22143079.867                    22143086.160
 115304109.612 7  89847438.66645  21941641.680                    21941648.953
 132004085.286 5 102860327.47942  25119538.477                    25119546.578
 11  8 14  3  4 30.0000000  0 10G29G15G05G26G02G10G25G12G30G21
 114645868.118 8  89334515.267 7  21816382.969                    21816389.820
 124923204.772 7  97342824.829 6  23772100.422                    23772107.828
 108909465.592 8  84864653.052 8  20724753.031                    20724759.375
 120228328.538 7  93684462.87044  22878686.586                    22878692.742
 115658005.718 7  90123257.13745  22008962.867                    22008967.539
 128998540.85816 100518482.21952  24547590.359                    24547598.570
 114159296.164 8  88955402.262 7  21723792.750                    21723801.766
 116443059.435 7  90734910.275 7  22158375.266                    22158381.691
 115356563.006 7  89888311.45545  21951623.398                    21951630.434
 131947069.091 5 102815899.41042  25108688.266                    25108697.199
 11  8 14  3  5  0.0000000  0 10G29G15G05G26G02G10G25G12G30G21
 114571091.677 7  89276247.937 7  21802153.641                    21802160.164
 124826474.809 7  97267450.915 6  23753693.523                    23753700.469
 108957982.715 8  84902458.613 8  20733985.828                    20733991.813
 120140186.846 7  93615781.07644  22861913.406                    22861920.090
 115701513.065 7  90157158.94945  22017242.063                    22017246.793
 129107592.386 5 100603457.45842  24568341.938                    24568350.211
 114187482.876 8  88977365.947 7  21729156.406                    21729165.516
 116523729.229 7  90797769.869 7  22173726.133                    22173732.277
 115409465.208 7  89929533.95545  21961690.359                    21961697.430
 131890062.137 5 102771478.54442  25097839.625                    25097849.113
 11  8 14  3  5 30.0000000  0 10G29G15G05G26G02G10G25G12G30G21
 114496498.328 8  89218123.292 7  21787958.961                    21787965.797
 124729743.995 7  97192076.305 6  23735285.742                    23735292.914
 109006924.080 8  84940594.760 8  20743299.117                    20743305.410
 120052281.087 7  93547283.11144  22845184.984                    22845191.789
 115745109.180 7  90191129.93945  22025537.781                    22025542.520
 129216685.540 5 100688465.07442  24589102.781                    24589110.344
 114216193.704 8  88999738.025 7  21734619.844                    21734629.457
 116604689.639 7  90860855.904 7  22189132.289                    22189138.934
 115462813.450 7  89971104.02245  21971841.836                    21971849.324
 131833064.153 5 102727064.71342  25086992.719                    25087002.258
 11  8 14  3  6  0.0000000  0  9G29G15G05G26G02G25G12G30G21
 114422090.935 8  89160143.550 7  21773799.664                    21773806.434
 124633016.131 6  97116704.021 6  23716879.016                    23716886.152
 109056288.353 8  84979060.439 8  20752692.789                    20752698.797
 119964615.359 7  93478972.20644  22828502.719                    22828510.348
 115788794.892 8  90225170.74045  22033851.656                    22033855.574
 114245427.451 8  89022517.574 7  21740183.016                    21740192.254
 116685938.218 7  90924166.492 7  22204593.633                    22204599.711
 115516605.582 7  90013019.96645  21982078.641                    21982085.793
 131776074.541 5 102682657.33142  25076147.625                    25076157.121
 11  8 14  3  6 30.0000000  0  9G29G15G05G26G02G25G12G30G21
 114347871.315 8  89102310.129 7  21759676.328                    21759682.859
 124536293.090 6  97041335.521 6  23698472.539                    23698480.660
 109106072.365 8  85017853.188 8  20762165.852                    20762172.336
 119877192.890 7  93410850.86644  22811866.625                    22811874.285
 115832569.464 7  90259280.79645  22042181.430                    22042185.855
 114275181.809 8  89045702.796 7  21745845.422                    21745854.465
 116767471.654 7  90987699.040 7  22220108.648                    22220115.250
 115570838.219 7  90055279.16545  21992398.805                    21992405.699
 131719092.380 6 102638255.74642  25065304.930                    25065313.258
 11  8 14  3  7  0.0000000  0  9G29G15G05G26G02G25G12G30G21
 114273841.272 8  89044624.426 7  21745588.461                    21745595.281
 124439577.400 6  96965972.754 6  23680068.438                    23680076.727
 109156273.434 8  85056970.920 8  20771718.883                    20771725.301
 119790016.902 7  93342921.57044  22795277.797                    22795285.121
 115876432.895 8  90293460.08945  22050528.477                    22050533.008
 114305454.854 8  89069292.202 7  21751605.492                    21751615.113
 116849286.443 7  91051450.823 7  22235677.352                    22235683.824
 115625508.514 7  90097879.39445  22002802.031                    22002809.164
 131662117.189 6 102593859.62143  25054463.258                    25054471.320
 11  8 14  3  7 30.0000000  0  9G29G15G05G26G02G25G12G30G21
 114200003.109 8  88987088.241 7  21731537.609                    21731544.234
 124342872.553 6  96890618.449 6  23661666.516                    23661674.563
 109206889.712 8  85096412.184 8  20781350.938                    20781357.477
 119703091.477 7  93275187.52044  22778736.266                    22778743.598
 115920385.638 7  90327708.96745  22058892.469                    22058896.992
 114336244.992 8  89093284.513 7  21757465.227                    21757474.023
 116931379.931 7  91115419.783 7  22251299.414                    22251305.586
 115680613.902 7  90140818.67645  22013288.172                    22013295.473
 131605148.266 6 102549468.34143  25043621.742                    25043629.848
 11  8 14  3  8  0.0000000  0  9G29G15G05G26G02G25G12G30G21
 114126358.994 7  88929703.265 7  21717523.734                    21717529.977
 124246181.358 6  96815274.761 6  23643267.102                    23643274.125
 109257918.770 8  85136175.104 7  20791061.563                    20791067.605
 119616419.971 7  93207651.34444  22762243.398                    22762250.578
 115964427.827 7  90362027.54545  22067273.680                    22067277.664
 114367550.318 8  89117678.274 7  21763421.984                    21763431.547
 117013748.551 7  91179603.136 7  22266973.609                    22266979.910
 115736151.496 7  90184094.72545  22023856.555                    22023863.434
 131548184.757 6 102505081.32143  25032781.477                    25032790.082
 11  8 14  3  8 30.0000000  0  9G29G15G05G26G02G25G12G30G21
 114052911.195 7  88872471.260 7  21703546.570                    21703553.086
 124149506.707 6  96739943.964 6  23624869.922                    23624877.883
 109309358.364 8  85176257.918 7  20800850.164                    20800855.992
 119530006.433 7  93140316.16444  22745799.578                    22745806.789
 116008559.437 7  90396415.78645  22075671.367                    22075675.684
 114399369.162 8  89142472.188 7  21769477.313                    21769486.082
 117096389.868 7  91243998.977 7  22282699.492                    22282706.336
 115792118.588 7  90227705.45745  22034506.984                    22034514.070
 131491226.563 6 102460698.43843  25021943.492                    25021950.852
 11  8 14  3  9  0.0000000  0  9G29G15G05G26G02G25G12G30G21
 113979662.286 8  88815394.229 7  21689607.789                    21689614.574
 124052851.572 6  96664628.372 6  23606477.016                    23606484.797
 109361206.370 8  85216658.977 7  20810716.594                    20810722.613
 119443854.237 7  93073184.63344  22729405.141                    22729412.246
 116052780.769 7  90430873.95245  22084086.289                    22084091.055
 114431699.684 8  89167664.804 7  21775629.586                    21775638.383
 117179300.720 7  91308604.837 7  22298476.789                    22298483.688
 115848512.464 7  90271648.74545  22045238.117                    22045245.273
 131434272.943 6 102416319.09443  25011106.016                    25011113.754
 11  8 14  3  9 30.0000000  0  9G29G15G05G26G02G25G12G30G21
 113906614.182 8  88758473.685 7  21675707.352                    21675714.000
 123956218.719 7  96589330.143 6  23588088.219                    23588096.059
 109413460.242 8  85257376.288 8  20820660.047                    20820666.133
 119357967.108 7  93006259.61145  22713061.609                    22713068.734
 116097091.746 7  90465401.97845  22092517.828                    22092522.930
 114464539.884 8  89193254.581 7  21781878.617                    21781887.918
 117262477.763 7  91373418.114 7  22314305.234                    22314311.734
 115905330.199 7  90315922.31745  22056050.039                    22056057.555
 131377323.354 6 102371942.87343  25000268.305                    25000276.215
 11  8 14  3 10  0.0000000  0  9G29G15G05G26G02G25G12G30G21
 113833769.343 8  88701711.503 7  21661845.484                    21661851.910
 123859611.255 7  96514051.702 6  23569704.344                    23569712.070
 109466117.798 8  85298408.165 8  20830680.609                    20830686.578
 119272349.021 7  92939544.25745  22696769.195                    22696775.449
 116141492.800 7  90500000.18945  22100967.430                    22100972.590
 114497888.141 8  89219240.240 7  21788224.625                    21788233.719
 117345918.234 7  91438436.665 7  22330183.273                    22330189.758
 115962569.202 7  90360524.14745  22066942.633                    22066949.418
 131320377.162 6 102327569.30843  24989431.781                    24989439.098
 11  8 14  3 10 30.0000000  0  9G29G15G05G26G02G25G12G30G21
 113761129.871 8  88645109.365 7  21648022.289                    21648029.188
 123763032.235 7  96438795.426 6  23551326.117                    23551333.867
 109519176.864 8  85339752.900 8  20840777.242                    20840783.313
 119187003.393 7  92873041.20544  22680527.734                    22680535.070
 116185983.995 7  90534668.65445  22109433.891                    22109438.430
 114531742.618 8  89245620.361 7  21794667.000                    21794676.211
 117429619.261 7  91503658.233 7  22346111.484                    22346117.285
 116020226.639 7  90405452.02745  22077914.211                    22077921.645
 131263434.097 6 102283198.18143  24978595.516                    24978603.633
 11  8 14  3 11  0.0000000  0  9G29G15G05G26G02G25G12G30G21
 113688698.277 8  88588669.205 7  21634238.719                    21634245.813
 123666484.009 7  96363563.147 6  23532953.320                    23532960.918
 109572634.872 8  85381408.512 8  20850950.141                    20850956.289
 119101934.031 7  92806753.42444  22664340.211                    22664346.688
 116230565.656 7  90569407.58745  22117917.648                    22117922.313
 114566101.316 8  89272393.384 7  21801205.406                    21801214.656
 117513577.723 7  91569080.404 7  22362087.773                    22362094.699
 116078299.668 7  90450703.75245  22088965.477                    22088972.469
 131206493.550 6 102238829.01443  24967760.336                    24967768.688
 11  8 14  3 11 30.0000000  0  9G29G15G05G26G02G25G12G30G21
 113616477.053 8  88532392.967 7  21620495.727                    21620502.742
 123569970.030 7  96288357.555 6  23514587.070                    23514594.504
 109626489.596 8  85423373.236 8  20861198.414                    20861204.477
 119017144.618 7  92740683.78244  22648205.148                    22648211.953
 116275237.751 7  90604217.00345  22126418.555                    22126423.172
 114600962.348 8  89299557.833 7  21807838.742                    21807848.367
 117597790.583 7  91634700.817 7  22378113.008                    22378119.910
 116136785.439 8  90496277.08645  22100094.695                    22100101.527
 131149554.967 6 102194461.40843  24956925.859                    24956932.938
 11  8 14  3 12  0.0000000  0  9G29G15G05G26G02G25G12G30G21
 113544467.898 8  88476281.974 7  21606792.891                    21606799.832
 123473493.320 7  96213180.985 6  23496228.281                    23496235.563
 109680738.434 8  85465645.071 8  20871521.414                    20871527.402
 118932638.691 7  92674835.02144  22632123.469                    22632130.777
 116320000.562 7  90639097.09645  22134936.883                    22134940.742
 114636323.615 8  89327112.080 7  21814568.055                    21814577.316
 117682254.720 7  91700517.025 7  22394185.883                    22394192.418
 116195680.955 7  90542169.70345  22111302.023                    22111309.168
 131092617.521 6 102150094.68543  24946090.484                    24946098.086
 11  8 14  3 12 30.0000000  0  9G29G15G05G26G02G25G12G30G21
 113472673.082 8  88420337.995 7  21593130.727                    21593137.379
 123377056.653 7  96138035.625 6  23477877.078                    23477884.598
 109735379.397 8  85508222.461 8  20881919.289                    20881925.578
 118848419.994 7  92609210.10844  22616097.336                    22616104.477
 116364854.407 7  90674048.14245  22143471.992                    22143476.551
 114672183.251 8  89355054.659 7  21821392.063                    21821401.121
 117766967.261 7  91766526.799 7  22410306.328                    22410312.496
 116254983.487 7  90588379.48645  22122587.188                    22122594.180
 131035680.922 6 102105728.62843  24935255.719                    24935263.375
 11  8 14  3 13  0.0000000  0  9G29G15G05G26G02G25G12G30G21
 113401095.359 8  88364563.178 7  21579510.227                    21579516.457
 123280663.240 7  96062923.963 6  23459533.930                    23459541.469
 109790410.137 8  85551103.565 7  20892391.234                    20892397.543
 118764492.457 7  92543812.07444  22600126.852                    22600134.004
 116409799.416 8  90709070.20045  22152024.609                    22152029.152
 114708539.417 8  89383384.149 7  21828310.039                    21828319.813
 117851925.136 7  91832727.740 7  22426473.086                    22426479.820
 116314690.275 7  90634904.26945  22133949.195                    22133956.230
 130978744.629 6 102061362.79343  24924420.852                    24924428.336
 11  8 14  3 13 30.0000000  0  9G29G15G05G26G02G25G12G30G21
 113329736.755 8  88308959.107 7  21565930.961                    21565937.922
 123184315.930 7  95987848.234 6  23441199.906                    23441207.148
 109845828.124 8  85594286.431 7  20902936.992                    20902943.156
 118680859.614 7  92478643.66545  22584211.695                    22584218.711
 116454835.870 7  90744163.54045  22160595.297                    22160599.625
 114745389.984 8  89412098.888 7  21835322.688                    21835331.766
 117937125.175 7  91899117.379 7  22442686.328                    22442692.930
 116374798.311 7  90681741.70745  22145387.078                    22145394.125
 130921807.821 6 102016996.56243  24913586.414                    24913593.641
 11  8 14  3 14  0.0000000  0  9G29G15G05G26G02G25G12G30G21
 113258599.736 8  88253527.701 7  21552394.000                    21552400.895
 123088017.781 7  95912810.801 6  23422874.984                    23422881.875
 109901631.152 8  85637769.316 7  20913555.867                    20913561.754
 118597525.045 7  92413707.66045  22568354.031                    22568361.219
 116499964.050 7  90779328.34745  22169183.016                    22169187.254
 114782733.029 8  89441197.368 7  21842428.984                    21842438.172
 118022564.559 7  91965693.533 7  22458944.984                    22458951.391
 116435304.824 7  90728889.65445  22156901.109                    22156908.262
 130864870.260 6 101972629.72843  24902750.773                    24902758.758
